<?xml version="1.0" encoding="UTF-8" standalone="no" ?>
<gpx xmlns="http://www.topografix.com/GPX/1/1" xmlns:xsi="http://www.w3.org/2001/XMLSchema-instance" xsi:schemaLocation="http://www.topografix.com/GPX/1/1 http://www.topografix.com/GPX/1/1/gpx.xsd" version="1.1" creator="VisuGPX - https://www.visugpx.com">
  <metadata>
    <name>Cormet de Roselend</name>
    <desc><![CDATA[Départ du refuge du Plan de Lai]]></desc>
  </metadata>
  <trk>
    <name><![CDATA[Tracé actuel: 14 AOU 2014 09:36]]></name>
    <trkseg>
      <trkpt lat="45.69255" lon="6.67093">
        <ele>1827.12</ele>
        <time>2014-08-14T07:36:32Z</time>
      </trkpt>
      <trkpt lat="45.69255" lon="6.67095">
        <ele>1827.12</ele>
        <time>2014-08-14T07:37:13Z</time>
      </trkpt>
      <trkpt lat="45.69257" lon="6.67094">
        <ele>1827.12</ele>
        <time>2014-08-14T07:37:14Z</time>
      </trkpt>
      <trkpt lat="45.69258" lon="6.67091">
        <ele>1827.12</ele>
        <time>2014-08-14T07:37:15Z</time>
      </trkpt>
      <trkpt lat="45.6928" lon="6.6705">
        <ele>1823.76</ele>
        <time>2014-08-14T07:37:23Z</time>
      </trkpt>
      <trkpt lat="45.69296" lon="6.67019">
        <ele>1821.84</ele>
        <time>2014-08-14T07:37:27Z</time>
      </trkpt>
      <trkpt lat="45.69299" lon="6.67009">
        <ele>1820.39</ele>
        <time>2014-08-14T07:37:28Z</time>
      </trkpt>
      <trkpt lat="45.69301" lon="6.66998">
        <ele>1820.39</ele>
        <time>2014-08-14T07:37:29Z</time>
      </trkpt>
      <trkpt lat="45.6933" lon="6.66871">
        <ele>1817.51</ele>
        <time>2014-08-14T07:37:42Z</time>
      </trkpt>
      <trkpt lat="45.69348" lon="6.66796">
        <ele>1814.63</ele>
        <time>2014-08-14T07:37:49Z</time>
      </trkpt>
      <trkpt lat="45.69356" lon="6.66726">
        <ele>1811.26</ele>
        <time>2014-08-14T07:37:55Z</time>
      </trkpt>
      <trkpt lat="45.69356" lon="6.66672">
        <ele>1808.38</ele>
        <time>2014-08-14T07:38:00Z</time>
      </trkpt>
      <trkpt lat="45.69359" lon="6.66639">
        <ele>1806.94</ele>
        <time>2014-08-14T07:38:03Z</time>
      </trkpt>
      <trkpt lat="45.69362" lon="6.66628">
        <ele>1806.45</ele>
        <time>2014-08-14T07:38:04Z</time>
      </trkpt>
      <trkpt lat="45.69367" lon="6.66618">
        <ele>1805.97</ele>
        <time>2014-08-14T07:38:05Z</time>
      </trkpt>
      <trkpt lat="45.69371" lon="6.66608">
        <ele>1805.01</ele>
        <time>2014-08-14T07:38:06Z</time>
      </trkpt>
      <trkpt lat="45.69374" lon="6.66598">
        <ele>1804.53</ele>
        <time>2014-08-14T07:38:07Z</time>
      </trkpt>
      <trkpt lat="45.69376" lon="6.66588">
        <ele>1804.53</ele>
        <time>2014-08-14T07:38:08Z</time>
      </trkpt>
      <trkpt lat="45.69378" lon="6.66578">
        <ele>1803.57</ele>
        <time>2014-08-14T07:38:09Z</time>
      </trkpt>
      <trkpt lat="45.69381" lon="6.66568">
        <ele>1802.61</ele>
        <time>2014-08-14T07:38:10Z</time>
      </trkpt>
      <trkpt lat="45.69384" lon="6.6656">
        <ele>1802.61</ele>
        <time>2014-08-14T07:38:11Z</time>
      </trkpt>
      <trkpt lat="45.69388" lon="6.66552">
        <ele>1801.65</ele>
        <time>2014-08-14T07:38:12Z</time>
      </trkpt>
      <trkpt lat="45.69393" lon="6.66546">
        <ele>1801.17</ele>
        <time>2014-08-14T07:38:13Z</time>
      </trkpt>
      <trkpt lat="45.69398" lon="6.6654">
        <ele>1800.69</ele>
        <time>2014-08-14T07:38:14Z</time>
      </trkpt>
      <trkpt lat="45.69404" lon="6.66535">
        <ele>1799.73</ele>
        <time>2014-08-14T07:38:15Z</time>
      </trkpt>
      <trkpt lat="45.69435" lon="6.66511">
        <ele>1796.84</ele>
        <time>2014-08-14T07:38:20Z</time>
      </trkpt>
      <trkpt lat="45.69442" lon="6.66507">
        <ele>1796.36</ele>
        <time>2014-08-14T07:38:21Z</time>
      </trkpt>
      <trkpt lat="45.69448" lon="6.66505">
        <ele>1795.88</ele>
        <time>2014-08-14T07:38:22Z</time>
      </trkpt>
      <trkpt lat="45.69477" lon="6.66496">
        <ele>1793</ele>
        <time>2014-08-14T07:38:26Z</time>
      </trkpt>
      <trkpt lat="45.69491" lon="6.66494">
        <ele>1792.52</ele>
        <time>2014-08-14T07:38:28Z</time>
      </trkpt>
      <trkpt lat="45.69497" lon="6.66495">
        <ele>1791.07</ele>
        <time>2014-08-14T07:38:29Z</time>
      </trkpt>
      <trkpt lat="45.69504" lon="6.66498">
        <ele>1790.59</ele>
        <time>2014-08-14T07:38:30Z</time>
      </trkpt>
      <trkpt lat="45.6951" lon="6.66501">
        <ele>1790.59</ele>
        <time>2014-08-14T07:38:31Z</time>
      </trkpt>
      <trkpt lat="45.69514" lon="6.66504">
        <ele>1789.63</ele>
        <time>2014-08-14T07:38:32Z</time>
      </trkpt>
      <trkpt lat="45.69519" lon="6.66507">
        <ele>1789.63</ele>
        <time>2014-08-14T07:38:33Z</time>
      </trkpt>
      <trkpt lat="45.69526" lon="6.66513">
        <ele>1788.19</ele>
        <time>2014-08-14T07:38:40Z</time>
      </trkpt>
      <trkpt lat="45.69535" lon="6.66511">
        <ele>1787.71</ele>
        <time>2014-08-14T07:39:09Z</time>
      </trkpt>
      <trkpt lat="45.69539" lon="6.66513">
        <ele>1787.23</ele>
        <time>2014-08-14T07:39:10Z</time>
      </trkpt>
      <trkpt lat="45.69544" lon="6.66513">
        <ele>1787.23</ele>
        <time>2014-08-14T07:39:11Z</time>
      </trkpt>
      <trkpt lat="45.69549" lon="6.66511">
        <ele>1786.75</ele>
        <time>2014-08-14T07:39:12Z</time>
      </trkpt>
      <trkpt lat="45.69554" lon="6.66508">
        <ele>1786.27</ele>
        <time>2014-08-14T07:39:13Z</time>
      </trkpt>
      <trkpt lat="45.69559" lon="6.66503">
        <ele>1785.31</ele>
        <time>2014-08-14T07:39:14Z</time>
      </trkpt>
      <trkpt lat="45.69564" lon="6.66497">
        <ele>1785.31</ele>
        <time>2014-08-14T07:39:15Z</time>
      </trkpt>
      <trkpt lat="45.69569" lon="6.6649">
        <ele>1784.34</ele>
        <time>2014-08-14T07:39:16Z</time>
      </trkpt>
      <trkpt lat="45.69573" lon="6.66482">
        <ele>1783.86</ele>
        <time>2014-08-14T07:39:17Z</time>
      </trkpt>
      <trkpt lat="45.69578" lon="6.66473">
        <ele>1782.9</ele>
        <time>2014-08-14T07:39:18Z</time>
      </trkpt>
      <trkpt lat="45.69586" lon="6.66453">
        <ele>1781.94</ele>
        <time>2014-08-14T07:39:20Z</time>
      </trkpt>
      <trkpt lat="45.69619" lon="6.66401">
        <ele>1777.61</ele>
        <time>2014-08-14T07:39:25Z</time>
      </trkpt>
      <trkpt lat="45.69632" lon="6.6638">
        <ele>1775.69</ele>
        <time>2014-08-14T07:39:27Z</time>
      </trkpt>
      <trkpt lat="45.69635" lon="6.66367">
        <ele>1775.21</ele>
        <time>2014-08-14T07:39:28Z</time>
      </trkpt>
      <trkpt lat="45.69636" lon="6.66354">
        <ele>1774.25</ele>
        <time>2014-08-14T07:39:29Z</time>
      </trkpt>
      <trkpt lat="45.69636" lon="6.6634">
        <ele>1773.29</ele>
        <time>2014-08-14T07:39:30Z</time>
      </trkpt>
      <trkpt lat="45.69634" lon="6.66327">
        <ele>1772.81</ele>
        <time>2014-08-14T07:39:31Z</time>
      </trkpt>
      <trkpt lat="45.69633" lon="6.66313">
        <ele>1772.81</ele>
        <time>2014-08-14T07:39:32Z</time>
      </trkpt>
      <trkpt lat="45.69633" lon="6.663">
        <ele>1772.81</ele>
        <time>2014-08-14T07:39:33Z</time>
      </trkpt>
      <trkpt lat="45.69633" lon="6.66287">
        <ele>1771.85</ele>
        <time>2014-08-14T07:39:34Z</time>
      </trkpt>
      <trkpt lat="45.69631" lon="6.66275">
        <ele>1771.37</ele>
        <time>2014-08-14T07:39:35Z</time>
      </trkpt>
      <trkpt lat="45.69628" lon="6.66263">
        <ele>1770.89</ele>
        <time>2014-08-14T07:39:36Z</time>
      </trkpt>
      <trkpt lat="45.69625" lon="6.66251">
        <ele>1769.92</ele>
        <time>2014-08-14T07:39:37Z</time>
      </trkpt>
      <trkpt lat="45.69622" lon="6.6624">
        <ele>1769.44</ele>
        <time>2014-08-14T07:39:38Z</time>
      </trkpt>
      <trkpt lat="45.69614" lon="6.66198">
        <ele>1766.56</ele>
        <time>2014-08-14T07:39:42Z</time>
      </trkpt>
      <trkpt lat="45.69601" lon="6.66164">
        <ele>1763.68</ele>
        <time>2014-08-14T07:39:46Z</time>
      </trkpt>
      <trkpt lat="45.69599" lon="6.66157">
        <ele>1763.2</ele>
        <time>2014-08-14T07:39:47Z</time>
      </trkpt>
      <trkpt lat="45.69597" lon="6.66152">
        <ele>1762.71</ele>
        <time>2014-08-14T07:39:48Z</time>
      </trkpt>
      <trkpt lat="45.69593" lon="6.66146">
        <ele>1761.27</ele>
        <time>2014-08-14T07:39:56Z</time>
      </trkpt>
      <trkpt lat="45.69593" lon="6.66147">
        <ele>1762.71</ele>
        <time>2014-08-14T07:39:58Z</time>
      </trkpt>
      <trkpt lat="45.69591" lon="6.66151">
        <ele>1762.71</ele>
        <time>2014-08-14T07:40:26Z</time>
      </trkpt>
      <trkpt lat="45.69582" lon="6.6614">
        <ele>1761.27</ele>
        <time>2014-08-14T07:40:30Z</time>
      </trkpt>
      <trkpt lat="45.69576" lon="6.66127">
        <ele>1760.31</ele>
        <time>2014-08-14T07:40:32Z</time>
      </trkpt>
      <trkpt lat="45.69556" lon="6.66081">
        <ele>1756.95</ele>
        <time>2014-08-14T07:40:37Z</time>
      </trkpt>
      <trkpt lat="45.69534" lon="6.6604">
        <ele>1754.06</ele>
        <time>2014-08-14T07:40:41Z</time>
      </trkpt>
      <trkpt lat="45.69503" lon="6.66006">
        <ele>1750.22</ele>
        <time>2014-08-14T07:40:45Z</time>
      </trkpt>
      <trkpt lat="45.69466" lon="6.65974">
        <ele>1745.89</ele>
        <time>2014-08-14T07:40:49Z</time>
      </trkpt>
      <trkpt lat="45.69447" lon="6.65956">
        <ele>1743.97</ele>
        <time>2014-08-14T07:40:51Z</time>
      </trkpt>
      <trkpt lat="45.6942" lon="6.65922">
        <ele>1741.08</ele>
        <time>2014-08-14T07:40:54Z</time>
      </trkpt>
      <trkpt lat="45.69394" lon="6.65885">
        <ele>1737.72</ele>
        <time>2014-08-14T07:40:57Z</time>
      </trkpt>
      <trkpt lat="45.69368" lon="6.65844">
        <ele>1733.39</ele>
        <time>2014-08-14T07:41:00Z</time>
      </trkpt>
      <trkpt lat="45.69351" lon="6.65816">
        <ele>1730.99</ele>
        <time>2014-08-14T07:41:02Z</time>
      </trkpt>
      <trkpt lat="45.69341" lon="6.65804">
        <ele>1730.03</ele>
        <time>2014-08-14T07:41:03Z</time>
      </trkpt>
      <trkpt lat="45.69322" lon="6.65781">
        <ele>1727.63</ele>
        <time>2014-08-14T07:41:05Z</time>
      </trkpt>
      <trkpt lat="45.69315" lon="6.65766">
        <ele>1726.18</ele>
        <time>2014-08-14T07:41:06Z</time>
      </trkpt>
      <trkpt lat="45.69301" lon="6.65736">
        <ele>1723.78</ele>
        <time>2014-08-14T07:41:08Z</time>
      </trkpt>
      <trkpt lat="45.69292" lon="6.65721">
        <ele>1722.34</ele>
        <time>2014-08-14T07:41:09Z</time>
      </trkpt>
      <trkpt lat="45.69283" lon="6.65707">
        <ele>1721.38</ele>
        <time>2014-08-14T07:41:10Z</time>
      </trkpt>
      <trkpt lat="45.69275" lon="6.65692">
        <ele>1720.42</ele>
        <time>2014-08-14T07:41:11Z</time>
      </trkpt>
      <trkpt lat="45.69267" lon="6.65677">
        <ele>1719.46</ele>
        <time>2014-08-14T07:41:12Z</time>
      </trkpt>
      <trkpt lat="45.69259" lon="6.65663">
        <ele>1718.01</ele>
        <time>2014-08-14T07:41:13Z</time>
      </trkpt>
      <trkpt lat="45.69249" lon="6.65649">
        <ele>1716.57</ele>
        <time>2014-08-14T07:41:14Z</time>
      </trkpt>
      <trkpt lat="45.69224" lon="6.65604">
        <ele>1713.21</ele>
        <time>2014-08-14T07:41:17Z</time>
      </trkpt>
      <trkpt lat="45.69203" lon="6.65554">
        <ele>1709.36</ele>
        <time>2014-08-14T07:41:20Z</time>
      </trkpt>
      <trkpt lat="45.69185" lon="6.65502">
        <ele>1705.52</ele>
        <time>2014-08-14T07:41:23Z</time>
      </trkpt>
      <trkpt lat="45.69178" lon="6.65486">
        <ele>1704.55</ele>
        <time>2014-08-14T07:41:24Z</time>
      </trkpt>
      <trkpt lat="45.6917" lon="6.6547">
        <ele>1703.11</ele>
        <time>2014-08-14T07:41:25Z</time>
      </trkpt>
      <trkpt lat="45.69144" lon="6.65428">
        <ele>1699.27</ele>
        <time>2014-08-14T07:41:28Z</time>
      </trkpt>
      <trkpt lat="45.69123" lon="6.65397">
        <ele>1696.38</ele>
        <time>2014-08-14T07:41:31Z</time>
      </trkpt>
      <trkpt lat="45.69117" lon="6.6539">
        <ele>1695.42</ele>
        <time>2014-08-14T07:41:32Z</time>
      </trkpt>
      <trkpt lat="45.69107" lon="6.6538">
        <ele>1694.46</ele>
        <time>2014-08-14T07:41:34Z</time>
      </trkpt>
      <trkpt lat="45.69106" lon="6.65373">
        <ele>1693.5</ele>
        <time>2014-08-14T07:41:35Z</time>
      </trkpt>
      <trkpt lat="45.69108" lon="6.65368">
        <ele>1692.54</ele>
        <time>2014-08-14T07:41:36Z</time>
      </trkpt>
      <trkpt lat="45.69113" lon="6.65367">
        <ele>1692.54</ele>
        <time>2014-08-14T07:41:37Z</time>
      </trkpt>
      <trkpt lat="45.69118" lon="6.65372">
        <ele>1692.54</ele>
        <time>2014-08-14T07:41:38Z</time>
      </trkpt>
      <trkpt lat="45.69123" lon="6.65378">
        <ele>1691.58</ele>
        <time>2014-08-14T07:41:39Z</time>
      </trkpt>
      <trkpt lat="45.69133" lon="6.65392">
        <ele>1691.1</ele>
        <time>2014-08-14T07:41:41Z</time>
      </trkpt>
      <trkpt lat="45.69179" lon="6.65442">
        <ele>1688.21</ele>
        <time>2014-08-14T07:41:48Z</time>
      </trkpt>
      <trkpt lat="45.69209" lon="6.6548">
        <ele>1684.85</ele>
        <time>2014-08-14T07:41:52Z</time>
      </trkpt>
      <trkpt lat="45.69239" lon="6.65529">
        <ele>1681</ele>
        <time>2014-08-14T07:41:56Z</time>
      </trkpt>
      <trkpt lat="45.69265" lon="6.65562">
        <ele>1678.12</ele>
        <time>2014-08-14T07:41:59Z</time>
      </trkpt>
      <trkpt lat="45.69304" lon="6.65597">
        <ele>1674.75</ele>
        <time>2014-08-14T07:42:03Z</time>
      </trkpt>
      <trkpt lat="45.69328" lon="6.65619">
        <ele>1672.35</ele>
        <time>2014-08-14T07:42:06Z</time>
      </trkpt>
      <trkpt lat="45.69335" lon="6.65629">
        <ele>1671.39</ele>
        <time>2014-08-14T07:42:07Z</time>
      </trkpt>
      <trkpt lat="45.69358" lon="6.65659">
        <ele>1668.51</ele>
        <time>2014-08-14T07:42:10Z</time>
      </trkpt>
      <trkpt lat="45.6938" lon="6.65681">
        <ele>1665.62</ele>
        <time>2014-08-14T07:42:13Z</time>
      </trkpt>
      <trkpt lat="45.69386" lon="6.6569">
        <ele>1665.14</ele>
        <time>2014-08-14T07:42:14Z</time>
      </trkpt>
      <trkpt lat="45.69391" lon="6.65699">
        <ele>1664.18</ele>
        <time>2014-08-14T07:42:15Z</time>
      </trkpt>
      <trkpt lat="45.69396" lon="6.65707">
        <ele>1663.7</ele>
        <time>2014-08-14T07:42:16Z</time>
      </trkpt>
      <trkpt lat="45.69399" lon="6.65716">
        <ele>1663.22</ele>
        <time>2014-08-14T07:42:17Z</time>
      </trkpt>
      <trkpt lat="45.69402" lon="6.65724">
        <ele>1662.74</ele>
        <time>2014-08-14T07:42:18Z</time>
      </trkpt>
      <trkpt lat="45.69405" lon="6.65732">
        <ele>1662.26</ele>
        <time>2014-08-14T07:42:19Z</time>
      </trkpt>
      <trkpt lat="45.69407" lon="6.65741">
        <ele>1662.26</ele>
        <time>2014-08-14T07:42:20Z</time>
      </trkpt>
      <trkpt lat="45.6941" lon="6.65748">
        <ele>1661.78</ele>
        <time>2014-08-14T07:42:21Z</time>
      </trkpt>
      <trkpt lat="45.69414" lon="6.65755">
        <ele>1661.3</ele>
        <time>2014-08-14T07:42:22Z</time>
      </trkpt>
      <trkpt lat="45.69418" lon="6.6576">
        <ele>1660.81</ele>
        <time>2014-08-14T07:42:23Z</time>
      </trkpt>
      <trkpt lat="45.69423" lon="6.65763">
        <ele>1660.81</ele>
        <time>2014-08-14T07:42:24Z</time>
      </trkpt>
      <trkpt lat="45.69427" lon="6.65766">
        <ele>1660.33</ele>
        <time>2014-08-14T07:42:25Z</time>
      </trkpt>
      <trkpt lat="45.69432" lon="6.65768">
        <ele>1660.33</ele>
        <time>2014-08-14T07:42:26Z</time>
      </trkpt>
      <trkpt lat="45.69437" lon="6.6577">
        <ele>1659.85</ele>
        <time>2014-08-14T07:42:27Z</time>
      </trkpt>
      <trkpt lat="45.69465" lon="6.65782">
        <ele>1656.49</ele>
        <time>2014-08-14T07:42:31Z</time>
      </trkpt>
      <trkpt lat="45.69473" lon="6.65784">
        <ele>1656.01</ele>
        <time>2014-08-14T07:42:32Z</time>
      </trkpt>
      <trkpt lat="45.69482" lon="6.65785">
        <ele>1655.53</ele>
        <time>2014-08-14T07:42:33Z</time>
      </trkpt>
      <trkpt lat="45.69521" lon="6.65791">
        <ele>1652.16</ele>
        <time>2014-08-14T07:42:37Z</time>
      </trkpt>
      <trkpt lat="45.69562" lon="6.65797">
        <ele>1648.32</ele>
        <time>2014-08-14T07:42:41Z</time>
      </trkpt>
      <trkpt lat="45.69571" lon="6.65794">
        <ele>1647.36</ele>
        <time>2014-08-14T07:42:42Z</time>
      </trkpt>
      <trkpt lat="45.69579" lon="6.65788">
        <ele>1646.4</ele>
        <time>2014-08-14T07:42:43Z</time>
      </trkpt>
      <trkpt lat="45.69586" lon="6.6578">
        <ele>1645.91</ele>
        <time>2014-08-14T07:42:44Z</time>
      </trkpt>
      <trkpt lat="45.69591" lon="6.6577">
        <ele>1645.43</ele>
        <time>2014-08-14T07:42:45Z</time>
      </trkpt>
      <trkpt lat="45.69595" lon="6.6576">
        <ele>1644.95</ele>
        <time>2014-08-14T07:42:46Z</time>
      </trkpt>
      <trkpt lat="45.69598" lon="6.65748">
        <ele>1644.47</ele>
        <time>2014-08-14T07:42:47Z</time>
      </trkpt>
      <trkpt lat="45.696" lon="6.65736">
        <ele>1643.51</ele>
        <time>2014-08-14T07:42:48Z</time>
      </trkpt>
      <trkpt lat="45.696" lon="6.65723">
        <ele>1643.03</ele>
        <time>2014-08-14T07:42:49Z</time>
      </trkpt>
      <trkpt lat="45.69598" lon="6.6571">
        <ele>1642.07</ele>
        <time>2014-08-14T07:42:50Z</time>
      </trkpt>
      <trkpt lat="45.69594" lon="6.65698">
        <ele>1641.59</ele>
        <time>2014-08-14T07:42:51Z</time>
      </trkpt>
      <trkpt lat="45.69589" lon="6.65688">
        <ele>1640.63</ele>
        <time>2014-08-14T07:42:52Z</time>
      </trkpt>
      <trkpt lat="45.69582" lon="6.6568">
        <ele>1640.15</ele>
        <time>2014-08-14T07:42:53Z</time>
      </trkpt>
      <trkpt lat="45.69574" lon="6.65674">
        <ele>1639.19</ele>
        <time>2014-08-14T07:42:54Z</time>
      </trkpt>
      <trkpt lat="45.69564" lon="6.65672">
        <ele>1639.19</ele>
        <time>2014-08-14T07:42:55Z</time>
      </trkpt>
      <trkpt lat="45.69554" lon="6.65671">
        <ele>1638.22</ele>
        <time>2014-08-14T07:42:56Z</time>
      </trkpt>
      <trkpt lat="45.69544" lon="6.65672">
        <ele>1637.74</ele>
        <time>2014-08-14T07:42:57Z</time>
      </trkpt>
      <trkpt lat="45.69533" lon="6.65674">
        <ele>1636.78</ele>
        <time>2014-08-14T07:42:58Z</time>
      </trkpt>
      <trkpt lat="45.69502" lon="6.65681">
        <ele>1635.82</ele>
        <time>2014-08-14T07:43:01Z</time>
      </trkpt>
      <trkpt lat="45.69492" lon="6.65682">
        <ele>1634.86</ele>
        <time>2014-08-14T07:43:02Z</time>
      </trkpt>
      <trkpt lat="45.69482" lon="6.6568">
        <ele>1633.9</ele>
        <time>2014-08-14T07:43:03Z</time>
      </trkpt>
      <trkpt lat="45.69472" lon="6.65676">
        <ele>1633.42</ele>
        <time>2014-08-14T07:43:04Z</time>
      </trkpt>
      <trkpt lat="45.69464" lon="6.65669">
        <ele>1633.42</ele>
        <time>2014-08-14T07:43:05Z</time>
      </trkpt>
      <trkpt lat="45.69456" lon="6.65659">
        <ele>1632.46</ele>
        <time>2014-08-14T07:43:06Z</time>
      </trkpt>
      <trkpt lat="45.6945" lon="6.65647">
        <ele>1631.49</ele>
        <time>2014-08-14T07:43:07Z</time>
      </trkpt>
      <trkpt lat="45.69445" lon="6.65634">
        <ele>1630.53</ele>
        <time>2014-08-14T07:43:08Z</time>
      </trkpt>
      <trkpt lat="45.69443" lon="6.6562">
        <ele>1630.05</ele>
        <time>2014-08-14T07:43:09Z</time>
      </trkpt>
      <trkpt lat="45.69442" lon="6.65606">
        <ele>1629.09</ele>
        <time>2014-08-14T07:43:10Z</time>
      </trkpt>
      <trkpt lat="45.69444" lon="6.65591">
        <ele>1628.13</ele>
        <time>2014-08-14T07:43:11Z</time>
      </trkpt>
      <trkpt lat="45.69448" lon="6.65577">
        <ele>1627.65</ele>
        <time>2014-08-14T07:43:12Z</time>
      </trkpt>
      <trkpt lat="45.69454" lon="6.65565">
        <ele>1627.17</ele>
        <time>2014-08-14T07:43:13Z</time>
      </trkpt>
      <trkpt lat="45.69462" lon="6.65554">
        <ele>1626.21</ele>
        <time>2014-08-14T07:43:14Z</time>
      </trkpt>
      <trkpt lat="45.69472" lon="6.65547">
        <ele>1625.25</ele>
        <time>2014-08-14T07:43:15Z</time>
      </trkpt>
      <trkpt lat="45.69482" lon="6.65543">
        <ele>1624.77</ele>
        <time>2014-08-14T07:43:16Z</time>
      </trkpt>
      <trkpt lat="45.69494" lon="6.65543">
        <ele>1623.8</ele>
        <time>2014-08-14T07:43:17Z</time>
      </trkpt>
      <trkpt lat="45.69505" lon="6.65546">
        <ele>1623.32</ele>
        <time>2014-08-14T07:43:18Z</time>
      </trkpt>
      <trkpt lat="45.69516" lon="6.6555">
        <ele>1622.36</ele>
        <time>2014-08-14T07:43:19Z</time>
      </trkpt>
      <trkpt lat="45.69526" lon="6.65555">
        <ele>1622.36</ele>
        <time>2014-08-14T07:43:20Z</time>
      </trkpt>
      <trkpt lat="45.69571" lon="6.65571">
        <ele>1618.52</ele>
        <time>2014-08-14T07:43:24Z</time>
      </trkpt>
      <trkpt lat="45.69616" lon="6.65588">
        <ele>1615.15</ele>
        <time>2014-08-14T07:43:28Z</time>
      </trkpt>
      <trkpt lat="45.69651" lon="6.65603">
        <ele>1612.27</ele>
        <time>2014-08-14T07:43:31Z</time>
      </trkpt>
      <trkpt lat="45.69698" lon="6.65626">
        <ele>1607.94</ele>
        <time>2014-08-14T07:43:35Z</time>
      </trkpt>
      <trkpt lat="45.69734" lon="6.65639">
        <ele>1604.58</ele>
        <time>2014-08-14T07:43:38Z</time>
      </trkpt>
      <trkpt lat="45.69746" lon="6.65641">
        <ele>1603.62</ele>
        <time>2014-08-14T07:43:39Z</time>
      </trkpt>
      <trkpt lat="45.69758" lon="6.65641">
        <ele>1602.17</ele>
        <time>2014-08-14T07:43:40Z</time>
      </trkpt>
      <trkpt lat="45.6977" lon="6.65639">
        <ele>1601.69</ele>
        <time>2014-08-14T07:43:41Z</time>
      </trkpt>
      <trkpt lat="45.69781" lon="6.65637">
        <ele>1600.73</ele>
        <time>2014-08-14T07:43:42Z</time>
      </trkpt>
      <trkpt lat="45.69791" lon="6.65633">
        <ele>1599.29</ele>
        <time>2014-08-14T07:43:43Z</time>
      </trkpt>
      <trkpt lat="45.69802" lon="6.65627">
        <ele>1598.33</ele>
        <time>2014-08-14T07:43:44Z</time>
      </trkpt>
      <trkpt lat="45.69812" lon="6.6562">
        <ele>1597.37</ele>
        <time>2014-08-14T07:43:45Z</time>
      </trkpt>
      <trkpt lat="45.69821" lon="6.65611">
        <ele>1596.41</ele>
        <time>2014-08-14T07:43:46Z</time>
      </trkpt>
      <trkpt lat="45.6983" lon="6.65601">
        <ele>1594.96</ele>
        <time>2014-08-14T07:43:47Z</time>
      </trkpt>
      <trkpt lat="45.69839" lon="6.6559">
        <ele>1594.48</ele>
        <time>2014-08-14T07:43:48Z</time>
      </trkpt>
      <trkpt lat="45.69848" lon="6.65579">
        <ele>1594</ele>
        <time>2014-08-14T07:43:49Z</time>
      </trkpt>
      <trkpt lat="45.69873" lon="6.65547">
        <ele>1592.56</ele>
        <time>2014-08-14T07:43:52Z</time>
      </trkpt>
      <trkpt lat="45.69883" lon="6.6554">
        <ele>1591.6</ele>
        <time>2014-08-14T07:43:53Z</time>
      </trkpt>
      <trkpt lat="45.69894" lon="6.65536">
        <ele>1591.6</ele>
        <time>2014-08-14T07:43:54Z</time>
      </trkpt>
      <trkpt lat="45.69936" lon="6.65526">
        <ele>1591.12</ele>
        <time>2014-08-14T07:43:58Z</time>
      </trkpt>
      <trkpt lat="45.69945" lon="6.65521">
        <ele>1591.12</ele>
        <time>2014-08-14T07:43:59Z</time>
      </trkpt>
      <trkpt lat="45.69954" lon="6.65515">
        <ele>1591.12</ele>
        <time>2014-08-14T07:44:00Z</time>
      </trkpt>
      <trkpt lat="45.69961" lon="6.65507">
        <ele>1592.56</ele>
        <time>2014-08-14T07:44:01Z</time>
      </trkpt>
      <trkpt lat="45.69966" lon="6.65496">
        <ele>1592.56</ele>
        <time>2014-08-14T07:44:02Z</time>
      </trkpt>
      <trkpt lat="45.6997" lon="6.65485">
        <ele>1592.56</ele>
        <time>2014-08-14T07:44:03Z</time>
      </trkpt>
      <trkpt lat="45.69973" lon="6.65473">
        <ele>1592.56</ele>
        <time>2014-08-14T07:44:04Z</time>
      </trkpt>
      <trkpt lat="45.6999" lon="6.65409">
        <ele>1592.56</ele>
        <time>2014-08-14T07:44:10Z</time>
      </trkpt>
      <trkpt lat="45.70003" lon="6.65383">
        <ele>1593.04</ele>
        <time>2014-08-14T07:44:13Z</time>
      </trkpt>
      <trkpt lat="45.70035" lon="6.65321">
        <ele>1593.52</ele>
        <time>2014-08-14T07:44:21Z</time>
      </trkpt>
      <trkpt lat="45.70037" lon="6.65312">
        <ele>1593.52</ele>
        <time>2014-08-14T07:44:22Z</time>
      </trkpt>
      <trkpt lat="45.70038" lon="6.65304">
        <ele>1593.52</ele>
        <time>2014-08-14T07:44:23Z</time>
      </trkpt>
      <trkpt lat="45.70039" lon="6.65295">
        <ele>1593.52</ele>
        <time>2014-08-14T07:44:24Z</time>
      </trkpt>
      <trkpt lat="45.7004" lon="6.65286">
        <ele>1593.52</ele>
        <time>2014-08-14T07:44:25Z</time>
      </trkpt>
      <trkpt lat="45.7004" lon="6.65277">
        <ele>1593.52</ele>
        <time>2014-08-14T07:44:26Z</time>
      </trkpt>
      <trkpt lat="45.70039" lon="6.65269">
        <ele>1594</ele>
        <time>2014-08-14T07:44:27Z</time>
      </trkpt>
      <trkpt lat="45.70038" lon="6.6526">
        <ele>1594</ele>
        <time>2014-08-14T07:44:28Z</time>
      </trkpt>
      <trkpt lat="45.7003" lon="6.65202">
        <ele>1594.48</ele>
        <time>2014-08-14T07:44:35Z</time>
      </trkpt>
      <trkpt lat="45.70031" lon="6.65187">
        <ele>1595.45</ele>
        <time>2014-08-14T07:44:37Z</time>
      </trkpt>
      <trkpt lat="45.70033" lon="6.6513">
        <ele>1598.33</ele>
        <time>2014-08-14T07:44:48Z</time>
      </trkpt>
      <trkpt lat="45.70027" lon="6.65083">
        <ele>1600.25</ele>
        <time>2014-08-14T07:45:02Z</time>
      </trkpt>
      <trkpt lat="45.7003" lon="6.6503">
        <ele>1603.62</ele>
        <time>2014-08-14T07:45:18Z</time>
      </trkpt>
      <trkpt lat="45.70057" lon="6.64998">
        <ele>1605.06</ele>
        <time>2014-08-14T07:45:32Z</time>
      </trkpt>
      <trkpt lat="45.70097" lon="6.64955">
        <ele>1606.98</ele>
        <time>2014-08-14T07:45:46Z</time>
      </trkpt>
      <trkpt lat="45.70109" lon="6.64886">
        <ele>1608.42</ele>
        <time>2014-08-14T07:46:00Z</time>
      </trkpt>
      <trkpt lat="45.70082" lon="6.64814">
        <ele>1610.83</ele>
        <time>2014-08-14T07:46:16Z</time>
      </trkpt>
      <trkpt lat="45.70039" lon="6.64751">
        <ele>1612.27</ele>
        <time>2014-08-14T07:46:33Z</time>
      </trkpt>
      <trkpt lat="45.70008" lon="6.64671">
        <ele>1614.67</ele>
        <time>2014-08-14T07:46:50Z</time>
      </trkpt>
      <trkpt lat="45.69981" lon="6.646">
        <ele>1616.11</ele>
        <time>2014-08-14T07:47:07Z</time>
      </trkpt>
      <trkpt lat="45.69978" lon="6.64591">
        <ele>1616.59</ele>
        <time>2014-08-14T07:47:11Z</time>
      </trkpt>
      <trkpt lat="45.69976" lon="6.64596">
        <ele>1616.59</ele>
        <time>2014-08-14T07:47:14Z</time>
      </trkpt>
      <trkpt lat="45.69974" lon="6.64602">
        <ele>1617.07</ele>
        <time>2014-08-14T07:47:30Z</time>
      </trkpt>
      <trkpt lat="45.69973" lon="6.64602">
        <ele>1617.07</ele>
        <time>2014-08-14T07:47:56Z</time>
      </trkpt>
      <trkpt lat="45.69979" lon="6.64603">
        <ele>1617.07</ele>
        <time>2014-08-14T07:48:01Z</time>
      </trkpt>
      <trkpt lat="45.6998" lon="6.646">
        <ele>1617.07</ele>
        <time>2014-08-14T07:48:02Z</time>
      </trkpt>
      <trkpt lat="45.6998" lon="6.64596">
        <ele>1617.07</ele>
        <time>2014-08-14T07:48:03Z</time>
      </trkpt>
      <trkpt lat="45.6998" lon="6.6459">
        <ele>1617.07</ele>
        <time>2014-08-14T07:48:04Z</time>
      </trkpt>
      <trkpt lat="45.6998" lon="6.64584">
        <ele>1617.07</ele>
        <time>2014-08-14T07:48:05Z</time>
      </trkpt>
      <trkpt lat="45.69981" lon="6.64572">
        <ele>1617.07</ele>
        <time>2014-08-14T07:48:07Z</time>
      </trkpt>
      <trkpt lat="45.69982" lon="6.64566">
        <ele>1617.07</ele>
        <time>2014-08-14T07:48:08Z</time>
      </trkpt>
      <trkpt lat="45.69984" lon="6.6456">
        <ele>1617.07</ele>
        <time>2014-08-14T07:48:09Z</time>
      </trkpt>
      <trkpt lat="45.69986" lon="6.64554">
        <ele>1617.07</ele>
        <time>2014-08-14T07:48:10Z</time>
      </trkpt>
      <trkpt lat="45.69989" lon="6.64549">
        <ele>1617.07</ele>
        <time>2014-08-14T07:48:11Z</time>
      </trkpt>
      <trkpt lat="45.69992" lon="6.64545">
        <ele>1617.56</ele>
        <time>2014-08-14T07:48:12Z</time>
      </trkpt>
      <trkpt lat="45.69996" lon="6.64541">
        <ele>1618.04</ele>
        <time>2014-08-14T07:48:13Z</time>
      </trkpt>
      <trkpt lat="45.69999" lon="6.64537">
        <ele>1618.04</ele>
        <time>2014-08-14T07:48:14Z</time>
      </trkpt>
      <trkpt lat="45.7004" lon="6.64505">
        <ele>1616.11</ele>
        <time>2014-08-14T07:48:22Z</time>
      </trkpt>
      <trkpt lat="45.70052" lon="6.64491">
        <ele>1615.15</ele>
        <time>2014-08-14T07:48:24Z</time>
      </trkpt>
      <trkpt lat="45.70057" lon="6.64482">
        <ele>1614.67</ele>
        <time>2014-08-14T07:48:25Z</time>
      </trkpt>
      <trkpt lat="45.70062" lon="6.64471">
        <ele>1613.71</ele>
        <time>2014-08-14T07:48:26Z</time>
      </trkpt>
      <trkpt lat="45.70066" lon="6.64459">
        <ele>1612.75</ele>
        <time>2014-08-14T07:48:27Z</time>
      </trkpt>
      <trkpt lat="45.7007" lon="6.64446">
        <ele>1611.79</ele>
        <time>2014-08-14T07:48:28Z</time>
      </trkpt>
      <trkpt lat="45.70072" lon="6.64432">
        <ele>1611.79</ele>
        <time>2014-08-14T07:48:29Z</time>
      </trkpt>
      <trkpt lat="45.70073" lon="6.64418">
        <ele>1611.79</ele>
        <time>2014-08-14T07:48:30Z</time>
      </trkpt>
      <trkpt lat="45.70074" lon="6.64407">
        <ele>1611.79</ele>
        <time>2014-08-14T07:48:31Z</time>
      </trkpt>
      <trkpt lat="45.70071" lon="6.64393">
        <ele>1611.79</ele>
        <time>2014-08-14T07:48:32Z</time>
      </trkpt>
      <trkpt lat="45.70069" lon="6.64382">
        <ele>1611.31</ele>
        <time>2014-08-14T07:48:33Z</time>
      </trkpt>
      <trkpt lat="45.70066" lon="6.64371">
        <ele>1611.31</ele>
        <time>2014-08-14T07:48:34Z</time>
      </trkpt>
      <trkpt lat="45.70062" lon="6.64362">
        <ele>1612.75</ele>
        <time>2014-08-14T07:48:35Z</time>
      </trkpt>
      <trkpt lat="45.70059" lon="6.64356">
        <ele>1612.75</ele>
        <time>2014-08-14T07:48:36Z</time>
      </trkpt>
      <trkpt lat="45.70046" lon="6.64329">
        <ele>1613.23</ele>
        <time>2014-08-14T07:48:39Z</time>
      </trkpt>
      <trkpt lat="45.70042" lon="6.6432">
        <ele>1613.23</ele>
        <time>2014-08-14T07:48:40Z</time>
      </trkpt>
      <trkpt lat="45.7004" lon="6.6431">
        <ele>1613.23</ele>
        <time>2014-08-14T07:48:41Z</time>
      </trkpt>
      <trkpt lat="45.70038" lon="6.643">
        <ele>1613.23</ele>
        <time>2014-08-14T07:48:42Z</time>
      </trkpt>
      <trkpt lat="45.7001" lon="6.64187">
        <ele>1613.23</ele>
        <time>2014-08-14T07:48:54Z</time>
      </trkpt>
      <trkpt lat="45.69981" lon="6.64116">
        <ele>1611.79</ele>
        <time>2014-08-14T07:49:02Z</time>
      </trkpt>
      <trkpt lat="45.69906" lon="6.63989">
        <ele>1611.31</ele>
        <time>2014-08-14T07:49:18Z</time>
      </trkpt>
      <trkpt lat="45.69823" lon="6.63878">
        <ele>1610.35</ele>
        <time>2014-08-14T07:49:34Z</time>
      </trkpt>
      <trkpt lat="45.69788" lon="6.63837">
        <ele>1609.38</ele>
        <time>2014-08-14T07:49:40Z</time>
      </trkpt>
      <trkpt lat="45.69694" lon="6.63767">
        <ele>1607.46</ele>
        <time>2014-08-14T07:49:54Z</time>
      </trkpt>
      <trkpt lat="45.69645" lon="6.63678">
        <ele>1606.5</ele>
        <time>2014-08-14T07:50:05Z</time>
      </trkpt>
      <trkpt lat="45.6964" lon="6.6367">
        <ele>1606.98</ele>
        <time>2014-08-14T07:50:06Z</time>
      </trkpt>
      <trkpt lat="45.69634" lon="6.63663">
        <ele>1606.98</ele>
        <time>2014-08-14T07:50:07Z</time>
      </trkpt>
      <trkpt lat="45.69629" lon="6.63657">
        <ele>1606.98</ele>
        <time>2014-08-14T07:50:08Z</time>
      </trkpt>
      <trkpt lat="45.69592" lon="6.63625">
        <ele>1606.02</ele>
        <time>2014-08-14T07:50:14Z</time>
      </trkpt>
      <trkpt lat="45.69587" lon="6.63619">
        <ele>1606.02</ele>
        <time>2014-08-14T07:50:15Z</time>
      </trkpt>
      <trkpt lat="45.69548" lon="6.63555">
        <ele>1608.42</ele>
        <time>2014-08-14T07:50:27Z</time>
      </trkpt>
      <trkpt lat="45.69521" lon="6.63503">
        <ele>1610.83</ele>
        <time>2014-08-14T07:50:42Z</time>
      </trkpt>
      <trkpt lat="45.69507" lon="6.63458">
        <ele>1612.27</ele>
        <time>2014-08-14T07:50:54Z</time>
      </trkpt>
      <trkpt lat="45.69494" lon="6.63393">
        <ele>1611.79</ele>
        <time>2014-08-14T07:51:06Z</time>
      </trkpt>
      <trkpt lat="45.69491" lon="6.63359">
        <ele>1610.83</ele>
        <time>2014-08-14T07:51:11Z</time>
      </trkpt>
      <trkpt lat="45.69489" lon="6.63353">
        <ele>1610.83</ele>
        <time>2014-08-14T07:51:12Z</time>
      </trkpt>
      <trkpt lat="45.69486" lon="6.63348">
        <ele>1609.86</ele>
        <time>2014-08-14T07:51:13Z</time>
      </trkpt>
      <trkpt lat="45.69482" lon="6.63343">
        <ele>1609.86</ele>
        <time>2014-08-14T07:51:14Z</time>
      </trkpt>
      <trkpt lat="45.69478" lon="6.63338">
        <ele>1609.38</ele>
        <time>2014-08-14T07:51:15Z</time>
      </trkpt>
      <trkpt lat="45.6947" lon="6.6333">
        <ele>1609.38</ele>
        <time>2014-08-14T07:51:17Z</time>
      </trkpt>
      <trkpt lat="45.69462" lon="6.63324">
        <ele>1608.9</ele>
        <time>2014-08-14T07:51:19Z</time>
      </trkpt>
      <trkpt lat="45.69459" lon="6.6332">
        <ele>1608.42</ele>
        <time>2014-08-14T07:51:20Z</time>
      </trkpt>
      <trkpt lat="45.69455" lon="6.63313">
        <ele>1606.98</ele>
        <time>2014-08-14T07:51:21Z</time>
      </trkpt>
      <trkpt lat="45.69451" lon="6.63306">
        <ele>1606.5</ele>
        <time>2014-08-14T07:51:22Z</time>
      </trkpt>
      <trkpt lat="45.69448" lon="6.63299">
        <ele>1605.54</ele>
        <time>2014-08-14T07:51:23Z</time>
      </trkpt>
      <trkpt lat="45.69439" lon="6.63282">
        <ele>1603.62</ele>
        <time>2014-08-14T07:51:25Z</time>
      </trkpt>
      <trkpt lat="45.69423" lon="6.63252">
        <ele>1602.66</ele>
        <time>2014-08-14T07:51:28Z</time>
      </trkpt>
      <trkpt lat="45.6942" lon="6.6324">
        <ele>1602.66</ele>
        <time>2014-08-14T07:51:29Z</time>
      </trkpt>
      <trkpt lat="45.69417" lon="6.63229">
        <ele>1602.17</ele>
        <time>2014-08-14T07:51:30Z</time>
      </trkpt>
      <trkpt lat="45.69415" lon="6.63219">
        <ele>1602.17</ele>
        <time>2014-08-14T07:51:31Z</time>
      </trkpt>
      <trkpt lat="45.69414" lon="6.63209">
        <ele>1602.17</ele>
        <time>2014-08-14T07:51:32Z</time>
      </trkpt>
      <trkpt lat="45.69414" lon="6.632">
        <ele>1602.17</ele>
        <time>2014-08-14T07:51:33Z</time>
      </trkpt>
      <trkpt lat="45.69414" lon="6.63192">
        <ele>1602.17</ele>
        <time>2014-08-14T07:51:34Z</time>
      </trkpt>
      <trkpt lat="45.69415" lon="6.63166">
        <ele>1603.62</ele>
        <time>2014-08-14T07:51:37Z</time>
      </trkpt>
      <trkpt lat="45.69413" lon="6.63156">
        <ele>1603.62</ele>
        <time>2014-08-14T07:51:38Z</time>
      </trkpt>
      <trkpt lat="45.69409" lon="6.63147">
        <ele>1601.69</ele>
        <time>2014-08-14T07:51:39Z</time>
      </trkpt>
      <trkpt lat="45.69404" lon="6.6314">
        <ele>1601.21</ele>
        <time>2014-08-14T07:51:40Z</time>
      </trkpt>
      <trkpt lat="45.69398" lon="6.63136">
        <ele>1601.21</ele>
        <time>2014-08-14T07:51:41Z</time>
      </trkpt>
      <trkpt lat="45.69391" lon="6.63132">
        <ele>1600.25</ele>
        <time>2014-08-14T07:51:42Z</time>
      </trkpt>
      <trkpt lat="45.69384" lon="6.6313">
        <ele>1599.77</ele>
        <time>2014-08-14T07:51:43Z</time>
      </trkpt>
      <trkpt lat="45.69377" lon="6.63126">
        <ele>1598.81</ele>
        <time>2014-08-14T07:51:44Z</time>
      </trkpt>
      <trkpt lat="45.69371" lon="6.63121">
        <ele>1597.37</ele>
        <time>2014-08-14T07:51:45Z</time>
      </trkpt>
      <trkpt lat="45.69365" lon="6.63115">
        <ele>1595.93</ele>
        <time>2014-08-14T07:51:46Z</time>
      </trkpt>
      <trkpt lat="45.69359" lon="6.63107">
        <ele>1594.48</ele>
        <time>2014-08-14T07:51:47Z</time>
      </trkpt>
      <trkpt lat="45.69353" lon="6.63099">
        <ele>1593.52</ele>
        <time>2014-08-14T07:51:48Z</time>
      </trkpt>
      <trkpt lat="45.69345" lon="6.63091">
        <ele>1592.08</ele>
        <time>2014-08-14T07:51:49Z</time>
      </trkpt>
      <trkpt lat="45.69336" lon="6.63085">
        <ele>1590.16</ele>
        <time>2014-08-14T07:51:50Z</time>
      </trkpt>
      <trkpt lat="45.69317" lon="6.63074">
        <ele>1587.27</ele>
        <time>2014-08-14T07:51:52Z</time>
      </trkpt>
      <trkpt lat="45.69307" lon="6.6307">
        <ele>1585.83</ele>
        <time>2014-08-14T07:51:53Z</time>
      </trkpt>
      <trkpt lat="45.69278" lon="6.6306">
        <ele>1581.99</ele>
        <time>2014-08-14T07:51:56Z</time>
      </trkpt>
      <trkpt lat="45.69268" lon="6.63056">
        <ele>1580.54</ele>
        <time>2014-08-14T07:51:57Z</time>
      </trkpt>
      <trkpt lat="45.69258" lon="6.6305">
        <ele>1580.06</ele>
        <time>2014-08-14T07:51:58Z</time>
      </trkpt>
      <trkpt lat="45.69203" lon="6.63019">
        <ele>1578.62</ele>
        <time>2014-08-14T07:52:04Z</time>
      </trkpt>
      <trkpt lat="45.69196" lon="6.63012">
        <ele>1578.14</ele>
        <time>2014-08-14T07:52:05Z</time>
      </trkpt>
      <trkpt lat="45.69105" lon="6.6293">
        <ele>1578.14</ele>
        <time>2014-08-14T07:52:18Z</time>
      </trkpt>
      <trkpt lat="45.69099" lon="6.62925">
        <ele>1578.14</ele>
        <time>2014-08-14T07:52:19Z</time>
      </trkpt>
      <trkpt lat="45.69049" lon="6.62888">
        <ele>1578.14</ele>
        <time>2014-08-14T07:52:27Z</time>
      </trkpt>
      <trkpt lat="45.69044" lon="6.62883">
        <ele>1578.14</ele>
        <time>2014-08-14T07:52:28Z</time>
      </trkpt>
      <trkpt lat="45.6904" lon="6.62876">
        <ele>1578.14</ele>
        <time>2014-08-14T07:52:29Z</time>
      </trkpt>
      <trkpt lat="45.68981" lon="6.62793">
        <ele>1578.14</ele>
        <time>2014-08-14T07:52:42Z</time>
      </trkpt>
      <trkpt lat="45.68947" lon="6.62757">
        <ele>1578.14</ele>
        <time>2014-08-14T07:52:49Z</time>
      </trkpt>
      <trkpt lat="45.6889" lon="6.62665">
        <ele>1578.14</ele>
        <time>2014-08-14T07:53:03Z</time>
      </trkpt>
      <trkpt lat="45.68865" lon="6.62615">
        <ele>1574.78</ele>
        <time>2014-08-14T07:53:09Z</time>
      </trkpt>
      <trkpt lat="45.68841" lon="6.62575">
        <ele>1571.41</ele>
        <time>2014-08-14T07:53:13Z</time>
      </trkpt>
      <trkpt lat="45.68813" lon="6.62527">
        <ele>1568.05</ele>
        <time>2014-08-14T07:53:18Z</time>
      </trkpt>
      <trkpt lat="45.68791" lon="6.62479">
        <ele>1564.2</ele>
        <time>2014-08-14T07:53:23Z</time>
      </trkpt>
      <trkpt lat="45.68782" lon="6.62465">
        <ele>1563.24</ele>
        <time>2014-08-14T07:53:25Z</time>
      </trkpt>
      <trkpt lat="45.68777" lon="6.6246">
        <ele>1563.24</ele>
        <time>2014-08-14T07:53:26Z</time>
      </trkpt>
      <trkpt lat="45.68761" lon="6.6245">
        <ele>1562.76</ele>
        <time>2014-08-14T07:53:29Z</time>
      </trkpt>
      <trkpt lat="45.6873" lon="6.62437">
        <ele>1562.28</ele>
        <time>2014-08-14T07:53:35Z</time>
      </trkpt>
      <trkpt lat="45.68725" lon="6.62434">
        <ele>1562.28</ele>
        <time>2014-08-14T07:53:36Z</time>
      </trkpt>
      <trkpt lat="45.68719" lon="6.62432">
        <ele>1562.76</ele>
        <time>2014-08-14T07:53:37Z</time>
      </trkpt>
      <trkpt lat="45.68714" lon="6.6243">
        <ele>1562.76</ele>
        <time>2014-08-14T07:53:38Z</time>
      </trkpt>
      <trkpt lat="45.68709" lon="6.62428">
        <ele>1562.76</ele>
        <time>2014-08-14T07:53:39Z</time>
      </trkpt>
      <trkpt lat="45.68704" lon="6.62425">
        <ele>1562.76</ele>
        <time>2014-08-14T07:53:40Z</time>
      </trkpt>
      <trkpt lat="45.6867" lon="6.62404">
        <ele>1562.76</ele>
        <time>2014-08-14T07:53:47Z</time>
      </trkpt>
      <trkpt lat="45.68646" lon="6.62384">
        <ele>1562.28</ele>
        <time>2014-08-14T07:53:56Z</time>
      </trkpt>
      <trkpt lat="45.68647" lon="6.62384">
        <ele>1562.28</ele>
        <time>2014-08-14T07:54:16Z</time>
      </trkpt>
      <trkpt lat="45.68646" lon="6.62384">
        <ele>1562.28</ele>
        <time>2014-08-14T07:54:17Z</time>
      </trkpt>
      <trkpt lat="45.68644" lon="6.62385">
        <ele>1562.28</ele>
        <time>2014-08-14T07:54:18Z</time>
      </trkpt>
      <trkpt lat="45.68643" lon="6.62385">
        <ele>1562.28</ele>
        <time>2014-08-14T07:54:19Z</time>
      </trkpt>
      <trkpt lat="45.68641" lon="6.62384">
        <ele>1562.28</ele>
        <time>2014-08-14T07:54:32Z</time>
      </trkpt>
      <trkpt lat="45.68639" lon="6.62381">
        <ele>1562.28</ele>
        <time>2014-08-14T07:54:53Z</time>
      </trkpt>
      <trkpt lat="45.68638" lon="6.62379">
        <ele>1562.28</ele>
        <time>2014-08-14T07:54:54Z</time>
      </trkpt>
      <trkpt lat="45.68609" lon="6.62347">
        <ele>1562.28</ele>
        <time>2014-08-14T07:55:04Z</time>
      </trkpt>
      <trkpt lat="45.68584" lon="6.62317">
        <ele>1562.28</ele>
        <time>2014-08-14T07:55:10Z</time>
      </trkpt>
      <trkpt lat="45.68561" lon="6.62282">
        <ele>1562.28</ele>
        <time>2014-08-14T07:55:16Z</time>
      </trkpt>
      <trkpt lat="45.68557" lon="6.62277">
        <ele>1562.28</ele>
        <time>2014-08-14T07:55:17Z</time>
      </trkpt>
      <trkpt lat="45.68546" lon="6.62258">
        <ele>1562.28</ele>
        <time>2014-08-14T07:55:20Z</time>
      </trkpt>
      <trkpt lat="45.68542" lon="6.62252">
        <ele>1562.28</ele>
        <time>2014-08-14T07:55:21Z</time>
      </trkpt>
      <trkpt lat="45.68486" lon="6.62135">
        <ele>1562.28</ele>
        <time>2014-08-14T07:55:38Z</time>
      </trkpt>
      <trkpt lat="45.68416" lon="6.61986">
        <ele>1562.28</ele>
        <time>2014-08-14T07:55:59Z</time>
      </trkpt>
      <trkpt lat="45.68351" lon="6.61848">
        <ele>1562.28</ele>
        <time>2014-08-14T07:56:18Z</time>
      </trkpt>
      <trkpt lat="45.68285" lon="6.61719">
        <ele>1562.28</ele>
        <time>2014-08-14T07:56:36Z</time>
      </trkpt>
      <trkpt lat="45.68247" lon="6.61666">
        <ele>1563.72</ele>
        <time>2014-08-14T07:56:45Z</time>
      </trkpt>
      <trkpt lat="45.68191" lon="6.61612">
        <ele>1565.64</ele>
        <time>2014-08-14T07:57:00Z</time>
      </trkpt>
      <trkpt lat="45.68128" lon="6.61557">
        <ele>1568.53</ele>
        <time>2014-08-14T07:57:18Z</time>
      </trkpt>
      <trkpt lat="45.6808" lon="6.61533">
        <ele>1571.89</ele>
        <time>2014-08-14T07:57:32Z</time>
      </trkpt>
      <trkpt lat="45.68055" lon="6.61518">
        <ele>1573.82</ele>
        <time>2014-08-14T07:57:43Z</time>
      </trkpt>
      <trkpt lat="45.68055" lon="6.61515">
        <ele>1574.3</ele>
        <time>2014-08-14T07:57:44Z</time>
      </trkpt>
      <trkpt lat="45.68055" lon="6.61513">
        <ele>1574.3</ele>
        <time>2014-08-14T07:57:45Z</time>
      </trkpt>
      <trkpt lat="45.68056" lon="6.61511">
        <ele>1574.78</ele>
        <time>2014-08-14T07:57:46Z</time>
      </trkpt>
      <trkpt lat="45.68058" lon="6.6151">
        <ele>1574.78</ele>
        <time>2014-08-14T07:57:47Z</time>
      </trkpt>
      <trkpt lat="45.6806" lon="6.61509">
        <ele>1575.26</ele>
        <time>2014-08-14T07:57:48Z</time>
      </trkpt>
      <trkpt lat="45.68062" lon="6.61509">
        <ele>1575.26</ele>
        <time>2014-08-14T07:57:49Z</time>
      </trkpt>
      <trkpt lat="45.68064" lon="6.6151">
        <ele>1575.26</ele>
        <time>2014-08-14T07:57:50Z</time>
      </trkpt>
      <trkpt lat="45.68105" lon="6.61519">
        <ele>1578.62</ele>
        <time>2014-08-14T07:58:09Z</time>
      </trkpt>
      <trkpt lat="45.68142" lon="6.61523">
        <ele>1581.51</ele>
        <time>2014-08-14T07:58:27Z</time>
      </trkpt>
      <trkpt lat="45.68176" lon="6.61529">
        <ele>1584.87</ele>
        <time>2014-08-14T07:58:43Z</time>
      </trkpt>
      <trkpt lat="45.68207" lon="6.61534">
        <ele>1588.24</ele>
        <time>2014-08-14T07:58:58Z</time>
      </trkpt>
      <trkpt lat="45.68235" lon="6.61544">
        <ele>1591.12</ele>
        <time>2014-08-14T07:59:13Z</time>
      </trkpt>
      <trkpt lat="45.6826" lon="6.6156">
        <ele>1594.48</ele>
        <time>2014-08-14T07:59:27Z</time>
      </trkpt>
      <trkpt lat="45.68283" lon="6.61592">
        <ele>1597.85</ele>
        <time>2014-08-14T07:59:43Z</time>
      </trkpt>
      <trkpt lat="45.68302" lon="6.61627">
        <ele>1600.73</ele>
        <time>2014-08-14T07:59:58Z</time>
      </trkpt>
      <trkpt lat="45.68317" lon="6.61654">
        <ele>1604.1</ele>
        <time>2014-08-14T08:00:11Z</time>
      </trkpt>
      <trkpt lat="45.68338" lon="6.61666">
        <ele>1606.5</ele>
        <time>2014-08-14T08:00:23Z</time>
      </trkpt>
      <trkpt lat="45.6834" lon="6.61666">
        <ele>1606.5</ele>
        <time>2014-08-14T08:00:24Z</time>
      </trkpt>
      <trkpt lat="45.68342" lon="6.61664">
        <ele>1606.5</ele>
        <time>2014-08-14T08:00:25Z</time>
      </trkpt>
      <trkpt lat="45.68343" lon="6.61662">
        <ele>1606.98</ele>
        <time>2014-08-14T08:00:26Z</time>
      </trkpt>
      <trkpt lat="45.68344" lon="6.61659">
        <ele>1606.98</ele>
        <time>2014-08-14T08:00:27Z</time>
      </trkpt>
      <trkpt lat="45.68344" lon="6.61656">
        <ele>1607.46</ele>
        <time>2014-08-14T08:00:28Z</time>
      </trkpt>
      <trkpt lat="45.68344" lon="6.61653">
        <ele>1607.46</ele>
        <time>2014-08-14T08:00:29Z</time>
      </trkpt>
      <trkpt lat="45.68343" lon="6.6165">
        <ele>1607.46</ele>
        <time>2014-08-14T08:00:30Z</time>
      </trkpt>
      <trkpt lat="45.68342" lon="6.61648">
        <ele>1607.46</ele>
        <time>2014-08-14T08:00:31Z</time>
      </trkpt>
      <trkpt lat="45.6834" lon="6.61645">
        <ele>1607.94</ele>
        <time>2014-08-14T08:00:32Z</time>
      </trkpt>
      <trkpt lat="45.68338" lon="6.61643">
        <ele>1607.94</ele>
        <time>2014-08-14T08:00:33Z</time>
      </trkpt>
      <trkpt lat="45.68322" lon="6.61614">
        <ele>1610.35</ele>
        <time>2014-08-14T08:00:46Z</time>
      </trkpt>
      <trkpt lat="45.68321" lon="6.61586">
        <ele>1612.27</ele>
        <time>2014-08-14T08:00:58Z</time>
      </trkpt>
      <trkpt lat="45.68349" lon="6.61572">
        <ele>1613.23</ele>
        <time>2014-08-14T08:01:11Z</time>
      </trkpt>
      <trkpt lat="45.68385" lon="6.61552">
        <ele>1613.71</ele>
        <time>2014-08-14T08:01:23Z</time>
      </trkpt>
      <trkpt lat="45.68407" lon="6.61522">
        <ele>1617.07</ele>
        <time>2014-08-14T08:01:36Z</time>
      </trkpt>
      <trkpt lat="45.68406" lon="6.61477">
        <ele>1619.96</ele>
        <time>2014-08-14T08:01:52Z</time>
      </trkpt>
      <trkpt lat="45.68381" lon="6.61429">
        <ele>1623.32</ele>
        <time>2014-08-14T08:02:11Z</time>
      </trkpt>
      <trkpt lat="45.68368" lon="6.61385">
        <ele>1626.21</ele>
        <time>2014-08-14T08:02:27Z</time>
      </trkpt>
      <trkpt lat="45.68356" lon="6.61347">
        <ele>1629.57</ele>
        <time>2014-08-14T08:02:41Z</time>
      </trkpt>
      <trkpt lat="45.68335" lon="6.61312">
        <ele>1632.46</ele>
        <time>2014-08-14T08:02:58Z</time>
      </trkpt>
      <trkpt lat="45.6831" lon="6.61309">
        <ele>1635.82</ele>
        <time>2014-08-14T08:03:10Z</time>
      </trkpt>
      <trkpt lat="45.6828" lon="6.61308">
        <ele>1638.22</ele>
        <time>2014-08-14T08:03:25Z</time>
      </trkpt>
      <trkpt lat="45.68244" lon="6.613">
        <ele>1640.63</ele>
        <time>2014-08-14T08:03:42Z</time>
      </trkpt>
      <trkpt lat="45.68204" lon="6.61298">
        <ele>1643.99</ele>
        <time>2014-08-14T08:04:00Z</time>
      </trkpt>
      <trkpt lat="45.68197" lon="6.61296">
        <ele>1644.47</ele>
        <time>2014-08-14T08:04:04Z</time>
      </trkpt>
      <trkpt lat="45.68196" lon="6.61293">
        <ele>1644.95</ele>
        <time>2014-08-14T08:04:05Z</time>
      </trkpt>
      <trkpt lat="45.68196" lon="6.6129">
        <ele>1644.95</ele>
        <time>2014-08-14T08:04:06Z</time>
      </trkpt>
      <trkpt lat="45.68197" lon="6.61287">
        <ele>1645.43</ele>
        <time>2014-08-14T08:04:07Z</time>
      </trkpt>
      <trkpt lat="45.68198" lon="6.61285">
        <ele>1645.91</ele>
        <time>2014-08-14T08:04:08Z</time>
      </trkpt>
      <trkpt lat="45.68199" lon="6.61284">
        <ele>1645.91</ele>
        <time>2014-08-14T08:04:09Z</time>
      </trkpt>
      <trkpt lat="45.68201" lon="6.61282">
        <ele>1646.4</ele>
        <time>2014-08-14T08:04:10Z</time>
      </trkpt>
      <trkpt lat="45.68203" lon="6.61282">
        <ele>1646.4</ele>
        <time>2014-08-14T08:04:11Z</time>
      </trkpt>
      <trkpt lat="45.68205" lon="6.61282">
        <ele>1646.88</ele>
        <time>2014-08-14T08:04:12Z</time>
      </trkpt>
      <trkpt lat="45.68207" lon="6.61282">
        <ele>1646.88</ele>
        <time>2014-08-14T08:04:13Z</time>
      </trkpt>
      <trkpt lat="45.68231" lon="6.61273">
        <ele>1650.24</ele>
        <time>2014-08-14T08:04:25Z</time>
      </trkpt>
      <trkpt lat="45.68256" lon="6.6126">
        <ele>1653.6</ele>
        <time>2014-08-14T08:04:40Z</time>
      </trkpt>
      <trkpt lat="45.68281" lon="6.61244">
        <ele>1656.97</ele>
        <time>2014-08-14T08:04:55Z</time>
      </trkpt>
      <trkpt lat="45.68307" lon="6.61228">
        <ele>1660.33</ele>
        <time>2014-08-14T08:05:11Z</time>
      </trkpt>
      <trkpt lat="45.68332" lon="6.61215">
        <ele>1663.7</ele>
        <time>2014-08-14T08:05:27Z</time>
      </trkpt>
      <trkpt lat="45.68358" lon="6.61197">
        <ele>1667.06</ele>
        <time>2014-08-14T08:05:43Z</time>
      </trkpt>
      <trkpt lat="45.68381" lon="6.61205">
        <ele>1669.47</ele>
        <time>2014-08-14T08:05:56Z</time>
      </trkpt>
      <trkpt lat="45.6838" lon="6.61206">
        <ele>1669.95</ele>
        <time>2014-08-14T08:06:17Z</time>
      </trkpt>
      <trkpt lat="45.6838" lon="6.61206">
        <ele>1669.95</ele>
        <time>2014-08-14T08:06:40Z</time>
      </trkpt>
      <trkpt lat="45.68383" lon="6.61205">
        <ele>1669.95</ele>
        <time>2014-08-14T08:06:43Z</time>
      </trkpt>
      <trkpt lat="45.68384" lon="6.61204">
        <ele>1669.95</ele>
        <time>2014-08-14T08:06:44Z</time>
      </trkpt>
      <trkpt lat="45.68385" lon="6.61204">
        <ele>1669.95</ele>
        <time>2014-08-14T08:06:45Z</time>
      </trkpt>
      <trkpt lat="45.68387" lon="6.61204">
        <ele>1669.95</ele>
        <time>2014-08-14T08:06:46Z</time>
      </trkpt>
      <trkpt lat="45.68389" lon="6.61204">
        <ele>1669.95</ele>
        <time>2014-08-14T08:06:47Z</time>
      </trkpt>
      <trkpt lat="45.68391" lon="6.61204">
        <ele>1669.95</ele>
        <time>2014-08-14T08:06:48Z</time>
      </trkpt>
      <trkpt lat="45.68393" lon="6.61203">
        <ele>1670.43</ele>
        <time>2014-08-14T08:06:49Z</time>
      </trkpt>
      <trkpt lat="45.68395" lon="6.61203">
        <ele>1670.43</ele>
        <time>2014-08-14T08:06:50Z</time>
      </trkpt>
      <trkpt lat="45.68397" lon="6.61203">
        <ele>1670.91</ele>
        <time>2014-08-14T08:06:51Z</time>
      </trkpt>
      <trkpt lat="45.6842" lon="6.61196">
        <ele>1673.79</ele>
        <time>2014-08-14T08:07:04Z</time>
      </trkpt>
      <trkpt lat="45.68421" lon="6.61194">
        <ele>1673.79</ele>
        <time>2014-08-14T08:07:05Z</time>
      </trkpt>
      <trkpt lat="45.6842" lon="6.61191">
        <ele>1673.79</ele>
        <time>2014-08-14T08:07:06Z</time>
      </trkpt>
      <trkpt lat="45.6842" lon="6.61189">
        <ele>1674.27</ele>
        <time>2014-08-14T08:07:07Z</time>
      </trkpt>
      <trkpt lat="45.68418" lon="6.61187">
        <ele>1674.27</ele>
        <time>2014-08-14T08:07:08Z</time>
      </trkpt>
      <trkpt lat="45.68416" lon="6.61185">
        <ele>1674.27</ele>
        <time>2014-08-14T08:07:09Z</time>
      </trkpt>
      <trkpt lat="45.68414" lon="6.61184">
        <ele>1674.75</ele>
        <time>2014-08-14T08:07:10Z</time>
      </trkpt>
      <trkpt lat="45.68412" lon="6.61184">
        <ele>1674.75</ele>
        <time>2014-08-14T08:07:11Z</time>
      </trkpt>
      <trkpt lat="45.6841" lon="6.61184">
        <ele>1674.75</ele>
        <time>2014-08-14T08:07:12Z</time>
      </trkpt>
      <trkpt lat="45.68381" lon="6.61176">
        <ele>1677.16</ele>
        <time>2014-08-14T08:07:27Z</time>
      </trkpt>
      <trkpt lat="45.68365" lon="6.61156">
        <ele>1678.6</ele>
        <time>2014-08-14T08:07:37Z</time>
      </trkpt>
      <trkpt lat="45.68363" lon="6.61156">
        <ele>1678.6</ele>
        <time>2014-08-14T08:07:38Z</time>
      </trkpt>
      <trkpt lat="45.68361" lon="6.61156">
        <ele>1679.08</ele>
        <time>2014-08-14T08:07:39Z</time>
      </trkpt>
      <trkpt lat="45.68359" lon="6.61157">
        <ele>1679.08</ele>
        <time>2014-08-14T08:07:40Z</time>
      </trkpt>
      <trkpt lat="45.68357" lon="6.61158">
        <ele>1680.04</ele>
        <time>2014-08-14T08:07:41Z</time>
      </trkpt>
      <trkpt lat="45.68355" lon="6.61159">
        <ele>1680.04</ele>
        <time>2014-08-14T08:07:42Z</time>
      </trkpt>
      <trkpt lat="45.6833" lon="6.61161">
        <ele>1682.93</ele>
        <time>2014-08-14T08:07:55Z</time>
      </trkpt>
      <trkpt lat="45.68299" lon="6.61153">
        <ele>1685.81</ele>
        <time>2014-08-14T08:08:11Z</time>
      </trkpt>
      <trkpt lat="45.68271" lon="6.61147">
        <ele>1688.69</ele>
        <time>2014-08-14T08:08:26Z</time>
      </trkpt>
      <trkpt lat="45.68241" lon="6.61145">
        <ele>1692.06</ele>
        <time>2014-08-14T08:08:41Z</time>
      </trkpt>
      <trkpt lat="45.68213" lon="6.61134">
        <ele>1694.46</ele>
        <time>2014-08-14T08:08:56Z</time>
      </trkpt>
      <trkpt lat="45.68187" lon="6.61103">
        <ele>1696.38</ele>
        <time>2014-08-14T08:09:12Z</time>
      </trkpt>
      <trkpt lat="45.68164" lon="6.61105">
        <ele>1698.31</ele>
        <time>2014-08-14T08:09:24Z</time>
      </trkpt>
      <trkpt lat="45.68158" lon="6.61121">
        <ele>1700.71</ele>
        <time>2014-08-14T08:09:30Z</time>
      </trkpt>
      <trkpt lat="45.68157" lon="6.61123">
        <ele>1700.71</ele>
        <time>2014-08-14T08:09:31Z</time>
      </trkpt>
      <trkpt lat="45.68133" lon="6.61145">
        <ele>1703.59</ele>
        <time>2014-08-14T08:09:44Z</time>
      </trkpt>
      <trkpt lat="45.68109" lon="6.61141">
        <ele>1705.52</ele>
        <time>2014-08-14T08:09:56Z</time>
      </trkpt>
      <trkpt lat="45.68073" lon="6.61143">
        <ele>1708.4</ele>
        <time>2014-08-14T08:10:10Z</time>
      </trkpt>
      <trkpt lat="45.68041" lon="6.61144">
        <ele>1711.28</ele>
        <time>2014-08-14T08:10:25Z</time>
      </trkpt>
      <trkpt lat="45.68013" lon="6.61141">
        <ele>1713.69</ele>
        <time>2014-08-14T08:10:38Z</time>
      </trkpt>
      <trkpt lat="45.67983" lon="6.61139">
        <ele>1716.57</ele>
        <time>2014-08-14T08:10:52Z</time>
      </trkpt>
      <trkpt lat="45.6795" lon="6.61142">
        <ele>1717.05</ele>
        <time>2014-08-14T08:11:05Z</time>
      </trkpt>
      <trkpt lat="45.67917" lon="6.61138">
        <ele>1717.05</ele>
        <time>2014-08-14T08:11:15Z</time>
      </trkpt>
      <trkpt lat="45.67914" lon="6.61136">
        <ele>1717.05</ele>
        <time>2014-08-14T08:11:16Z</time>
      </trkpt>
      <trkpt lat="45.6791" lon="6.61134">
        <ele>1717.05</ele>
        <time>2014-08-14T08:11:17Z</time>
      </trkpt>
      <trkpt lat="45.67875" lon="6.61123">
        <ele>1717.05</ele>
        <time>2014-08-14T08:11:25Z</time>
      </trkpt>
      <trkpt lat="45.67871" lon="6.61123">
        <ele>1717.05</ele>
        <time>2014-08-14T08:11:26Z</time>
      </trkpt>
      <trkpt lat="45.67866" lon="6.61123">
        <ele>1717.05</ele>
        <time>2014-08-14T08:11:27Z</time>
      </trkpt>
      <trkpt lat="45.67862" lon="6.61125">
        <ele>1717.05</ele>
        <time>2014-08-14T08:11:28Z</time>
      </trkpt>
      <trkpt lat="45.67857" lon="6.61127">
        <ele>1717.05</ele>
        <time>2014-08-14T08:11:29Z</time>
      </trkpt>
      <trkpt lat="45.67854" lon="6.61128">
        <ele>1717.05</ele>
        <time>2014-08-14T08:11:30Z</time>
      </trkpt>
      <trkpt lat="45.6785" lon="6.61127">
        <ele>1717.05</ele>
        <time>2014-08-14T08:11:31Z</time>
      </trkpt>
      <trkpt lat="45.67846" lon="6.61126">
        <ele>1717.05</ele>
        <time>2014-08-14T08:11:32Z</time>
      </trkpt>
      <trkpt lat="45.67842" lon="6.61124">
        <ele>1717.05</ele>
        <time>2014-08-14T08:11:33Z</time>
      </trkpt>
      <trkpt lat="45.67838" lon="6.61121">
        <ele>1716.09</ele>
        <time>2014-08-14T08:11:34Z</time>
      </trkpt>
      <trkpt lat="45.67833" lon="6.61117">
        <ele>1716.09</ele>
        <time>2014-08-14T08:11:35Z</time>
      </trkpt>
      <trkpt lat="45.67812" lon="6.61102">
        <ele>1713.69</ele>
        <time>2014-08-14T08:11:39Z</time>
      </trkpt>
      <trkpt lat="45.67807" lon="6.61099">
        <ele>1713.69</ele>
        <time>2014-08-14T08:11:40Z</time>
      </trkpt>
      <trkpt lat="45.67801" lon="6.61099">
        <ele>1712.73</ele>
        <time>2014-08-14T08:11:41Z</time>
      </trkpt>
      <trkpt lat="45.67795" lon="6.61101">
        <ele>1712.73</ele>
        <time>2014-08-14T08:11:42Z</time>
      </trkpt>
      <trkpt lat="45.67789" lon="6.61103">
        <ele>1712.25</ele>
        <time>2014-08-14T08:11:43Z</time>
      </trkpt>
      <trkpt lat="45.67783" lon="6.61105">
        <ele>1711.28</ele>
        <time>2014-08-14T08:11:44Z</time>
      </trkpt>
      <trkpt lat="45.67776" lon="6.61108">
        <ele>1711.28</ele>
        <time>2014-08-14T08:11:45Z</time>
      </trkpt>
      <trkpt lat="45.6777" lon="6.61113">
        <ele>1710.32</ele>
        <time>2014-08-14T08:11:46Z</time>
      </trkpt>
      <trkpt lat="45.67764" lon="6.61119">
        <ele>1709.84</ele>
        <time>2014-08-14T08:11:47Z</time>
      </trkpt>
      <trkpt lat="45.67759" lon="6.61126">
        <ele>1709.84</ele>
        <time>2014-08-14T08:11:48Z</time>
      </trkpt>
      <trkpt lat="45.67756" lon="6.61133">
        <ele>1708.88</ele>
        <time>2014-08-14T08:11:49Z</time>
      </trkpt>
      <trkpt lat="45.67753" lon="6.61139">
        <ele>1708.4</ele>
        <time>2014-08-14T08:11:50Z</time>
      </trkpt>
      <trkpt lat="45.6775" lon="6.61144">
        <ele>1707.92</ele>
        <time>2014-08-14T08:11:51Z</time>
      </trkpt>
      <trkpt lat="45.67747" lon="6.61147">
        <ele>1707.44</ele>
        <time>2014-08-14T08:11:52Z</time>
      </trkpt>
      <trkpt lat="45.67742" lon="6.61147">
        <ele>1706.96</ele>
        <time>2014-08-14T08:11:53Z</time>
      </trkpt>
      <trkpt lat="45.67737" lon="6.61145">
        <ele>1706.48</ele>
        <time>2014-08-14T08:11:54Z</time>
      </trkpt>
      <trkpt lat="45.67731" lon="6.61143">
        <ele>1705.04</ele>
        <time>2014-08-14T08:11:55Z</time>
      </trkpt>
      <trkpt lat="45.67725" lon="6.6114">
        <ele>1704.55</ele>
        <time>2014-08-14T08:11:56Z</time>
      </trkpt>
      <trkpt lat="45.67717" lon="6.61138">
        <ele>1703.59</ele>
        <time>2014-08-14T08:11:57Z</time>
      </trkpt>
      <trkpt lat="45.67685" lon="6.61133">
        <ele>1701.19</ele>
        <time>2014-08-14T08:12:01Z</time>
      </trkpt>
      <trkpt lat="45.67677" lon="6.61133">
        <ele>1701.19</ele>
        <time>2014-08-14T08:12:02Z</time>
      </trkpt>
      <trkpt lat="45.6764" lon="6.61137">
        <ele>1704.07</ele>
        <time>2014-08-14T08:12:10Z</time>
      </trkpt>
      <trkpt lat="45.67617" lon="6.61162">
        <ele>1706.96</ele>
        <time>2014-08-14T08:12:24Z</time>
      </trkpt>
      <trkpt lat="45.67592" lon="6.61188">
        <ele>1706.96</ele>
        <time>2014-08-14T08:12:34Z</time>
      </trkpt>
      <trkpt lat="45.67587" lon="6.61188">
        <ele>1706.96</ele>
        <time>2014-08-14T08:12:35Z</time>
      </trkpt>
      <trkpt lat="45.67582" lon="6.61188">
        <ele>1706</ele>
        <time>2014-08-14T08:12:36Z</time>
      </trkpt>
      <trkpt lat="45.67572" lon="6.61187">
        <ele>1704.55</ele>
        <time>2014-08-14T08:12:38Z</time>
      </trkpt>
      <trkpt lat="45.67568" lon="6.61187">
        <ele>1704.55</ele>
        <time>2014-08-14T08:12:39Z</time>
      </trkpt>
      <trkpt lat="45.67554" lon="6.61189">
        <ele>1702.15</ele>
        <time>2014-08-14T08:12:42Z</time>
      </trkpt>
      <trkpt lat="45.67549" lon="6.61192">
        <ele>1701.67</ele>
        <time>2014-08-14T08:12:43Z</time>
      </trkpt>
      <trkpt lat="45.67545" lon="6.61195">
        <ele>1700.71</ele>
        <time>2014-08-14T08:12:44Z</time>
      </trkpt>
      <trkpt lat="45.67539" lon="6.61199">
        <ele>1699.75</ele>
        <time>2014-08-14T08:12:45Z</time>
      </trkpt>
      <trkpt lat="45.67533" lon="6.61204">
        <ele>1698.79</ele>
        <time>2014-08-14T08:12:46Z</time>
      </trkpt>
      <trkpt lat="45.67527" lon="6.61208">
        <ele>1697.83</ele>
        <time>2014-08-14T08:12:47Z</time>
      </trkpt>
      <trkpt lat="45.67521" lon="6.61212">
        <ele>1697.83</ele>
        <time>2014-08-14T08:12:48Z</time>
      </trkpt>
      <trkpt lat="45.67502" lon="6.61221">
        <ele>1696.38</ele>
        <time>2014-08-14T08:12:51Z</time>
      </trkpt>
      <trkpt lat="45.67491" lon="6.61229">
        <ele>1694.94</ele>
        <time>2014-08-14T08:12:53Z</time>
      </trkpt>
      <trkpt lat="45.67486" lon="6.61234">
        <ele>1694.94</ele>
        <time>2014-08-14T08:12:54Z</time>
      </trkpt>
      <trkpt lat="45.67481" lon="6.61238">
        <ele>1693.98</ele>
        <time>2014-08-14T08:12:55Z</time>
      </trkpt>
      <trkpt lat="45.67476" lon="6.61241">
        <ele>1693.02</ele>
        <time>2014-08-14T08:12:56Z</time>
      </trkpt>
      <trkpt lat="45.6747" lon="6.61243">
        <ele>1693.02</ele>
        <time>2014-08-14T08:12:57Z</time>
      </trkpt>
      <trkpt lat="45.67449" lon="6.61251">
        <ele>1690.14</ele>
        <time>2014-08-14T08:13:00Z</time>
      </trkpt>
      <trkpt lat="45.67442" lon="6.61254">
        <ele>1690.14</ele>
        <time>2014-08-14T08:13:01Z</time>
      </trkpt>
      <trkpt lat="45.67417" lon="6.61267">
        <ele>1689.17</ele>
        <time>2014-08-14T08:13:05Z</time>
      </trkpt>
      <trkpt lat="45.67412" lon="6.61272">
        <ele>1688.21</ele>
        <time>2014-08-14T08:13:06Z</time>
      </trkpt>
      <trkpt lat="45.67408" lon="6.61278">
        <ele>1687.73</ele>
        <time>2014-08-14T08:13:07Z</time>
      </trkpt>
      <trkpt lat="45.67404" lon="6.61283">
        <ele>1686.77</ele>
        <time>2014-08-14T08:13:08Z</time>
      </trkpt>
      <trkpt lat="45.674" lon="6.61289">
        <ele>1686.29</ele>
        <time>2014-08-14T08:13:09Z</time>
      </trkpt>
      <trkpt lat="45.67396" lon="6.61295">
        <ele>1685.81</ele>
        <time>2014-08-14T08:13:10Z</time>
      </trkpt>
      <trkpt lat="45.67391" lon="6.613">
        <ele>1684.85</ele>
        <time>2014-08-14T08:13:11Z</time>
      </trkpt>
      <trkpt lat="45.67387" lon="6.61305">
        <ele>1684.37</ele>
        <time>2014-08-14T08:13:12Z</time>
      </trkpt>
      <trkpt lat="45.67383" lon="6.6131">
        <ele>1683.89</ele>
        <time>2014-08-14T08:13:13Z</time>
      </trkpt>
      <trkpt lat="45.67378" lon="6.61314">
        <ele>1683.41</ele>
        <time>2014-08-14T08:13:14Z</time>
      </trkpt>
      <trkpt lat="45.67373" lon="6.61316">
        <ele>1683.41</ele>
        <time>2014-08-14T08:13:15Z</time>
      </trkpt>
      <trkpt lat="45.67368" lon="6.61317">
        <ele>1682.93</ele>
        <time>2014-08-14T08:13:16Z</time>
      </trkpt>
      <trkpt lat="45.67362" lon="6.61317">
        <ele>1682.93</ele>
        <time>2014-08-14T08:13:17Z</time>
      </trkpt>
      <trkpt lat="45.67356" lon="6.61317">
        <ele>1682.44</ele>
        <time>2014-08-14T08:13:18Z</time>
      </trkpt>
      <trkpt lat="45.67351" lon="6.61318">
        <ele>1682.44</ele>
        <time>2014-08-14T08:13:19Z</time>
      </trkpt>
      <trkpt lat="45.67345" lon="6.61319">
        <ele>1681.48</ele>
        <time>2014-08-14T08:13:20Z</time>
      </trkpt>
      <trkpt lat="45.6734" lon="6.61321">
        <ele>1681.48</ele>
        <time>2014-08-14T08:13:21Z</time>
      </trkpt>
      <trkpt lat="45.67336" lon="6.61323">
        <ele>1681</ele>
        <time>2014-08-14T08:13:22Z</time>
      </trkpt>
      <trkpt lat="45.67331" lon="6.61323">
        <ele>1680.52</ele>
        <time>2014-08-14T08:13:23Z</time>
      </trkpt>
      <trkpt lat="45.67316" lon="6.61325">
        <ele>1678.6</ele>
        <time>2014-08-14T08:13:27Z</time>
      </trkpt>
      <trkpt lat="45.67312" lon="6.61323">
        <ele>1678.6</ele>
        <time>2014-08-14T08:13:28Z</time>
      </trkpt>
      <trkpt lat="45.67308" lon="6.61319">
        <ele>1677.64</ele>
        <time>2014-08-14T08:13:29Z</time>
      </trkpt>
      <trkpt lat="45.673" lon="6.61315">
        <ele>1676.68</ele>
        <time>2014-08-14T08:13:31Z</time>
      </trkpt>
      <trkpt lat="45.67296" lon="6.61315">
        <ele>1676.68</ele>
        <time>2014-08-14T08:13:32Z</time>
      </trkpt>
      <trkpt lat="45.67292" lon="6.61318">
        <ele>1675.72</ele>
        <time>2014-08-14T08:13:33Z</time>
      </trkpt>
      <trkpt lat="45.67287" lon="6.61322">
        <ele>1675.23</ele>
        <time>2014-08-14T08:13:34Z</time>
      </trkpt>
      <trkpt lat="45.67284" lon="6.61329">
        <ele>1674.27</ele>
        <time>2014-08-14T08:13:35Z</time>
      </trkpt>
      <trkpt lat="45.6728" lon="6.61335">
        <ele>1673.79</ele>
        <time>2014-08-14T08:13:36Z</time>
      </trkpt>
      <trkpt lat="45.67277" lon="6.6134">
        <ele>1673.79</ele>
        <time>2014-08-14T08:13:37Z</time>
      </trkpt>
      <trkpt lat="45.67274" lon="6.61346">
        <ele>1672.83</ele>
        <time>2014-08-14T08:13:38Z</time>
      </trkpt>
      <trkpt lat="45.67269" lon="6.61351">
        <ele>1672.35</ele>
        <time>2014-08-14T08:13:39Z</time>
      </trkpt>
      <trkpt lat="45.67243" lon="6.61373">
        <ele>1668.99</ele>
        <time>2014-08-14T08:13:44Z</time>
      </trkpt>
      <trkpt lat="45.67236" lon="6.61377">
        <ele>1668.02</ele>
        <time>2014-08-14T08:13:45Z</time>
      </trkpt>
      <trkpt lat="45.67228" lon="6.6138">
        <ele>1667.54</ele>
        <time>2014-08-14T08:13:46Z</time>
      </trkpt>
      <trkpt lat="45.67221" lon="6.61382">
        <ele>1667.06</ele>
        <time>2014-08-14T08:13:47Z</time>
      </trkpt>
      <trkpt lat="45.67201" lon="6.61387">
        <ele>1667.06</ele>
        <time>2014-08-14T08:13:50Z</time>
      </trkpt>
      <trkpt lat="45.67197" lon="6.6139">
        <ele>1667.06</ele>
        <time>2014-08-14T08:13:51Z</time>
      </trkpt>
      <trkpt lat="45.67192" lon="6.61394">
        <ele>1667.06</ele>
        <time>2014-08-14T08:13:52Z</time>
      </trkpt>
      <trkpt lat="45.67188" lon="6.61397">
        <ele>1667.06</ele>
        <time>2014-08-14T08:13:53Z</time>
      </trkpt>
      <trkpt lat="45.67183" lon="6.614">
        <ele>1667.06</ele>
        <time>2014-08-14T08:13:54Z</time>
      </trkpt>
      <trkpt lat="45.67178" lon="6.61401">
        <ele>1667.06</ele>
        <time>2014-08-14T08:13:55Z</time>
      </trkpt>
      <trkpt lat="45.67169" lon="6.61404">
        <ele>1668.51</ele>
        <time>2014-08-14T08:13:57Z</time>
      </trkpt>
      <trkpt lat="45.67139" lon="6.6143">
        <ele>1670.43</ele>
        <time>2014-08-14T08:14:07Z</time>
      </trkpt>
      <trkpt lat="45.67113" lon="6.61435">
        <ele>1673.31</ele>
        <time>2014-08-14T08:14:16Z</time>
      </trkpt>
      <trkpt lat="45.6709" lon="6.61415">
        <ele>1672.83</ele>
        <time>2014-08-14T08:14:25Z</time>
      </trkpt>
      <trkpt lat="45.67082" lon="6.61414">
        <ele>1672.83</ele>
        <time>2014-08-14T08:14:27Z</time>
      </trkpt>
      <trkpt lat="45.67073" lon="6.61414">
        <ele>1672.83</ele>
        <time>2014-08-14T08:14:29Z</time>
      </trkpt>
      <trkpt lat="45.67069" lon="6.61413">
        <ele>1672.83</ele>
        <time>2014-08-14T08:14:30Z</time>
      </trkpt>
      <trkpt lat="45.6706" lon="6.6141">
        <ele>1671.87</ele>
        <time>2014-08-14T08:14:32Z</time>
      </trkpt>
      <trkpt lat="45.67045" lon="6.61405">
        <ele>1670.91</ele>
        <time>2014-08-14T08:14:35Z</time>
      </trkpt>
      <trkpt lat="45.6704" lon="6.614">
        <ele>1669.95</ele>
        <time>2014-08-14T08:14:36Z</time>
      </trkpt>
      <trkpt lat="45.67035" lon="6.61395">
        <ele>1669.95</ele>
        <time>2014-08-14T08:14:37Z</time>
      </trkpt>
      <trkpt lat="45.6703" lon="6.6139">
        <ele>1668.99</ele>
        <time>2014-08-14T08:14:38Z</time>
      </trkpt>
      <trkpt lat="45.67026" lon="6.61384">
        <ele>1668.51</ele>
        <time>2014-08-14T08:14:39Z</time>
      </trkpt>
      <trkpt lat="45.67024" lon="6.61379">
        <ele>1668.51</ele>
        <time>2014-08-14T08:14:40Z</time>
      </trkpt>
      <trkpt lat="45.67022" lon="6.61374">
        <ele>1668.02</ele>
        <time>2014-08-14T08:14:41Z</time>
      </trkpt>
      <trkpt lat="45.6702" lon="6.61369">
        <ele>1667.54</ele>
        <time>2014-08-14T08:14:42Z</time>
      </trkpt>
      <trkpt lat="45.67018" lon="6.61366">
        <ele>1667.54</ele>
        <time>2014-08-14T08:14:43Z</time>
      </trkpt>
      <trkpt lat="45.67014" lon="6.61365">
        <ele>1667.54</ele>
        <time>2014-08-14T08:14:44Z</time>
      </trkpt>
      <trkpt lat="45.6701" lon="6.61366">
        <ele>1667.06</ele>
        <time>2014-08-14T08:14:45Z</time>
      </trkpt>
      <trkpt lat="45.67006" lon="6.61368">
        <ele>1666.58</ele>
        <time>2014-08-14T08:14:46Z</time>
      </trkpt>
      <trkpt lat="45.67002" lon="6.6137">
        <ele>1666.58</ele>
        <time>2014-08-14T08:14:47Z</time>
      </trkpt>
      <trkpt lat="45.66998" lon="6.61372">
        <ele>1666.1</ele>
        <time>2014-08-14T08:14:48Z</time>
      </trkpt>
      <trkpt lat="45.66993" lon="6.61373">
        <ele>1666.1</ele>
        <time>2014-08-14T08:14:49Z</time>
      </trkpt>
      <trkpt lat="45.66989" lon="6.61373">
        <ele>1666.1</ele>
        <time>2014-08-14T08:14:50Z</time>
      </trkpt>
      <trkpt lat="45.66985" lon="6.61372">
        <ele>1665.14</ele>
        <time>2014-08-14T08:14:51Z</time>
      </trkpt>
      <trkpt lat="45.6698" lon="6.6137">
        <ele>1665.14</ele>
        <time>2014-08-14T08:14:52Z</time>
      </trkpt>
      <trkpt lat="45.66976" lon="6.61367">
        <ele>1664.66</ele>
        <time>2014-08-14T08:14:53Z</time>
      </trkpt>
      <trkpt lat="45.66972" lon="6.61363">
        <ele>1664.66</ele>
        <time>2014-08-14T08:14:54Z</time>
      </trkpt>
      <trkpt lat="45.66968" lon="6.61359">
        <ele>1664.66</ele>
        <time>2014-08-14T08:14:55Z</time>
      </trkpt>
      <trkpt lat="45.66964" lon="6.61355">
        <ele>1664.18</ele>
        <time>2014-08-14T08:14:56Z</time>
      </trkpt>
      <trkpt lat="45.66959" lon="6.61352">
        <ele>1664.18</ele>
        <time>2014-08-14T08:14:57Z</time>
      </trkpt>
      <trkpt lat="45.66954" lon="6.61353">
        <ele>1663.7</ele>
        <time>2014-08-14T08:14:58Z</time>
      </trkpt>
      <trkpt lat="45.66949" lon="6.61354">
        <ele>1663.22</ele>
        <time>2014-08-14T08:14:59Z</time>
      </trkpt>
      <trkpt lat="45.66923" lon="6.61367">
        <ele>1661.3</ele>
        <time>2014-08-14T08:15:04Z</time>
      </trkpt>
      <trkpt lat="45.66917" lon="6.61368">
        <ele>1661.3</ele>
        <time>2014-08-14T08:15:05Z</time>
      </trkpt>
      <trkpt lat="45.66902" lon="6.61372">
        <ele>1660.33</ele>
        <time>2014-08-14T08:15:08Z</time>
      </trkpt>
      <trkpt lat="45.66898" lon="6.61374">
        <ele>1659.85</ele>
        <time>2014-08-14T08:15:09Z</time>
      </trkpt>
      <trkpt lat="45.66881" lon="6.61386">
        <ele>1659.37</ele>
        <time>2014-08-14T08:15:13Z</time>
      </trkpt>
      <trkpt lat="45.66859" lon="6.61404">
        <ele>1657.93</ele>
        <time>2014-08-14T08:15:18Z</time>
      </trkpt>
      <trkpt lat="45.66855" lon="6.61406">
        <ele>1657.93</ele>
        <time>2014-08-14T08:15:19Z</time>
      </trkpt>
      <trkpt lat="45.66846" lon="6.61409">
        <ele>1657.93</ele>
        <time>2014-08-14T08:15:21Z</time>
      </trkpt>
      <trkpt lat="45.66842" lon="6.6141">
        <ele>1657.93</ele>
        <time>2014-08-14T08:15:22Z</time>
      </trkpt>
      <trkpt lat="45.66837" lon="6.61411">
        <ele>1657.45</ele>
        <time>2014-08-14T08:15:23Z</time>
      </trkpt>
      <trkpt lat="45.66828" lon="6.61413">
        <ele>1657.45</ele>
        <time>2014-08-14T08:15:25Z</time>
      </trkpt>
      <trkpt lat="45.66823" lon="6.61416">
        <ele>1657.45</ele>
        <time>2014-08-14T08:15:26Z</time>
      </trkpt>
      <trkpt lat="45.66819" lon="6.61419">
        <ele>1657.45</ele>
        <time>2014-08-14T08:15:27Z</time>
      </trkpt>
      <trkpt lat="45.66815" lon="6.61422">
        <ele>1657.45</ele>
        <time>2014-08-14T08:15:28Z</time>
      </trkpt>
      <trkpt lat="45.6681" lon="6.61425">
        <ele>1657.45</ele>
        <time>2014-08-14T08:15:29Z</time>
      </trkpt>
      <trkpt lat="45.66802" lon="6.6143">
        <ele>1657.45</ele>
        <time>2014-08-14T08:15:31Z</time>
      </trkpt>
      <trkpt lat="45.66798" lon="6.61432">
        <ele>1657.45</ele>
        <time>2014-08-14T08:15:32Z</time>
      </trkpt>
      <trkpt lat="45.6675" lon="6.61431">
        <ele>1657.45</ele>
        <time>2014-08-14T08:15:44Z</time>
      </trkpt>
      <trkpt lat="45.66735" lon="6.61434">
        <ele>1656.49</ele>
        <time>2014-08-14T08:15:47Z</time>
      </trkpt>
      <trkpt lat="45.66726" lon="6.61439">
        <ele>1656.01</ele>
        <time>2014-08-14T08:15:49Z</time>
      </trkpt>
      <trkpt lat="45.66721" lon="6.61441">
        <ele>1656.01</ele>
        <time>2014-08-14T08:15:50Z</time>
      </trkpt>
      <trkpt lat="45.66717" lon="6.61441">
        <ele>1655.53</ele>
        <time>2014-08-14T08:15:51Z</time>
      </trkpt>
      <trkpt lat="45.66714" lon="6.6144">
        <ele>1655.53</ele>
        <time>2014-08-14T08:15:52Z</time>
      </trkpt>
      <trkpt lat="45.66711" lon="6.61437">
        <ele>1654.57</ele>
        <time>2014-08-14T08:15:53Z</time>
      </trkpt>
      <trkpt lat="45.66708" lon="6.61434">
        <ele>1654.57</ele>
        <time>2014-08-14T08:15:54Z</time>
      </trkpt>
      <trkpt lat="45.66705" lon="6.61432">
        <ele>1653.6</ele>
        <time>2014-08-14T08:15:55Z</time>
      </trkpt>
      <trkpt lat="45.66702" lon="6.61431">
        <ele>1653.6</ele>
        <time>2014-08-14T08:15:56Z</time>
      </trkpt>
      <trkpt lat="45.66698" lon="6.61432">
        <ele>1652.64</ele>
        <time>2014-08-14T08:15:57Z</time>
      </trkpt>
      <trkpt lat="45.66695" lon="6.61435">
        <ele>1652.64</ele>
        <time>2014-08-14T08:15:58Z</time>
      </trkpt>
      <trkpt lat="45.66691" lon="6.61439">
        <ele>1652.64</ele>
        <time>2014-08-14T08:15:59Z</time>
      </trkpt>
      <trkpt lat="45.66689" lon="6.61443">
        <ele>1652.64</ele>
        <time>2014-08-14T08:16:00Z</time>
      </trkpt>
      <trkpt lat="45.66682" lon="6.61452">
        <ele>1652.16</ele>
        <time>2014-08-14T08:16:02Z</time>
      </trkpt>
      <trkpt lat="45.66678" lon="6.61455">
        <ele>1652.16</ele>
        <time>2014-08-14T08:16:03Z</time>
      </trkpt>
      <trkpt lat="45.66674" lon="6.61458">
        <ele>1652.16</ele>
        <time>2014-08-14T08:16:04Z</time>
      </trkpt>
      <trkpt lat="45.6667" lon="6.6146">
        <ele>1652.16</ele>
        <time>2014-08-14T08:16:05Z</time>
      </trkpt>
      <trkpt lat="45.66666" lon="6.61462">
        <ele>1652.16</ele>
        <time>2014-08-14T08:16:06Z</time>
      </trkpt>
      <trkpt lat="45.66657" lon="6.61465">
        <ele>1652.16</ele>
        <time>2014-08-14T08:16:08Z</time>
      </trkpt>
      <trkpt lat="45.66653" lon="6.61463">
        <ele>1652.16</ele>
        <time>2014-08-14T08:16:09Z</time>
      </trkpt>
      <trkpt lat="45.6665" lon="6.6146">
        <ele>1652.16</ele>
        <time>2014-08-14T08:16:10Z</time>
      </trkpt>
      <trkpt lat="45.66646" lon="6.61456">
        <ele>1652.16</ele>
        <time>2014-08-14T08:16:11Z</time>
      </trkpt>
      <trkpt lat="45.66643" lon="6.61451">
        <ele>1652.16</ele>
        <time>2014-08-14T08:16:12Z</time>
      </trkpt>
      <trkpt lat="45.6664" lon="6.61447">
        <ele>1652.16</ele>
        <time>2014-08-14T08:16:13Z</time>
      </trkpt>
      <trkpt lat="45.66637" lon="6.61442">
        <ele>1652.16</ele>
        <time>2014-08-14T08:16:14Z</time>
      </trkpt>
      <trkpt lat="45.66634" lon="6.61437">
        <ele>1652.16</ele>
        <time>2014-08-14T08:16:15Z</time>
      </trkpt>
      <trkpt lat="45.66624" lon="6.6142">
        <ele>1650.72</ele>
        <time>2014-08-14T08:16:18Z</time>
      </trkpt>
      <trkpt lat="45.66619" lon="6.61417">
        <ele>1650.72</ele>
        <time>2014-08-14T08:16:19Z</time>
      </trkpt>
      <trkpt lat="45.66613" lon="6.61415">
        <ele>1649.76</ele>
        <time>2014-08-14T08:16:20Z</time>
      </trkpt>
      <trkpt lat="45.666" lon="6.61411">
        <ele>1649.28</ele>
        <time>2014-08-14T08:16:22Z</time>
      </trkpt>
      <trkpt lat="45.6658" lon="6.61407">
        <ele>1647.84</ele>
        <time>2014-08-14T08:16:25Z</time>
      </trkpt>
      <trkpt lat="45.66575" lon="6.61409">
        <ele>1647.84</ele>
        <time>2014-08-14T08:16:26Z</time>
      </trkpt>
      <trkpt lat="45.66572" lon="6.61414">
        <ele>1647.36</ele>
        <time>2014-08-14T08:16:27Z</time>
      </trkpt>
      <trkpt lat="45.66572" lon="6.61419">
        <ele>1647.36</ele>
        <time>2014-08-14T08:16:28Z</time>
      </trkpt>
      <trkpt lat="45.66572" lon="6.61425">
        <ele>1647.36</ele>
        <time>2014-08-14T08:16:29Z</time>
      </trkpt>
      <trkpt lat="45.66573" lon="6.61429">
        <ele>1647.36</ele>
        <time>2014-08-14T08:16:30Z</time>
      </trkpt>
      <trkpt lat="45.66575" lon="6.61434">
        <ele>1647.36</ele>
        <time>2014-08-14T08:16:31Z</time>
      </trkpt>
      <trkpt lat="45.66577" lon="6.61439">
        <ele>1647.36</ele>
        <time>2014-08-14T08:16:32Z</time>
      </trkpt>
      <trkpt lat="45.66594" lon="6.61483">
        <ele>1648.8</ele>
        <time>2014-08-14T08:16:42Z</time>
      </trkpt>
      <trkpt lat="45.6661" lon="6.61538">
        <ele>1651.2</ele>
        <time>2014-08-14T08:16:54Z</time>
      </trkpt>
      <trkpt lat="45.6661" lon="6.616">
        <ele>1652.16</ele>
        <time>2014-08-14T08:17:06Z</time>
      </trkpt>
      <trkpt lat="45.66607" lon="6.61611">
        <ele>1652.16</ele>
        <time>2014-08-14T08:17:08Z</time>
      </trkpt>
      <trkpt lat="45.66605" lon="6.61616">
        <ele>1652.16</ele>
        <time>2014-08-14T08:17:09Z</time>
      </trkpt>
      <trkpt lat="45.66602" lon="6.61621">
        <ele>1652.16</ele>
        <time>2014-08-14T08:17:10Z</time>
      </trkpt>
      <trkpt lat="45.66599" lon="6.61626">
        <ele>1652.16</ele>
        <time>2014-08-14T08:17:11Z</time>
      </trkpt>
      <trkpt lat="45.66594" lon="6.6163">
        <ele>1651.2</ele>
        <time>2014-08-14T08:17:12Z</time>
      </trkpt>
      <trkpt lat="45.6659" lon="6.61634">
        <ele>1650.72</ele>
        <time>2014-08-14T08:17:13Z</time>
      </trkpt>
      <trkpt lat="45.66586" lon="6.6164">
        <ele>1649.76</ele>
        <time>2014-08-14T08:17:14Z</time>
      </trkpt>
      <trkpt lat="45.66583" lon="6.61646">
        <ele>1649.76</ele>
        <time>2014-08-14T08:17:15Z</time>
      </trkpt>
      <trkpt lat="45.66581" lon="6.61654">
        <ele>1648.8</ele>
        <time>2014-08-14T08:17:16Z</time>
      </trkpt>
      <trkpt lat="45.66579" lon="6.61662">
        <ele>1648.8</ele>
        <time>2014-08-14T08:17:17Z</time>
      </trkpt>
      <trkpt lat="45.66579" lon="6.61671">
        <ele>1648.8</ele>
        <time>2014-08-14T08:17:18Z</time>
      </trkpt>
      <trkpt lat="45.6658" lon="6.61679">
        <ele>1648.32</ele>
        <time>2014-08-14T08:17:19Z</time>
      </trkpt>
      <trkpt lat="45.66581" lon="6.61687">
        <ele>1648.32</ele>
        <time>2014-08-14T08:17:20Z</time>
      </trkpt>
      <trkpt lat="45.66581" lon="6.61693">
        <ele>1648.32</ele>
        <time>2014-08-14T08:17:21Z</time>
      </trkpt>
      <trkpt lat="45.66577" lon="6.61709">
        <ele>1646.88</ele>
        <time>2014-08-14T08:17:24Z</time>
      </trkpt>
      <trkpt lat="45.66576" lon="6.61712">
        <ele>1646.88</ele>
        <time>2014-08-14T08:17:25Z</time>
      </trkpt>
      <trkpt lat="45.66575" lon="6.61714">
        <ele>1646.4</ele>
        <time>2014-08-14T08:17:26Z</time>
      </trkpt>
      <trkpt lat="45.66576" lon="6.61716">
        <ele>1645.91</ele>
        <time>2014-08-14T08:17:37Z</time>
      </trkpt>
      <trkpt lat="45.66578" lon="6.61718">
        <ele>1645.91</ele>
        <time>2014-08-14T08:17:52Z</time>
      </trkpt>
      <trkpt lat="45.66575" lon="6.61718">
        <ele>1645.91</ele>
        <time>2014-08-14T08:18:10Z</time>
      </trkpt>
      <trkpt lat="45.66563" lon="6.61734">
        <ele>1643.99</ele>
        <time>2014-08-14T08:18:15Z</time>
      </trkpt>
      <trkpt lat="45.6656" lon="6.61739">
        <ele>1643.51</ele>
        <time>2014-08-14T08:18:16Z</time>
      </trkpt>
      <trkpt lat="45.66552" lon="6.61755">
        <ele>1642.07</ele>
        <time>2014-08-14T08:18:19Z</time>
      </trkpt>
      <trkpt lat="45.66547" lon="6.61768">
        <ele>1641.11</ele>
        <time>2014-08-14T08:18:21Z</time>
      </trkpt>
      <trkpt lat="45.66546" lon="6.61775">
        <ele>1640.63</ele>
        <time>2014-08-14T08:18:22Z</time>
      </trkpt>
      <trkpt lat="45.66544" lon="6.61783">
        <ele>1640.15</ele>
        <time>2014-08-14T08:18:23Z</time>
      </trkpt>
      <trkpt lat="45.66542" lon="6.61789">
        <ele>1640.15</ele>
        <time>2014-08-14T08:18:24Z</time>
      </trkpt>
      <trkpt lat="45.6654" lon="6.61795">
        <ele>1640.15</ele>
        <time>2014-08-14T08:18:25Z</time>
      </trkpt>
      <trkpt lat="45.66537" lon="6.61801">
        <ele>1640.15</ele>
        <time>2014-08-14T08:18:26Z</time>
      </trkpt>
      <trkpt lat="45.66535" lon="6.61807">
        <ele>1640.15</ele>
        <time>2014-08-14T08:18:27Z</time>
      </trkpt>
      <trkpt lat="45.66534" lon="6.61812">
        <ele>1640.15</ele>
        <time>2014-08-14T08:18:28Z</time>
      </trkpt>
      <trkpt lat="45.66532" lon="6.61818">
        <ele>1640.15</ele>
        <time>2014-08-14T08:18:29Z</time>
      </trkpt>
      <trkpt lat="45.66531" lon="6.61824">
        <ele>1640.15</ele>
        <time>2014-08-14T08:18:30Z</time>
      </trkpt>
      <trkpt lat="45.66527" lon="6.6184">
        <ele>1641.59</ele>
        <time>2014-08-14T08:18:33Z</time>
      </trkpt>
      <trkpt lat="45.66525" lon="6.61845">
        <ele>1641.59</ele>
        <time>2014-08-14T08:18:34Z</time>
      </trkpt>
      <trkpt lat="45.66523" lon="6.6185">
        <ele>1641.59</ele>
        <time>2014-08-14T08:18:35Z</time>
      </trkpt>
      <trkpt lat="45.66519" lon="6.61855">
        <ele>1641.59</ele>
        <time>2014-08-14T08:18:36Z</time>
      </trkpt>
      <trkpt lat="45.66516" lon="6.61859">
        <ele>1641.59</ele>
        <time>2014-08-14T08:18:37Z</time>
      </trkpt>
      <trkpt lat="45.66512" lon="6.61865">
        <ele>1640.15</ele>
        <time>2014-08-14T08:18:38Z</time>
      </trkpt>
      <trkpt lat="45.66508" lon="6.61871">
        <ele>1640.15</ele>
        <time>2014-08-14T08:18:39Z</time>
      </trkpt>
      <trkpt lat="45.66483" lon="6.61914">
        <ele>1636.78</ele>
        <time>2014-08-14T08:18:45Z</time>
      </trkpt>
      <trkpt lat="45.66473" lon="6.61928">
        <ele>1636.3</ele>
        <time>2014-08-14T08:18:47Z</time>
      </trkpt>
      <trkpt lat="45.66457" lon="6.61944">
        <ele>1635.34</ele>
        <time>2014-08-14T08:18:50Z</time>
      </trkpt>
      <trkpt lat="45.66451" lon="6.61948">
        <ele>1635.34</ele>
        <time>2014-08-14T08:18:51Z</time>
      </trkpt>
      <trkpt lat="45.66445" lon="6.61952">
        <ele>1635.82</ele>
        <time>2014-08-14T08:18:52Z</time>
      </trkpt>
      <trkpt lat="45.66428" lon="6.6196">
        <ele>1634.86</ele>
        <time>2014-08-14T08:18:55Z</time>
      </trkpt>
      <trkpt lat="45.66423" lon="6.61964">
        <ele>1635.34</ele>
        <time>2014-08-14T08:18:56Z</time>
      </trkpt>
      <trkpt lat="45.66419" lon="6.61969">
        <ele>1633.9</ele>
        <time>2014-08-14T08:18:57Z</time>
      </trkpt>
      <trkpt lat="45.66415" lon="6.61973">
        <ele>1633.42</ele>
        <time>2014-08-14T08:18:58Z</time>
      </trkpt>
      <trkpt lat="45.66413" lon="6.61978">
        <ele>1632.94</ele>
        <time>2014-08-14T08:18:59Z</time>
      </trkpt>
      <trkpt lat="45.66411" lon="6.61984">
        <ele>1632.46</ele>
        <time>2014-08-14T08:19:00Z</time>
      </trkpt>
      <trkpt lat="45.66404" lon="6.62001">
        <ele>1629.09</ele>
        <time>2014-08-14T08:19:03Z</time>
      </trkpt>
      <trkpt lat="45.664" lon="6.62007">
        <ele>1628.61</ele>
        <time>2014-08-14T08:19:04Z</time>
      </trkpt>
      <trkpt lat="45.66397" lon="6.62012">
        <ele>1627.65</ele>
        <time>2014-08-14T08:19:05Z</time>
      </trkpt>
      <trkpt lat="45.66393" lon="6.62017">
        <ele>1627.65</ele>
        <time>2014-08-14T08:19:06Z</time>
      </trkpt>
      <trkpt lat="45.66385" lon="6.62025">
        <ele>1627.65</ele>
        <time>2014-08-14T08:19:08Z</time>
      </trkpt>
      <trkpt lat="45.6638" lon="6.62028">
        <ele>1627.65</ele>
        <time>2014-08-14T08:19:09Z</time>
      </trkpt>
      <trkpt lat="45.66375" lon="6.62031">
        <ele>1627.17</ele>
        <time>2014-08-14T08:19:10Z</time>
      </trkpt>
      <trkpt lat="45.66355" lon="6.62039">
        <ele>1629.57</ele>
        <time>2014-08-14T08:19:18Z</time>
      </trkpt>
      <trkpt lat="45.66336" lon="6.62047">
        <ele>1632.94</ele>
        <time>2014-08-14T08:19:28Z</time>
      </trkpt>
      <trkpt lat="45.66316" lon="6.62085">
        <ele>1634.38</ele>
        <time>2014-08-14T08:19:42Z</time>
      </trkpt>
      <trkpt lat="45.66312" lon="6.621">
        <ele>1634.38</ele>
        <time>2014-08-14T08:19:45Z</time>
      </trkpt>
      <trkpt lat="45.66309" lon="6.62105">
        <ele>1634.38</ele>
        <time>2014-08-14T08:19:46Z</time>
      </trkpt>
      <trkpt lat="45.66306" lon="6.6211">
        <ele>1632.94</ele>
        <time>2014-08-14T08:19:47Z</time>
      </trkpt>
      <trkpt lat="45.66303" lon="6.62115">
        <ele>1632.94</ele>
        <time>2014-08-14T08:19:48Z</time>
      </trkpt>
      <trkpt lat="45.66299" lon="6.62119">
        <ele>1632.94</ele>
        <time>2014-08-14T08:19:49Z</time>
      </trkpt>
      <trkpt lat="45.66295" lon="6.62124">
        <ele>1632.46</ele>
        <time>2014-08-14T08:19:50Z</time>
      </trkpt>
      <trkpt lat="45.66291" lon="6.62128">
        <ele>1632.46</ele>
        <time>2014-08-14T08:19:51Z</time>
      </trkpt>
      <trkpt lat="45.66283" lon="6.62137">
        <ele>1631.49</ele>
        <time>2014-08-14T08:19:53Z</time>
      </trkpt>
      <trkpt lat="45.66279" lon="6.62143">
        <ele>1631.49</ele>
        <time>2014-08-14T08:19:54Z</time>
      </trkpt>
      <trkpt lat="45.66275" lon="6.62149">
        <ele>1631.01</ele>
        <time>2014-08-14T08:19:55Z</time>
      </trkpt>
      <trkpt lat="45.66271" lon="6.62155">
        <ele>1630.53</ele>
        <time>2014-08-14T08:19:56Z</time>
      </trkpt>
      <trkpt lat="45.66268" lon="6.62163">
        <ele>1630.05</ele>
        <time>2014-08-14T08:19:57Z</time>
      </trkpt>
      <trkpt lat="45.66265" lon="6.62171">
        <ele>1629.57</ele>
        <time>2014-08-14T08:19:58Z</time>
      </trkpt>
      <trkpt lat="45.66263" lon="6.6218">
        <ele>1629.57</ele>
        <time>2014-08-14T08:19:59Z</time>
      </trkpt>
      <trkpt lat="45.6626" lon="6.62188">
        <ele>1629.09</ele>
        <time>2014-08-14T08:20:00Z</time>
      </trkpt>
      <trkpt lat="45.66256" lon="6.62196">
        <ele>1629.09</ele>
        <time>2014-08-14T08:20:01Z</time>
      </trkpt>
      <trkpt lat="45.66246" lon="6.6223">
        <ele>1630.53</ele>
        <time>2014-08-14T08:20:07Z</time>
      </trkpt>
      <trkpt lat="45.66244" lon="6.62254">
        <ele>1632.46</ele>
        <time>2014-08-14T08:20:16Z</time>
      </trkpt>
      <trkpt lat="45.66243" lon="6.62257">
        <ele>1632.46</ele>
        <time>2014-08-14T08:20:17Z</time>
      </trkpt>
      <trkpt lat="45.66243" lon="6.6226">
        <ele>1633.42</ele>
        <time>2014-08-14T08:20:18Z</time>
      </trkpt>
      <trkpt lat="45.66223" lon="6.62296">
        <ele>1635.82</ele>
        <time>2014-08-14T08:20:34Z</time>
      </trkpt>
      <trkpt lat="45.6621" lon="6.62331">
        <ele>1636.3</ele>
        <time>2014-08-14T08:20:45Z</time>
      </trkpt>
      <trkpt lat="45.66204" lon="6.62345">
        <ele>1636.3</ele>
        <time>2014-08-14T08:20:48Z</time>
      </trkpt>
      <trkpt lat="45.66202" lon="6.6235">
        <ele>1636.3</ele>
        <time>2014-08-14T08:20:49Z</time>
      </trkpt>
      <trkpt lat="45.66178" lon="6.62405">
        <ele>1637.74</ele>
        <time>2014-08-14T08:21:02Z</time>
      </trkpt>
      <trkpt lat="45.66152" lon="6.6243">
        <ele>1640.15</ele>
        <time>2014-08-14T08:21:16Z</time>
      </trkpt>
      <trkpt lat="45.66131" lon="6.62454">
        <ele>1643.51</ele>
        <time>2014-08-14T08:21:29Z</time>
      </trkpt>
      <trkpt lat="45.66107" lon="6.62488">
        <ele>1645.91</ele>
        <time>2014-08-14T08:21:44Z</time>
      </trkpt>
      <trkpt lat="45.66099" lon="6.62525">
        <ele>1647.36</ele>
        <time>2014-08-14T08:21:56Z</time>
      </trkpt>
      <trkpt lat="45.661" lon="6.62536">
        <ele>1647.36</ele>
        <time>2014-08-14T08:21:58Z</time>
      </trkpt>
      <trkpt lat="45.66105" lon="6.62589">
        <ele>1650.72</ele>
        <time>2014-08-14T08:22:10Z</time>
      </trkpt>
      <trkpt lat="45.66107" lon="6.62592">
        <ele>1650.72</ele>
        <time>2014-08-14T08:22:11Z</time>
      </trkpt>
      <trkpt lat="45.66108" lon="6.62596">
        <ele>1650.72</ele>
        <time>2014-08-14T08:22:12Z</time>
      </trkpt>
      <trkpt lat="45.6611" lon="6.62599">
        <ele>1650.72</ele>
        <time>2014-08-14T08:22:13Z</time>
      </trkpt>
      <trkpt lat="45.66112" lon="6.62603">
        <ele>1650.72</ele>
        <time>2014-08-14T08:22:14Z</time>
      </trkpt>
      <trkpt lat="45.66141" lon="6.62654">
        <ele>1651.2</ele>
        <time>2014-08-14T08:22:27Z</time>
      </trkpt>
      <trkpt lat="45.66142" lon="6.6266">
        <ele>1651.2</ele>
        <time>2014-08-14T08:22:28Z</time>
      </trkpt>
      <trkpt lat="45.66143" lon="6.62665">
        <ele>1651.2</ele>
        <time>2014-08-14T08:22:29Z</time>
      </trkpt>
      <trkpt lat="45.66144" lon="6.62671">
        <ele>1651.2</ele>
        <time>2014-08-14T08:22:30Z</time>
      </trkpt>
      <trkpt lat="45.66151" lon="6.62708">
        <ele>1649.28</ele>
        <time>2014-08-14T08:22:36Z</time>
      </trkpt>
      <trkpt lat="45.6616" lon="6.62759">
        <ele>1650.72</ele>
        <time>2014-08-14T08:22:45Z</time>
      </trkpt>
      <trkpt lat="45.66172" lon="6.62804">
        <ele>1651.68</ele>
        <time>2014-08-14T08:22:57Z</time>
      </trkpt>
      <trkpt lat="45.6617" lon="6.62819">
        <ele>1651.68</ele>
        <time>2014-08-14T08:23:00Z</time>
      </trkpt>
      <trkpt lat="45.66169" lon="6.62824">
        <ele>1651.68</ele>
        <time>2014-08-14T08:23:01Z</time>
      </trkpt>
      <trkpt lat="45.66165" lon="6.62836">
        <ele>1651.68</ele>
        <time>2014-08-14T08:23:03Z</time>
      </trkpt>
      <trkpt lat="45.66164" lon="6.62874">
        <ele>1651.68</ele>
        <time>2014-08-14T08:23:14Z</time>
      </trkpt>
      <trkpt lat="45.66163" lon="6.62885">
        <ele>1652.16</ele>
        <time>2014-08-14T08:23:18Z</time>
      </trkpt>
      <trkpt lat="45.66163" lon="6.62888">
        <ele>1652.16</ele>
        <time>2014-08-14T08:23:19Z</time>
      </trkpt>
      <trkpt lat="45.66162" lon="6.6289">
        <ele>1652.64</ele>
        <time>2014-08-14T08:23:20Z</time>
      </trkpt>
      <trkpt lat="45.66162" lon="6.62892">
        <ele>1652.64</ele>
        <time>2014-08-14T08:23:21Z</time>
      </trkpt>
      <trkpt lat="45.66161" lon="6.62894">
        <ele>1652.64</ele>
        <time>2014-08-14T08:23:22Z</time>
      </trkpt>
      <trkpt lat="45.6616" lon="6.62896">
        <ele>1653.12</ele>
        <time>2014-08-14T08:23:23Z</time>
      </trkpt>
      <trkpt lat="45.66158" lon="6.62898">
        <ele>1653.12</ele>
        <time>2014-08-14T08:23:24Z</time>
      </trkpt>
      <trkpt lat="45.66157" lon="6.62899">
        <ele>1653.12</ele>
        <time>2014-08-14T08:23:25Z</time>
      </trkpt>
      <trkpt lat="45.66155" lon="6.629">
        <ele>1653.6</ele>
        <time>2014-08-14T08:23:26Z</time>
      </trkpt>
      <trkpt lat="45.66143" lon="6.62915">
        <ele>1656.49</ele>
        <time>2014-08-14T08:23:36Z</time>
      </trkpt>
      <trkpt lat="45.66143" lon="6.62917">
        <ele>1656.49</ele>
        <time>2014-08-14T08:23:37Z</time>
      </trkpt>
      <trkpt lat="45.66142" lon="6.6292">
        <ele>1656.49</ele>
        <time>2014-08-14T08:23:38Z</time>
      </trkpt>
      <trkpt lat="45.66142" lon="6.62923">
        <ele>1656.97</ele>
        <time>2014-08-14T08:23:39Z</time>
      </trkpt>
      <trkpt lat="45.66143" lon="6.62925">
        <ele>1656.97</ele>
        <time>2014-08-14T08:23:40Z</time>
      </trkpt>
      <trkpt lat="45.66144" lon="6.62927">
        <ele>1657.45</ele>
        <time>2014-08-14T08:23:41Z</time>
      </trkpt>
      <trkpt lat="45.66146" lon="6.62928">
        <ele>1657.45</ele>
        <time>2014-08-14T08:23:42Z</time>
      </trkpt>
      <trkpt lat="45.66147" lon="6.62929">
        <ele>1657.45</ele>
        <time>2014-08-14T08:23:43Z</time>
      </trkpt>
      <trkpt lat="45.66149" lon="6.62928">
        <ele>1658.41</ele>
        <time>2014-08-14T08:23:44Z</time>
      </trkpt>
      <trkpt lat="45.66151" lon="6.62928">
        <ele>1658.41</ele>
        <time>2014-08-14T08:23:45Z</time>
      </trkpt>
      <trkpt lat="45.66167" lon="6.62929">
        <ele>1659.85</ele>
        <time>2014-08-14T08:23:55Z</time>
      </trkpt>
      <trkpt lat="45.66169" lon="6.62929">
        <ele>1659.85</ele>
        <time>2014-08-14T08:23:56Z</time>
      </trkpt>
      <trkpt lat="45.6617" lon="6.6293">
        <ele>1660.33</ele>
        <time>2014-08-14T08:23:57Z</time>
      </trkpt>
      <trkpt lat="45.66187" lon="6.62927">
        <ele>1660.81</ele>
        <time>2014-08-14T08:24:06Z</time>
      </trkpt>
      <trkpt lat="45.66209" lon="6.62906">
        <ele>1662.74</ele>
        <time>2014-08-14T08:24:19Z</time>
      </trkpt>
      <trkpt lat="45.66228" lon="6.62881">
        <ele>1664.18</ele>
        <time>2014-08-14T08:24:31Z</time>
      </trkpt>
      <trkpt lat="45.66254" lon="6.62866">
        <ele>1666.1</ele>
        <time>2014-08-14T08:24:44Z</time>
      </trkpt>
      <trkpt lat="45.66281" lon="6.62871">
        <ele>1668.99</ele>
        <time>2014-08-14T08:24:59Z</time>
      </trkpt>
      <trkpt lat="45.66309" lon="6.62886">
        <ele>1671.87</ele>
        <time>2014-08-14T08:25:15Z</time>
      </trkpt>
      <trkpt lat="45.66331" lon="6.62882">
        <ele>1673.79</ele>
        <time>2014-08-14T08:25:27Z</time>
      </trkpt>
      <trkpt lat="45.66342" lon="6.62871">
        <ele>1675.23</ele>
        <time>2014-08-14T08:25:34Z</time>
      </trkpt>
      <trkpt lat="45.66344" lon="6.62869">
        <ele>1675.23</ele>
        <time>2014-08-14T08:25:35Z</time>
      </trkpt>
      <trkpt lat="45.66345" lon="6.62868">
        <ele>1675.23</ele>
        <time>2014-08-14T08:25:36Z</time>
      </trkpt>
      <trkpt lat="45.66347" lon="6.62866">
        <ele>1675.23</ele>
        <time>2014-08-14T08:25:37Z</time>
      </trkpt>
      <trkpt lat="45.66349" lon="6.62865">
        <ele>1675.23</ele>
        <time>2014-08-14T08:25:38Z</time>
      </trkpt>
      <trkpt lat="45.66351" lon="6.62864">
        <ele>1675.23</ele>
        <time>2014-08-14T08:25:39Z</time>
      </trkpt>
      <trkpt lat="45.66352" lon="6.62864">
        <ele>1675.72</ele>
        <time>2014-08-14T08:25:40Z</time>
      </trkpt>
      <trkpt lat="45.66354" lon="6.62863">
        <ele>1675.72</ele>
        <time>2014-08-14T08:25:41Z</time>
      </trkpt>
      <trkpt lat="45.66377" lon="6.62845">
        <ele>1678.6</ele>
        <time>2014-08-14T08:25:55Z</time>
      </trkpt>
      <trkpt lat="45.66397" lon="6.62823">
        <ele>1681.48</ele>
        <time>2014-08-14T08:26:09Z</time>
      </trkpt>
      <trkpt lat="45.66403" lon="6.62823">
        <ele>1682.93</ele>
        <time>2014-08-14T08:26:20Z</time>
      </trkpt>
      <trkpt lat="45.66403" lon="6.62829">
        <ele>1682.93</ele>
        <time>2014-08-14T08:26:32Z</time>
      </trkpt>
      <trkpt lat="45.66403" lon="6.62829">
        <ele>1682.93</ele>
        <time>2014-08-14T08:26:57Z</time>
      </trkpt>
      <trkpt lat="45.66402" lon="6.62826">
        <ele>1682.93</ele>
        <time>2014-08-14T08:27:24Z</time>
      </trkpt>
      <trkpt lat="45.66404" lon="6.62822">
        <ele>1682.93</ele>
        <time>2014-08-14T08:27:33Z</time>
      </trkpt>
      <trkpt lat="45.66408" lon="6.62821">
        <ele>1683.41</ele>
        <time>2014-08-14T08:27:37Z</time>
      </trkpt>
      <trkpt lat="45.66426" lon="6.62816">
        <ele>1685.33</ele>
        <time>2014-08-14T08:27:50Z</time>
      </trkpt>
      <trkpt lat="45.66436" lon="6.62824">
        <ele>1687.25</ele>
        <time>2014-08-14T08:27:58Z</time>
      </trkpt>
      <trkpt lat="45.66437" lon="6.62826">
        <ele>1687.73</ele>
        <time>2014-08-14T08:27:59Z</time>
      </trkpt>
      <trkpt lat="45.66437" lon="6.62829">
        <ele>1687.73</ele>
        <time>2014-08-14T08:28:00Z</time>
      </trkpt>
      <trkpt lat="45.66437" lon="6.62831">
        <ele>1688.21</ele>
        <time>2014-08-14T08:28:01Z</time>
      </trkpt>
      <trkpt lat="45.66437" lon="6.62833">
        <ele>1688.21</ele>
        <time>2014-08-14T08:28:02Z</time>
      </trkpt>
      <trkpt lat="45.66436" lon="6.62835">
        <ele>1688.69</ele>
        <time>2014-08-14T08:28:03Z</time>
      </trkpt>
      <trkpt lat="45.66434" lon="6.62837">
        <ele>1688.69</ele>
        <time>2014-08-14T08:28:04Z</time>
      </trkpt>
      <trkpt lat="45.66433" lon="6.62838">
        <ele>1689.17</ele>
        <time>2014-08-14T08:28:05Z</time>
      </trkpt>
      <trkpt lat="45.66431" lon="6.6284">
        <ele>1689.65</ele>
        <time>2014-08-14T08:28:06Z</time>
      </trkpt>
      <trkpt lat="45.66408" lon="6.62859">
        <ele>1692.06</ele>
        <time>2014-08-14T08:28:22Z</time>
      </trkpt>
      <trkpt lat="45.66406" lon="6.62871">
        <ele>1693.5</ele>
        <time>2014-08-14T08:28:28Z</time>
      </trkpt>
      <trkpt lat="45.66406" lon="6.62873">
        <ele>1693.5</ele>
        <time>2014-08-14T08:28:29Z</time>
      </trkpt>
      <trkpt lat="45.66408" lon="6.62874">
        <ele>1693.98</ele>
        <time>2014-08-14T08:28:30Z</time>
      </trkpt>
      <trkpt lat="45.66409" lon="6.62875">
        <ele>1693.98</ele>
        <time>2014-08-14T08:28:31Z</time>
      </trkpt>
      <trkpt lat="45.66411" lon="6.62876">
        <ele>1694.46</ele>
        <time>2014-08-14T08:28:32Z</time>
      </trkpt>
      <trkpt lat="45.66412" lon="6.62876">
        <ele>1694.46</ele>
        <time>2014-08-14T08:28:33Z</time>
      </trkpt>
      <trkpt lat="45.66414" lon="6.62876">
        <ele>1694.94</ele>
        <time>2014-08-14T08:28:34Z</time>
      </trkpt>
      <trkpt lat="45.66439" lon="6.62871">
        <ele>1697.83</ele>
        <time>2014-08-14T08:28:50Z</time>
      </trkpt>
      <trkpt lat="45.66452" lon="6.62869">
        <ele>1699.75</ele>
        <time>2014-08-14T08:28:58Z</time>
      </trkpt>
      <trkpt lat="45.66453" lon="6.62868">
        <ele>1699.75</ele>
        <time>2014-08-14T08:28:59Z</time>
      </trkpt>
      <trkpt lat="45.66455" lon="6.62868">
        <ele>1699.75</ele>
        <time>2014-08-14T08:29:00Z</time>
      </trkpt>
      <trkpt lat="45.66477" lon="6.62849">
        <ele>1702.15</ele>
        <time>2014-08-14T08:29:15Z</time>
      </trkpt>
      <trkpt lat="45.66503" lon="6.62827">
        <ele>1705.04</ele>
        <time>2014-08-14T08:29:32Z</time>
      </trkpt>
      <trkpt lat="45.66532" lon="6.62817">
        <ele>1706.96</ele>
        <time>2014-08-14T08:29:47Z</time>
      </trkpt>
      <trkpt lat="45.66563" lon="6.62801">
        <ele>1708.4</ele>
        <time>2014-08-14T08:30:01Z</time>
      </trkpt>
      <trkpt lat="45.66599" lon="6.62779">
        <ele>1710.32</ele>
        <time>2014-08-14T08:30:15Z</time>
      </trkpt>
      <trkpt lat="45.6663" lon="6.62742">
        <ele>1711.28</ele>
        <time>2014-08-14T08:30:30Z</time>
      </trkpt>
      <trkpt lat="45.66671" lon="6.62699">
        <ele>1709.84</ele>
        <time>2014-08-14T08:30:44Z</time>
      </trkpt>
      <trkpt lat="45.66703" lon="6.62674">
        <ele>1706.48</ele>
        <time>2014-08-14T08:30:51Z</time>
      </trkpt>
      <trkpt lat="45.66721" lon="6.62663">
        <ele>1705.52</ele>
        <time>2014-08-14T08:30:54Z</time>
      </trkpt>
      <trkpt lat="45.66739" lon="6.62655">
        <ele>1703.11</ele>
        <time>2014-08-14T08:30:58Z</time>
      </trkpt>
      <trkpt lat="45.66779" lon="6.62647">
        <ele>1700.71</ele>
        <time>2014-08-14T08:31:06Z</time>
      </trkpt>
      <trkpt lat="45.66784" lon="6.62645">
        <ele>1700.71</ele>
        <time>2014-08-14T08:31:07Z</time>
      </trkpt>
      <trkpt lat="45.66789" lon="6.62642">
        <ele>1700.23</ele>
        <time>2014-08-14T08:31:08Z</time>
      </trkpt>
      <trkpt lat="45.66795" lon="6.6264">
        <ele>1700.23</ele>
        <time>2014-08-14T08:31:09Z</time>
      </trkpt>
      <trkpt lat="45.668" lon="6.62636">
        <ele>1699.27</ele>
        <time>2014-08-14T08:31:10Z</time>
      </trkpt>
      <trkpt lat="45.66805" lon="6.62633">
        <ele>1699.27</ele>
        <time>2014-08-14T08:31:11Z</time>
      </trkpt>
      <trkpt lat="45.66815" lon="6.62628">
        <ele>1698.31</ele>
        <time>2014-08-14T08:31:13Z</time>
      </trkpt>
      <trkpt lat="45.66838" lon="6.62619">
        <ele>1696.38</ele>
        <time>2014-08-14T08:31:19Z</time>
      </trkpt>
      <trkpt lat="45.6687" lon="6.62611">
        <ele>1693.5</ele>
        <time>2014-08-14T08:31:28Z</time>
      </trkpt>
      <trkpt lat="45.66883" lon="6.6261">
        <ele>1692.54</ele>
        <time>2014-08-14T08:31:32Z</time>
      </trkpt>
      <trkpt lat="45.66886" lon="6.62608">
        <ele>1692.54</ele>
        <time>2014-08-14T08:31:33Z</time>
      </trkpt>
      <trkpt lat="45.66889" lon="6.62606">
        <ele>1692.06</ele>
        <time>2014-08-14T08:31:34Z</time>
      </trkpt>
      <trkpt lat="45.66892" lon="6.62603">
        <ele>1691.58</ele>
        <time>2014-08-14T08:31:35Z</time>
      </trkpt>
      <trkpt lat="45.66895" lon="6.62601">
        <ele>1691.1</ele>
        <time>2014-08-14T08:31:36Z</time>
      </trkpt>
      <trkpt lat="45.66932" lon="6.62585">
        <ele>1688.21</ele>
        <time>2014-08-14T08:31:48Z</time>
      </trkpt>
      <trkpt lat="45.66951" lon="6.62577">
        <ele>1686.77</ele>
        <time>2014-08-14T08:32:03Z</time>
      </trkpt>
      <trkpt lat="45.66957" lon="6.62576">
        <ele>1685.81</ele>
        <time>2014-08-14T08:32:12Z</time>
      </trkpt>
      <trkpt lat="45.66976" lon="6.62573">
        <ele>1683.89</ele>
        <time>2014-08-14T08:32:25Z</time>
      </trkpt>
      <trkpt lat="45.66986" lon="6.62583">
        <ele>1682.93</ele>
        <time>2014-08-14T08:32:36Z</time>
      </trkpt>
      <trkpt lat="45.67003" lon="6.6259">
        <ele>1681.48</ele>
        <time>2014-08-14T08:32:42Z</time>
      </trkpt>
      <trkpt lat="45.67021" lon="6.62591">
        <ele>1680.52</ele>
        <time>2014-08-14T08:32:46Z</time>
      </trkpt>
      <trkpt lat="45.6703" lon="6.62593">
        <ele>1680.04</ele>
        <time>2014-08-14T08:32:48Z</time>
      </trkpt>
      <trkpt lat="45.67061" lon="6.62606">
        <ele>1678.6</ele>
        <time>2014-08-14T08:32:56Z</time>
      </trkpt>
      <trkpt lat="45.67065" lon="6.62609">
        <ele>1678.6</ele>
        <time>2014-08-14T08:32:57Z</time>
      </trkpt>
      <trkpt lat="45.67068" lon="6.62613">
        <ele>1678.12</ele>
        <time>2014-08-14T08:32:58Z</time>
      </trkpt>
      <trkpt lat="45.67069" lon="6.62618">
        <ele>1678.12</ele>
        <time>2014-08-14T08:32:59Z</time>
      </trkpt>
      <trkpt lat="45.67071" lon="6.62623">
        <ele>1678.12</ele>
        <time>2014-08-14T08:33:00Z</time>
      </trkpt>
      <trkpt lat="45.67077" lon="6.62632">
        <ele>1676.68</ele>
        <time>2014-08-14T08:33:03Z</time>
      </trkpt>
      <trkpt lat="45.6708" lon="6.62632">
        <ele>1676.68</ele>
        <time>2014-08-14T08:33:04Z</time>
      </trkpt>
      <trkpt lat="45.67083" lon="6.62631">
        <ele>1676.68</ele>
        <time>2014-08-14T08:33:05Z</time>
      </trkpt>
      <trkpt lat="45.67086" lon="6.62628">
        <ele>1676.2</ele>
        <time>2014-08-14T08:33:06Z</time>
      </trkpt>
      <trkpt lat="45.6709" lon="6.62625">
        <ele>1676.2</ele>
        <time>2014-08-14T08:33:07Z</time>
      </trkpt>
      <trkpt lat="45.67119" lon="6.62629">
        <ele>1673.79</ele>
        <time>2014-08-14T08:33:16Z</time>
      </trkpt>
      <trkpt lat="45.67153" lon="6.62642">
        <ele>1672.83</ele>
        <time>2014-08-14T08:33:26Z</time>
      </trkpt>
      <trkpt lat="45.67188" lon="6.62652">
        <ele>1672.35</ele>
        <time>2014-08-14T08:33:38Z</time>
      </trkpt>
      <trkpt lat="45.67218" lon="6.62672">
        <ele>1670.91</ele>
        <time>2014-08-14T08:33:47Z</time>
      </trkpt>
      <trkpt lat="45.67249" lon="6.62681">
        <ele>1669.47</ele>
        <time>2014-08-14T08:33:54Z</time>
      </trkpt>
      <trkpt lat="45.67253" lon="6.62681">
        <ele>1669.47</ele>
        <time>2014-08-14T08:33:55Z</time>
      </trkpt>
      <trkpt lat="45.67258" lon="6.62681">
        <ele>1669.47</ele>
        <time>2014-08-14T08:33:56Z</time>
      </trkpt>
      <trkpt lat="45.67263" lon="6.6268">
        <ele>1668.99</ele>
        <time>2014-08-14T08:33:57Z</time>
      </trkpt>
      <trkpt lat="45.67268" lon="6.62678">
        <ele>1668.99</ele>
        <time>2014-08-14T08:33:58Z</time>
      </trkpt>
      <trkpt lat="45.67272" lon="6.62676">
        <ele>1668.99</ele>
        <time>2014-08-14T08:33:59Z</time>
      </trkpt>
      <trkpt lat="45.67277" lon="6.62677">
        <ele>1668.99</ele>
        <time>2014-08-14T08:34:00Z</time>
      </trkpt>
      <trkpt lat="45.67281" lon="6.62681">
        <ele>1668.99</ele>
        <time>2014-08-14T08:34:01Z</time>
      </trkpt>
      <trkpt lat="45.67283" lon="6.62688">
        <ele>1668.02</ele>
        <time>2014-08-14T08:34:02Z</time>
      </trkpt>
      <trkpt lat="45.67285" lon="6.62694">
        <ele>1667.54</ele>
        <time>2014-08-14T08:34:03Z</time>
      </trkpt>
      <trkpt lat="45.67286" lon="6.627">
        <ele>1667.54</ele>
        <time>2014-08-14T08:34:04Z</time>
      </trkpt>
      <trkpt lat="45.67289" lon="6.62705">
        <ele>1667.54</ele>
        <time>2014-08-14T08:34:05Z</time>
      </trkpt>
      <trkpt lat="45.67293" lon="6.62709">
        <ele>1667.06</ele>
        <time>2014-08-14T08:34:06Z</time>
      </trkpt>
      <trkpt lat="45.67298" lon="6.62711">
        <ele>1667.06</ele>
        <time>2014-08-14T08:34:07Z</time>
      </trkpt>
      <trkpt lat="45.67303" lon="6.62712">
        <ele>1666.58</ele>
        <time>2014-08-14T08:34:08Z</time>
      </trkpt>
      <trkpt lat="45.67308" lon="6.62712">
        <ele>1666.58</ele>
        <time>2014-08-14T08:34:09Z</time>
      </trkpt>
      <trkpt lat="45.67313" lon="6.62713">
        <ele>1666.58</ele>
        <time>2014-08-14T08:34:10Z</time>
      </trkpt>
      <trkpt lat="45.67318" lon="6.62715">
        <ele>1666.1</ele>
        <time>2014-08-14T08:34:11Z</time>
      </trkpt>
      <trkpt lat="45.67337" lon="6.62727">
        <ele>1665.62</ele>
        <time>2014-08-14T08:34:15Z</time>
      </trkpt>
      <trkpt lat="45.6735" lon="6.62738">
        <ele>1665.14</ele>
        <time>2014-08-14T08:34:18Z</time>
      </trkpt>
      <trkpt lat="45.67354" lon="6.6274">
        <ele>1665.14</ele>
        <time>2014-08-14T08:34:19Z</time>
      </trkpt>
      <trkpt lat="45.67391" lon="6.62747">
        <ele>1667.06</ele>
        <time>2014-08-14T08:34:30Z</time>
      </trkpt>
      <trkpt lat="45.67418" lon="6.62762">
        <ele>1669.95</ele>
        <time>2014-08-14T08:34:45Z</time>
      </trkpt>
      <trkpt lat="45.67433" lon="6.6279">
        <ele>1673.31</ele>
        <time>2014-08-14T08:35:00Z</time>
      </trkpt>
      <trkpt lat="45.67433" lon="6.62795">
        <ele>1673.31</ele>
        <time>2014-08-14T08:35:02Z</time>
      </trkpt>
      <trkpt lat="45.67433" lon="6.62797">
        <ele>1674.27</ele>
        <time>2014-08-14T08:35:03Z</time>
      </trkpt>
      <trkpt lat="45.67433" lon="6.62799">
        <ele>1674.27</ele>
        <time>2014-08-14T08:35:04Z</time>
      </trkpt>
      <trkpt lat="45.67433" lon="6.62802">
        <ele>1674.27</ele>
        <time>2014-08-14T08:35:05Z</time>
      </trkpt>
      <trkpt lat="45.67433" lon="6.62804">
        <ele>1674.27</ele>
        <time>2014-08-14T08:35:06Z</time>
      </trkpt>
      <trkpt lat="45.67432" lon="6.62807">
        <ele>1674.75</ele>
        <time>2014-08-14T08:35:07Z</time>
      </trkpt>
      <trkpt lat="45.67432" lon="6.62809">
        <ele>1674.75</ele>
        <time>2014-08-14T08:35:08Z</time>
      </trkpt>
      <trkpt lat="45.67431" lon="6.62811">
        <ele>1675.23</ele>
        <time>2014-08-14T08:35:09Z</time>
      </trkpt>
      <trkpt lat="45.6743" lon="6.62813">
        <ele>1675.23</ele>
        <time>2014-08-14T08:35:10Z</time>
      </trkpt>
      <trkpt lat="45.67414" lon="6.62835">
        <ele>1678.6</ele>
        <time>2014-08-14T08:35:24Z</time>
      </trkpt>
      <trkpt lat="45.67398" lon="6.62859">
        <ele>1681.48</ele>
        <time>2014-08-14T08:35:39Z</time>
      </trkpt>
      <trkpt lat="45.67384" lon="6.62895">
        <ele>1684.37</ele>
        <time>2014-08-14T08:35:55Z</time>
      </trkpt>
      <trkpt lat="45.67381" lon="6.62937">
        <ele>1685.81</ele>
        <time>2014-08-14T08:36:09Z</time>
      </trkpt>
      <trkpt lat="45.67384" lon="6.62938">
        <ele>1685.81</ele>
        <time>2014-08-14T08:36:10Z</time>
      </trkpt>
      <trkpt lat="45.67387" lon="6.62939">
        <ele>1685.81</ele>
        <time>2014-08-14T08:36:11Z</time>
      </trkpt>
      <trkpt lat="45.6739" lon="6.62937">
        <ele>1685.81</ele>
        <time>2014-08-14T08:36:12Z</time>
      </trkpt>
      <trkpt lat="45.67392" lon="6.62936">
        <ele>1685.81</ele>
        <time>2014-08-14T08:36:13Z</time>
      </trkpt>
      <trkpt lat="45.67394" lon="6.62934">
        <ele>1685.81</ele>
        <time>2014-08-14T08:36:14Z</time>
      </trkpt>
      <trkpt lat="45.67415" lon="6.62912">
        <ele>1689.17</ele>
        <time>2014-08-14T08:36:28Z</time>
      </trkpt>
      <trkpt lat="45.67418" lon="6.62911">
        <ele>1689.65</ele>
        <time>2014-08-14T08:36:30Z</time>
      </trkpt>
      <trkpt lat="45.6742" lon="6.62912">
        <ele>1690.14</ele>
        <time>2014-08-14T08:36:31Z</time>
      </trkpt>
      <trkpt lat="45.67421" lon="6.62913">
        <ele>1690.62</ele>
        <time>2014-08-14T08:36:32Z</time>
      </trkpt>
      <trkpt lat="45.67422" lon="6.62915">
        <ele>1690.62</ele>
        <time>2014-08-14T08:36:33Z</time>
      </trkpt>
      <trkpt lat="45.67423" lon="6.62918">
        <ele>1690.62</ele>
        <time>2014-08-14T08:36:34Z</time>
      </trkpt>
      <trkpt lat="45.67423" lon="6.6292">
        <ele>1691.1</ele>
        <time>2014-08-14T08:36:35Z</time>
      </trkpt>
      <trkpt lat="45.67423" lon="6.62923">
        <ele>1690.62</ele>
        <time>2014-08-14T08:36:36Z</time>
      </trkpt>
      <trkpt lat="45.67423" lon="6.62925">
        <ele>1690.62</ele>
        <time>2014-08-14T08:36:37Z</time>
      </trkpt>
      <trkpt lat="45.67423" lon="6.62928">
        <ele>1691.1</ele>
        <time>2014-08-14T08:36:38Z</time>
      </trkpt>
      <trkpt lat="45.67423" lon="6.6293">
        <ele>1691.1</ele>
        <time>2014-08-14T08:36:39Z</time>
      </trkpt>
      <trkpt lat="45.67433" lon="6.62955">
        <ele>1693.02</ele>
        <time>2014-08-14T08:36:51Z</time>
      </trkpt>
      <trkpt lat="45.67454" lon="6.62974">
        <ele>1696.38</ele>
        <time>2014-08-14T08:37:06Z</time>
      </trkpt>
      <trkpt lat="45.67472" lon="6.63005">
        <ele>1698.79</ele>
        <time>2014-08-14T08:37:23Z</time>
      </trkpt>
      <trkpt lat="45.67491" lon="6.63021">
        <ele>1702.15</ele>
        <time>2014-08-14T08:37:37Z</time>
      </trkpt>
      <trkpt lat="45.67512" lon="6.63039">
        <ele>1705.52</ele>
        <time>2014-08-14T08:37:52Z</time>
      </trkpt>
      <trkpt lat="45.67527" lon="6.63056">
        <ele>1708.4</ele>
        <time>2014-08-14T08:38:04Z</time>
      </trkpt>
      <trkpt lat="45.6754" lon="6.63085">
        <ele>1710.32</ele>
        <time>2014-08-14T08:38:19Z</time>
      </trkpt>
      <trkpt lat="45.67563" lon="6.63085">
        <ele>1713.69</ele>
        <time>2014-08-14T08:38:33Z</time>
      </trkpt>
      <trkpt lat="45.6759" lon="6.63089">
        <ele>1716.09</ele>
        <time>2014-08-14T08:38:50Z</time>
      </trkpt>
      <trkpt lat="45.67593" lon="6.63103">
        <ele>1717.53</ele>
        <time>2014-08-14T08:38:56Z</time>
      </trkpt>
      <trkpt lat="45.67573" lon="6.63119">
        <ele>1719.46</ele>
        <time>2014-08-14T08:39:11Z</time>
      </trkpt>
      <trkpt lat="45.67551" lon="6.63127">
        <ele>1722.82</ele>
        <time>2014-08-14T08:39:25Z</time>
      </trkpt>
      <trkpt lat="45.67533" lon="6.63142">
        <ele>1725.22</ele>
        <time>2014-08-14T08:39:39Z</time>
      </trkpt>
      <trkpt lat="45.67513" lon="6.6316">
        <ele>1729.07</ele>
        <time>2014-08-14T08:39:55Z</time>
      </trkpt>
      <trkpt lat="45.67505" lon="6.63169">
        <ele>1730.03</ele>
        <time>2014-08-14T08:40:01Z</time>
      </trkpt>
      <trkpt lat="45.67487" lon="6.63188">
        <ele>1732.43</ele>
        <time>2014-08-14T08:40:15Z</time>
      </trkpt>
      <trkpt lat="45.67462" lon="6.63213">
        <ele>1735.8</ele>
        <time>2014-08-14T08:40:34Z</time>
      </trkpt>
      <trkpt lat="45.67444" lon="6.63227">
        <ele>1738.68</ele>
        <time>2014-08-14T08:40:48Z</time>
      </trkpt>
      <trkpt lat="45.67422" lon="6.63242">
        <ele>1742.05</ele>
        <time>2014-08-14T08:41:04Z</time>
      </trkpt>
      <trkpt lat="45.67403" lon="6.63252">
        <ele>1745.41</ele>
        <time>2014-08-14T08:41:17Z</time>
      </trkpt>
      <trkpt lat="45.67388" lon="6.63263">
        <ele>1748.29</ele>
        <time>2014-08-14T08:41:27Z</time>
      </trkpt>
      <trkpt lat="45.67365" lon="6.63274">
        <ele>1751.66</ele>
        <time>2014-08-14T08:41:42Z</time>
      </trkpt>
      <trkpt lat="45.67342" lon="6.63265">
        <ele>1754.54</ele>
        <time>2014-08-14T08:41:57Z</time>
      </trkpt>
      <trkpt lat="45.67338" lon="6.63264">
        <ele>1754.54</ele>
        <time>2014-08-14T08:42:07Z</time>
      </trkpt>
      <trkpt lat="45.67335" lon="6.63263">
        <ele>1754.54</ele>
        <time>2014-08-14T08:42:36Z</time>
      </trkpt>
      <trkpt lat="45.67336" lon="6.63264">
        <ele>1754.54</ele>
        <time>2014-08-14T08:43:09Z</time>
      </trkpt>
      <trkpt lat="45.67336" lon="6.63262">
        <ele>1754.54</ele>
        <time>2014-08-14T08:43:38Z</time>
      </trkpt>
      <trkpt lat="45.67335" lon="6.63261">
        <ele>1753.58</ele>
        <time>2014-08-14T08:44:17Z</time>
      </trkpt>
      <trkpt lat="45.67336" lon="6.63262">
        <ele>1753.58</ele>
        <time>2014-08-14T08:44:45Z</time>
      </trkpt>
      <trkpt lat="45.67338" lon="6.63262">
        <ele>1753.58</ele>
        <time>2014-08-14T08:45:17Z</time>
      </trkpt>
      <trkpt lat="45.67339" lon="6.63263">
        <ele>1753.58</ele>
        <time>2014-08-14T08:45:27Z</time>
      </trkpt>
      <trkpt lat="45.67338" lon="6.63271">
        <ele>1755.02</ele>
        <time>2014-08-14T08:45:35Z</time>
      </trkpt>
      <trkpt lat="45.67339" lon="6.63273">
        <ele>1755.02</ele>
        <time>2014-08-14T08:45:37Z</time>
      </trkpt>
      <trkpt lat="45.6734" lon="6.63275">
        <ele>1755.5</ele>
        <time>2014-08-14T08:45:38Z</time>
      </trkpt>
      <trkpt lat="45.6734" lon="6.63276">
        <ele>1755.5</ele>
        <time>2014-08-14T08:45:39Z</time>
      </trkpt>
      <trkpt lat="45.67341" lon="6.63277">
        <ele>1755.5</ele>
        <time>2014-08-14T08:45:40Z</time>
      </trkpt>
      <trkpt lat="45.67341" lon="6.63279">
        <ele>1755.99</ele>
        <time>2014-08-14T08:45:41Z</time>
      </trkpt>
      <trkpt lat="45.67341" lon="6.63281">
        <ele>1755.99</ele>
        <time>2014-08-14T08:45:42Z</time>
      </trkpt>
      <trkpt lat="45.67342" lon="6.63283">
        <ele>1756.47</ele>
        <time>2014-08-14T08:45:43Z</time>
      </trkpt>
      <trkpt lat="45.67356" lon="6.63311">
        <ele>1759.35</ele>
        <time>2014-08-14T08:45:57Z</time>
      </trkpt>
      <trkpt lat="45.67382" lon="6.63315">
        <ele>1763.2</ele>
        <time>2014-08-14T08:46:13Z</time>
      </trkpt>
      <trkpt lat="45.67409" lon="6.63314">
        <ele>1765.6</ele>
        <time>2014-08-14T08:46:28Z</time>
      </trkpt>
      <trkpt lat="45.67436" lon="6.63312">
        <ele>1768.96</ele>
        <time>2014-08-14T08:46:43Z</time>
      </trkpt>
      <trkpt lat="45.6746" lon="6.63324">
        <ele>1772.33</ele>
        <time>2014-08-14T08:46:58Z</time>
      </trkpt>
      <trkpt lat="45.6749" lon="6.63338">
        <ele>1775.69</ele>
        <time>2014-08-14T08:47:16Z</time>
      </trkpt>
      <trkpt lat="45.67516" lon="6.6336">
        <ele>1778.58</ele>
        <time>2014-08-14T08:47:33Z</time>
      </trkpt>
      <trkpt lat="45.67538" lon="6.63373">
        <ele>1781.94</ele>
        <time>2014-08-14T08:47:47Z</time>
      </trkpt>
      <trkpt lat="45.67559" lon="6.63389">
        <ele>1785.31</ele>
        <time>2014-08-14T08:48:02Z</time>
      </trkpt>
      <trkpt lat="45.6756" lon="6.63394">
        <ele>1785.31</ele>
        <time>2014-08-14T08:48:04Z</time>
      </trkpt>
      <trkpt lat="45.67559" lon="6.63396">
        <ele>1785.31</ele>
        <time>2014-08-14T08:48:05Z</time>
      </trkpt>
      <trkpt lat="45.67559" lon="6.63426">
        <ele>1788.19</ele>
        <time>2014-08-14T08:48:18Z</time>
      </trkpt>
      <trkpt lat="45.67581" lon="6.63454">
        <ele>1791.55</ele>
        <time>2014-08-14T08:48:35Z</time>
      </trkpt>
      <trkpt lat="45.67595" lon="6.63458">
        <ele>1793</ele>
        <time>2014-08-14T08:48:43Z</time>
      </trkpt>
      <trkpt lat="45.67596" lon="6.63459">
        <ele>1793</ele>
        <time>2014-08-14T08:48:44Z</time>
      </trkpt>
      <trkpt lat="45.67597" lon="6.63461">
        <ele>1793</ele>
        <time>2014-08-14T08:48:45Z</time>
      </trkpt>
      <trkpt lat="45.67597" lon="6.63464">
        <ele>1793</ele>
        <time>2014-08-14T08:48:46Z</time>
      </trkpt>
      <trkpt lat="45.67597" lon="6.63466">
        <ele>1793</ele>
        <time>2014-08-14T08:48:47Z</time>
      </trkpt>
      <trkpt lat="45.67596" lon="6.63468">
        <ele>1793.48</ele>
        <time>2014-08-14T08:48:48Z</time>
      </trkpt>
      <trkpt lat="45.67595" lon="6.63469">
        <ele>1793.48</ele>
        <time>2014-08-14T08:48:49Z</time>
      </trkpt>
      <trkpt lat="45.67593" lon="6.63471">
        <ele>1793.48</ele>
        <time>2014-08-14T08:48:50Z</time>
      </trkpt>
      <trkpt lat="45.67591" lon="6.63471">
        <ele>1793.48</ele>
        <time>2014-08-14T08:48:51Z</time>
      </trkpt>
      <trkpt lat="45.6759" lon="6.63471">
        <ele>1793.96</ele>
        <time>2014-08-14T08:48:52Z</time>
      </trkpt>
      <trkpt lat="45.67588" lon="6.63471">
        <ele>1793.96</ele>
        <time>2014-08-14T08:48:53Z</time>
      </trkpt>
      <trkpt lat="45.67587" lon="6.6347">
        <ele>1794.44</ele>
        <time>2014-08-14T08:48:54Z</time>
      </trkpt>
      <trkpt lat="45.67585" lon="6.6347">
        <ele>1794.44</ele>
        <time>2014-08-14T08:48:55Z</time>
      </trkpt>
      <trkpt lat="45.67557" lon="6.63465">
        <ele>1797.32</ele>
        <time>2014-08-14T08:49:11Z</time>
      </trkpt>
      <trkpt lat="45.67528" lon="6.63464">
        <ele>1799.73</ele>
        <time>2014-08-14T08:49:27Z</time>
      </trkpt>
      <trkpt lat="45.67494" lon="6.63459">
        <ele>1802.13</ele>
        <time>2014-08-14T08:49:46Z</time>
      </trkpt>
      <trkpt lat="45.67465" lon="6.63474">
        <ele>1804.05</ele>
        <time>2014-08-14T08:50:03Z</time>
      </trkpt>
      <trkpt lat="45.67436" lon="6.63487">
        <ele>1805.97</ele>
        <time>2014-08-14T08:50:16Z</time>
      </trkpt>
      <trkpt lat="45.67405" lon="6.63474">
        <ele>1807.9</ele>
        <time>2014-08-14T08:50:29Z</time>
      </trkpt>
      <trkpt lat="45.67373" lon="6.63491">
        <ele>1808.86</ele>
        <time>2014-08-14T08:50:42Z</time>
      </trkpt>
      <trkpt lat="45.67368" lon="6.63498">
        <ele>1807.42</ele>
        <time>2014-08-14T08:50:44Z</time>
      </trkpt>
      <trkpt lat="45.67365" lon="6.63504">
        <ele>1807.42</ele>
        <time>2014-08-14T08:50:45Z</time>
      </trkpt>
      <trkpt lat="45.67362" lon="6.63515">
        <ele>1806.94</ele>
        <time>2014-08-14T08:50:47Z</time>
      </trkpt>
      <trkpt lat="45.67361" lon="6.63522">
        <ele>1805.97</ele>
        <time>2014-08-14T08:50:48Z</time>
      </trkpt>
      <trkpt lat="45.67361" lon="6.63527">
        <ele>1805.49</ele>
        <time>2014-08-14T08:50:49Z</time>
      </trkpt>
      <trkpt lat="45.67359" lon="6.63532">
        <ele>1805.49</ele>
        <time>2014-08-14T08:50:50Z</time>
      </trkpt>
      <trkpt lat="45.67356" lon="6.63536">
        <ele>1805.01</ele>
        <time>2014-08-14T08:50:51Z</time>
      </trkpt>
      <trkpt lat="45.67354" lon="6.63537">
        <ele>1805.01</ele>
        <time>2014-08-14T08:50:52Z</time>
      </trkpt>
      <trkpt lat="45.67352" lon="6.63538">
        <ele>1805.01</ele>
        <time>2014-08-14T08:50:53Z</time>
      </trkpt>
      <trkpt lat="45.67349" lon="6.63538">
        <ele>1805.01</ele>
        <time>2014-08-14T08:50:54Z</time>
      </trkpt>
      <trkpt lat="45.67347" lon="6.63538">
        <ele>1805.01</ele>
        <time>2014-08-14T08:50:55Z</time>
      </trkpt>
      <trkpt lat="45.67344" lon="6.63538">
        <ele>1805.01</ele>
        <time>2014-08-14T08:50:56Z</time>
      </trkpt>
      <trkpt lat="45.67343" lon="6.63538">
        <ele>1805.01</ele>
        <time>2014-08-14T08:50:57Z</time>
      </trkpt>
      <trkpt lat="45.67341" lon="6.63538">
        <ele>1806.45</ele>
        <time>2014-08-14T08:50:58Z</time>
      </trkpt>
      <trkpt lat="45.67335" lon="6.63539">
        <ele>1806.94</ele>
        <time>2014-08-14T08:51:01Z</time>
      </trkpt>
      <trkpt lat="45.67333" lon="6.63539">
        <ele>1806.94</ele>
        <time>2014-08-14T08:51:02Z</time>
      </trkpt>
      <trkpt lat="45.67332" lon="6.6354">
        <ele>1807.42</ele>
        <time>2014-08-14T08:51:03Z</time>
      </trkpt>
      <trkpt lat="45.6733" lon="6.63541">
        <ele>1807.42</ele>
        <time>2014-08-14T08:51:04Z</time>
      </trkpt>
      <trkpt lat="45.67328" lon="6.63543">
        <ele>1807.42</ele>
        <time>2014-08-14T08:51:05Z</time>
      </trkpt>
      <trkpt lat="45.67327" lon="6.63545">
        <ele>1807.42</ele>
        <time>2014-08-14T08:51:06Z</time>
      </trkpt>
      <trkpt lat="45.67326" lon="6.63547">
        <ele>1807.9</ele>
        <time>2014-08-14T08:51:07Z</time>
      </trkpt>
      <trkpt lat="45.67324" lon="6.63549">
        <ele>1807.9</ele>
        <time>2014-08-14T08:51:08Z</time>
      </trkpt>
      <trkpt lat="45.67299" lon="6.63571">
        <ele>1811.26</ele>
        <time>2014-08-14T08:51:24Z</time>
      </trkpt>
      <trkpt lat="45.67273" lon="6.63605">
        <ele>1813.66</ele>
        <time>2014-08-14T08:51:43Z</time>
      </trkpt>
      <trkpt lat="45.67246" lon="6.63607">
        <ele>1814.15</ele>
        <time>2014-08-14T08:51:55Z</time>
      </trkpt>
      <trkpt lat="45.67228" lon="6.63573">
        <ele>1815.11</ele>
        <time>2014-08-14T08:52:06Z</time>
      </trkpt>
      <trkpt lat="45.67219" lon="6.63537">
        <ele>1817.51</ele>
        <time>2014-08-14T08:52:20Z</time>
      </trkpt>
      <trkpt lat="45.67207" lon="6.63511">
        <ele>1820.39</ele>
        <time>2014-08-14T08:52:33Z</time>
      </trkpt>
      <trkpt lat="45.67198" lon="6.63476">
        <ele>1822.8</ele>
        <time>2014-08-14T08:52:47Z</time>
      </trkpt>
      <trkpt lat="45.67204" lon="6.63443">
        <ele>1825.2</ele>
        <time>2014-08-14T08:53:00Z</time>
      </trkpt>
      <trkpt lat="45.67192" lon="6.63418">
        <ele>1827.6</ele>
        <time>2014-08-14T08:53:14Z</time>
      </trkpt>
      <trkpt lat="45.67162" lon="6.63397">
        <ele>1830.49</ele>
        <time>2014-08-14T08:53:34Z</time>
      </trkpt>
      <trkpt lat="45.6714" lon="6.6337">
        <ele>1833.85</ele>
        <time>2014-08-14T08:53:52Z</time>
      </trkpt>
      <trkpt lat="45.67138" lon="6.63369">
        <ele>1833.85</ele>
        <time>2014-08-14T08:53:53Z</time>
      </trkpt>
      <trkpt lat="45.67137" lon="6.63368">
        <ele>1833.85</ele>
        <time>2014-08-14T08:53:54Z</time>
      </trkpt>
      <trkpt lat="45.67135" lon="6.63367">
        <ele>1834.33</ele>
        <time>2014-08-14T08:53:55Z</time>
      </trkpt>
      <trkpt lat="45.6711" lon="6.63346">
        <ele>1836.26</ele>
        <time>2014-08-14T08:54:13Z</time>
      </trkpt>
      <trkpt lat="45.67101" lon="6.63335">
        <ele>1837.22</ele>
        <time>2014-08-14T08:54:21Z</time>
      </trkpt>
      <trkpt lat="45.671" lon="6.63334">
        <ele>1837.7</ele>
        <time>2014-08-14T08:54:22Z</time>
      </trkpt>
      <trkpt lat="45.67099" lon="6.63333">
        <ele>1837.7</ele>
        <time>2014-08-14T08:54:23Z</time>
      </trkpt>
      <trkpt lat="45.67099" lon="6.63331">
        <ele>1837.7</ele>
        <time>2014-08-14T08:54:24Z</time>
      </trkpt>
      <trkpt lat="45.67098" lon="6.63329">
        <ele>1837.7</ele>
        <time>2014-08-14T08:54:25Z</time>
      </trkpt>
      <trkpt lat="45.67097" lon="6.63327">
        <ele>1838.18</ele>
        <time>2014-08-14T08:54:26Z</time>
      </trkpt>
      <trkpt lat="45.67096" lon="6.63326">
        <ele>1838.18</ele>
        <time>2014-08-14T08:54:27Z</time>
      </trkpt>
      <trkpt lat="45.67095" lon="6.63323">
        <ele>1838.66</ele>
        <time>2014-08-14T08:54:28Z</time>
      </trkpt>
      <trkpt lat="45.67085" lon="6.6329">
        <ele>1841.54</ele>
        <time>2014-08-14T08:54:46Z</time>
      </trkpt>
      <trkpt lat="45.67078" lon="6.63273">
        <ele>1842.98</ele>
        <time>2014-08-14T08:54:55Z</time>
      </trkpt>
      <trkpt lat="45.67076" lon="6.63272">
        <ele>1843.47</ele>
        <time>2014-08-14T08:54:56Z</time>
      </trkpt>
      <trkpt lat="45.67075" lon="6.6327">
        <ele>1843.47</ele>
        <time>2014-08-14T08:54:57Z</time>
      </trkpt>
      <trkpt lat="45.67074" lon="6.63269">
        <ele>1843.47</ele>
        <time>2014-08-14T08:54:58Z</time>
      </trkpt>
      <trkpt lat="45.67073" lon="6.63267">
        <ele>1843.47</ele>
        <time>2014-08-14T08:54:59Z</time>
      </trkpt>
      <trkpt lat="45.67072" lon="6.63266">
        <ele>1844.43</ele>
        <time>2014-08-14T08:55:00Z</time>
      </trkpt>
      <trkpt lat="45.6707" lon="6.63264">
        <ele>1844.43</ele>
        <time>2014-08-14T08:55:01Z</time>
      </trkpt>
      <trkpt lat="45.67069" lon="6.63262">
        <ele>1844.43</ele>
        <time>2014-08-14T08:55:02Z</time>
      </trkpt>
      <trkpt lat="45.67054" lon="6.63241">
        <ele>1847.31</ele>
        <time>2014-08-14T08:55:16Z</time>
      </trkpt>
      <trkpt lat="45.67037" lon="6.63222">
        <ele>1849.23</ele>
        <time>2014-08-14T08:55:30Z</time>
      </trkpt>
      <trkpt lat="45.67016" lon="6.63206">
        <ele>1851.64</ele>
        <time>2014-08-14T08:55:46Z</time>
      </trkpt>
      <trkpt lat="45.66992" lon="6.63196">
        <ele>1854.04</ele>
        <time>2014-08-14T08:56:03Z</time>
      </trkpt>
      <trkpt lat="45.66969" lon="6.63194">
        <ele>1856.92</ele>
        <time>2014-08-14T08:56:19Z</time>
      </trkpt>
      <trkpt lat="45.66949" lon="6.63196">
        <ele>1858.85</ele>
        <time>2014-08-14T08:56:33Z</time>
      </trkpt>
      <trkpt lat="45.6693" lon="6.63196">
        <ele>1860.77</ele>
        <time>2014-08-14T08:56:47Z</time>
      </trkpt>
      <trkpt lat="45.66908" lon="6.63194">
        <ele>1863.17</ele>
        <time>2014-08-14T08:57:03Z</time>
      </trkpt>
      <trkpt lat="45.66883" lon="6.63196">
        <ele>1865.58</ele>
        <time>2014-08-14T08:57:20Z</time>
      </trkpt>
      <trkpt lat="45.66861" lon="6.63192">
        <ele>1868.46</ele>
        <time>2014-08-14T08:57:36Z</time>
      </trkpt>
      <trkpt lat="45.66842" lon="6.63194">
        <ele>1869.9</ele>
        <time>2014-08-14T08:57:51Z</time>
      </trkpt>
      <trkpt lat="45.66824" lon="6.63203">
        <ele>1872.3</ele>
        <time>2014-08-14T08:58:06Z</time>
      </trkpt>
      <trkpt lat="45.66808" lon="6.6321">
        <ele>1873.75</ele>
        <time>2014-08-14T08:58:21Z</time>
      </trkpt>
      <trkpt lat="45.66806" lon="6.6321">
        <ele>1873.75</ele>
        <time>2014-08-14T08:58:23Z</time>
      </trkpt>
      <trkpt lat="45.66783" lon="6.63222">
        <ele>1876.15</ele>
        <time>2014-08-14T08:58:42Z</time>
      </trkpt>
      <trkpt lat="45.66763" lon="6.63236">
        <ele>1878.07</ele>
        <time>2014-08-14T08:58:59Z</time>
      </trkpt>
      <trkpt lat="45.66758" lon="6.63239">
        <ele>1879.03</ele>
        <time>2014-08-14T08:59:04Z</time>
      </trkpt>
      <trkpt lat="45.66753" lon="6.6324">
        <ele>1879.51</ele>
        <time>2014-08-14T08:59:20Z</time>
      </trkpt>
      <trkpt lat="45.66752" lon="6.63244">
        <ele>1879.51</ele>
        <time>2014-08-14T08:59:45Z</time>
      </trkpt>
      <trkpt lat="45.66751" lon="6.63245">
        <ele>1879.51</ele>
        <time>2014-08-14T08:59:48Z</time>
      </trkpt>
      <trkpt lat="45.6675" lon="6.63246">
        <ele>1880</ele>
        <time>2014-08-14T08:59:49Z</time>
      </trkpt>
      <trkpt lat="45.66748" lon="6.63247">
        <ele>1880</ele>
        <time>2014-08-14T08:59:50Z</time>
      </trkpt>
      <trkpt lat="45.66747" lon="6.63248">
        <ele>1880</ele>
        <time>2014-08-14T08:59:51Z</time>
      </trkpt>
      <trkpt lat="45.66745" lon="6.63248">
        <ele>1880</ele>
        <time>2014-08-14T08:59:52Z</time>
      </trkpt>
      <trkpt lat="45.66743" lon="6.63249">
        <ele>1880.48</ele>
        <time>2014-08-14T08:59:53Z</time>
      </trkpt>
      <trkpt lat="45.6672" lon="6.63258">
        <ele>1883.36</ele>
        <time>2014-08-14T09:00:06Z</time>
      </trkpt>
      <trkpt lat="45.66694" lon="6.63271">
        <ele>1886.72</ele>
        <time>2014-08-14T09:00:21Z</time>
      </trkpt>
      <trkpt lat="45.66673" lon="6.6329">
        <ele>1889.61</ele>
        <time>2014-08-14T09:00:36Z</time>
      </trkpt>
      <trkpt lat="45.66646" lon="6.6331">
        <ele>1892.49</ele>
        <time>2014-08-14T09:00:54Z</time>
      </trkpt>
      <trkpt lat="45.66633" lon="6.63338">
        <ele>1895.38</ele>
        <time>2014-08-14T09:01:11Z</time>
      </trkpt>
      <trkpt lat="45.66625" lon="6.6337">
        <ele>1898.74</ele>
        <time>2014-08-14T09:01:28Z</time>
      </trkpt>
      <trkpt lat="45.66624" lon="6.63398">
        <ele>1901.14</ele>
        <time>2014-08-14T09:01:43Z</time>
      </trkpt>
      <trkpt lat="45.6662" lon="6.63424">
        <ele>1903.07</ele>
        <time>2014-08-14T09:01:57Z</time>
      </trkpt>
      <trkpt lat="45.6662" lon="6.63426">
        <ele>1903.07</ele>
        <time>2014-08-14T09:01:58Z</time>
      </trkpt>
      <trkpt lat="45.66619" lon="6.63428">
        <ele>1903.55</ele>
        <time>2014-08-14T09:01:59Z</time>
      </trkpt>
      <trkpt lat="45.66619" lon="6.6343">
        <ele>1903.55</ele>
        <time>2014-08-14T09:02:00Z</time>
      </trkpt>
      <trkpt lat="45.66619" lon="6.63431">
        <ele>1903.55</ele>
        <time>2014-08-14T09:02:01Z</time>
      </trkpt>
      <trkpt lat="45.66619" lon="6.63433">
        <ele>1903.55</ele>
        <time>2014-08-14T09:02:02Z</time>
      </trkpt>
      <trkpt lat="45.66617" lon="6.63447">
        <ele>1904.99</ele>
        <time>2014-08-14T09:02:15Z</time>
      </trkpt>
      <trkpt lat="45.66618" lon="6.63468">
        <ele>1906.91</ele>
        <time>2014-08-14T09:02:28Z</time>
      </trkpt>
      <trkpt lat="45.66618" lon="6.63469">
        <ele>1907.39</ele>
        <time>2014-08-14T09:02:29Z</time>
      </trkpt>
      <trkpt lat="45.6662" lon="6.63471">
        <ele>1907.39</ele>
        <time>2014-08-14T09:02:31Z</time>
      </trkpt>
      <trkpt lat="45.66621" lon="6.63473">
        <ele>1907.39</ele>
        <time>2014-08-14T09:02:33Z</time>
      </trkpt>
      <trkpt lat="45.66627" lon="6.63497">
        <ele>1909.8</ele>
        <time>2014-08-14T09:02:49Z</time>
      </trkpt>
      <trkpt lat="45.6663" lon="6.63524">
        <ele>1913.16</ele>
        <time>2014-08-14T09:03:06Z</time>
      </trkpt>
      <trkpt lat="45.66637" lon="6.63545">
        <ele>1915.08</ele>
        <time>2014-08-14T09:03:20Z</time>
      </trkpt>
      <trkpt lat="45.66639" lon="6.63545">
        <ele>1915.08</ele>
        <time>2014-08-14T09:03:21Z</time>
      </trkpt>
      <trkpt lat="45.6664" lon="6.63544">
        <ele>1915.56</ele>
        <time>2014-08-14T09:03:23Z</time>
      </trkpt>
      <trkpt lat="45.66641" lon="6.63543">
        <ele>1915.56</ele>
        <time>2014-08-14T09:03:24Z</time>
      </trkpt>
      <trkpt lat="45.66641" lon="6.63542">
        <ele>1915.56</ele>
        <time>2014-08-14T09:03:25Z</time>
      </trkpt>
      <trkpt lat="45.66642" lon="6.63538">
        <ele>1916.04</ele>
        <time>2014-08-14T09:03:33Z</time>
      </trkpt>
      <trkpt lat="45.66641" lon="6.63508">
        <ele>1917.97</ele>
        <time>2014-08-14T09:03:48Z</time>
      </trkpt>
      <trkpt lat="45.66642" lon="6.63502">
        <ele>1918.93</ele>
        <time>2014-08-14T09:03:52Z</time>
      </trkpt>
      <trkpt lat="45.66647" lon="6.63478">
        <ele>1921.33</ele>
        <time>2014-08-14T09:04:04Z</time>
      </trkpt>
      <trkpt lat="45.66668" lon="6.63464">
        <ele>1924.22</ele>
        <time>2014-08-14T09:04:21Z</time>
      </trkpt>
      <trkpt lat="45.6669" lon="6.63461">
        <ele>1927.1</ele>
        <time>2014-08-14T09:04:38Z</time>
      </trkpt>
      <trkpt lat="45.66709" lon="6.6346">
        <ele>1929.98</ele>
        <time>2014-08-14T09:04:53Z</time>
      </trkpt>
      <trkpt lat="45.66726" lon="6.63459">
        <ele>1932.87</ele>
        <time>2014-08-14T09:05:06Z</time>
      </trkpt>
      <trkpt lat="45.66747" lon="6.6346">
        <ele>1935.75</ele>
        <time>2014-08-14T09:05:21Z</time>
      </trkpt>
      <trkpt lat="45.66767" lon="6.63462">
        <ele>1939.12</ele>
        <time>2014-08-14T09:05:35Z</time>
      </trkpt>
      <trkpt lat="45.66786" lon="6.63472">
        <ele>1941.04</ele>
        <time>2014-08-14T09:05:49Z</time>
      </trkpt>
      <trkpt lat="45.66789" lon="6.63474">
        <ele>1941.52</ele>
        <time>2014-08-14T09:05:52Z</time>
      </trkpt>
      <trkpt lat="45.6679" lon="6.63474">
        <ele>1941.52</ele>
        <time>2014-08-14T09:05:53Z</time>
      </trkpt>
      <trkpt lat="45.66791" lon="6.63475">
        <ele>1942</ele>
        <time>2014-08-14T09:05:54Z</time>
      </trkpt>
      <trkpt lat="45.66793" lon="6.63476">
        <ele>1941.52</ele>
        <time>2014-08-14T09:05:55Z</time>
      </trkpt>
      <trkpt lat="45.66794" lon="6.63476">
        <ele>1942.48</ele>
        <time>2014-08-14T09:05:56Z</time>
      </trkpt>
      <trkpt lat="45.66795" lon="6.63476">
        <ele>1942.48</ele>
        <time>2014-08-14T09:05:57Z</time>
      </trkpt>
      <trkpt lat="45.66812" lon="6.63479">
        <ele>1944.4</ele>
        <time>2014-08-14T09:06:09Z</time>
      </trkpt>
      <trkpt lat="45.66833" lon="6.63482">
        <ele>1946.81</ele>
        <time>2014-08-14T09:06:23Z</time>
      </trkpt>
      <trkpt lat="45.66853" lon="6.63486">
        <ele>1949.21</ele>
        <time>2014-08-14T09:06:37Z</time>
      </trkpt>
      <trkpt lat="45.66872" lon="6.6349">
        <ele>1952.09</ele>
        <time>2014-08-14T09:06:50Z</time>
      </trkpt>
      <trkpt lat="45.66891" lon="6.63499">
        <ele>1954.5</ele>
        <time>2014-08-14T09:07:04Z</time>
      </trkpt>
      <trkpt lat="45.66908" lon="6.63516">
        <ele>1956.42</ele>
        <time>2014-08-14T09:07:19Z</time>
      </trkpt>
      <trkpt lat="45.66909" lon="6.63516">
        <ele>1956.42</ele>
        <time>2014-08-14T09:07:45Z</time>
      </trkpt>
      <trkpt lat="45.6691" lon="6.63515">
        <ele>1956.42</ele>
        <time>2014-08-14T09:08:07Z</time>
      </trkpt>
      <trkpt lat="45.66909" lon="6.63518">
        <ele>1956.42</ele>
        <time>2014-08-14T09:08:30Z</time>
      </trkpt>
      <trkpt lat="45.6691" lon="6.63516">
        <ele>1956.9</ele>
        <time>2014-08-14T09:09:00Z</time>
      </trkpt>
      <trkpt lat="45.66909" lon="6.63517">
        <ele>1956.9</ele>
        <time>2014-08-14T09:09:41Z</time>
      </trkpt>
      <trkpt lat="45.66911" lon="6.63515">
        <ele>1956.9</ele>
        <time>2014-08-14T09:10:15Z</time>
      </trkpt>
      <trkpt lat="45.66909" lon="6.63516">
        <ele>1957.38</ele>
        <time>2014-08-14T09:10:48Z</time>
      </trkpt>
      <trkpt lat="45.66909" lon="6.63516">
        <ele>1957.38</ele>
        <time>2014-08-14T09:10:53Z</time>
      </trkpt>
      <trkpt lat="45.66909" lon="6.63518">
        <ele>1957.38</ele>
        <time>2014-08-14T09:11:00Z</time>
      </trkpt>
      <trkpt lat="45.66915" lon="6.63543">
        <ele>1958.82</ele>
        <time>2014-08-14T09:11:12Z</time>
      </trkpt>
      <trkpt lat="45.66909" lon="6.63562">
        <ele>1960.27</ele>
        <time>2014-08-14T09:11:22Z</time>
      </trkpt>
      <trkpt lat="45.66895" lon="6.6357">
        <ele>1962.19</ele>
        <time>2014-08-14T09:11:33Z</time>
      </trkpt>
      <trkpt lat="45.66894" lon="6.63571">
        <ele>1962.67</ele>
        <time>2014-08-14T09:11:34Z</time>
      </trkpt>
      <trkpt lat="45.66893" lon="6.63571">
        <ele>1962.67</ele>
        <time>2014-08-14T09:11:35Z</time>
      </trkpt>
      <trkpt lat="45.66877" lon="6.63593">
        <ele>1966.03</ele>
        <time>2014-08-14T09:11:50Z</time>
      </trkpt>
      <trkpt lat="45.6686" lon="6.63614">
        <ele>1967.96</ele>
        <time>2014-08-14T09:12:06Z</time>
      </trkpt>
      <trkpt lat="45.66846" lon="6.63638">
        <ele>1971.32</ele>
        <time>2014-08-14T09:12:20Z</time>
      </trkpt>
      <trkpt lat="45.66833" lon="6.63668">
        <ele>1973.72</ele>
        <time>2014-08-14T09:12:35Z</time>
      </trkpt>
      <trkpt lat="45.66816" lon="6.63692">
        <ele>1976.13</ele>
        <time>2014-08-14T09:12:50Z</time>
      </trkpt>
      <trkpt lat="45.66801" lon="6.63704">
        <ele>1978.05</ele>
        <time>2014-08-14T09:13:03Z</time>
      </trkpt>
      <trkpt lat="45.668" lon="6.63705">
        <ele>1978.05</ele>
        <time>2014-08-14T09:13:04Z</time>
      </trkpt>
      <trkpt lat="45.66799" lon="6.63706">
        <ele>1978.05</ele>
        <time>2014-08-14T09:13:05Z</time>
      </trkpt>
      <trkpt lat="45.66796" lon="6.63714">
        <ele>1978.53</ele>
        <time>2014-08-14T09:13:16Z</time>
      </trkpt>
      <trkpt lat="45.66796" lon="6.63717">
        <ele>1978.53</ele>
        <time>2014-08-14T09:13:18Z</time>
      </trkpt>
      <trkpt lat="45.66796" lon="6.63719">
        <ele>1978.53</ele>
        <time>2014-08-14T09:13:19Z</time>
      </trkpt>
      <trkpt lat="45.66799" lon="6.6373">
        <ele>1979.97</ele>
        <time>2014-08-14T09:13:31Z</time>
      </trkpt>
      <trkpt lat="45.66805" lon="6.63744">
        <ele>1983.34</ele>
        <time>2014-08-14T09:13:46Z</time>
      </trkpt>
      <trkpt lat="45.66806" lon="6.63747">
        <ele>1983.82</ele>
        <time>2014-08-14T09:13:55Z</time>
      </trkpt>
      <trkpt lat="45.66807" lon="6.63746">
        <ele>1983.82</ele>
        <time>2014-08-14T09:13:56Z</time>
      </trkpt>
      <trkpt lat="45.66809" lon="6.63746">
        <ele>1983.82</ele>
        <time>2014-08-14T09:13:57Z</time>
      </trkpt>
      <trkpt lat="45.6681" lon="6.63745">
        <ele>1983.82</ele>
        <time>2014-08-14T09:13:58Z</time>
      </trkpt>
      <trkpt lat="45.66811" lon="6.63743">
        <ele>1983.82</ele>
        <time>2014-08-14T09:13:59Z</time>
      </trkpt>
      <trkpt lat="45.66811" lon="6.63741">
        <ele>1983.82</ele>
        <time>2014-08-14T09:14:00Z</time>
      </trkpt>
      <trkpt lat="45.66812" lon="6.63739">
        <ele>1983.82</ele>
        <time>2014-08-14T09:14:01Z</time>
      </trkpt>
      <trkpt lat="45.66812" lon="6.63737">
        <ele>1983.82</ele>
        <time>2014-08-14T09:14:09Z</time>
      </trkpt>
      <trkpt lat="45.66813" lon="6.63736">
        <ele>1983.82</ele>
        <time>2014-08-14T09:14:10Z</time>
      </trkpt>
      <trkpt lat="45.66814" lon="6.63735">
        <ele>1983.82</ele>
        <time>2014-08-14T09:14:11Z</time>
      </trkpt>
      <trkpt lat="45.66831" lon="6.63727">
        <ele>1982.38</ele>
        <time>2014-08-14T09:14:19Z</time>
      </trkpt>
      <trkpt lat="45.66855" lon="6.63742">
        <ele>1983.34</ele>
        <time>2014-08-14T09:14:32Z</time>
      </trkpt>
      <trkpt lat="45.66875" lon="6.6378">
        <ele>1983.34</ele>
        <time>2014-08-14T09:14:46Z</time>
      </trkpt>
      <trkpt lat="45.66895" lon="6.63804">
        <ele>1981.9</ele>
        <time>2014-08-14T09:15:01Z</time>
      </trkpt>
      <trkpt lat="45.66908" lon="6.63828">
        <ele>1983.34</ele>
        <time>2014-08-14T09:15:14Z</time>
      </trkpt>
      <trkpt lat="45.66906" lon="6.63845">
        <ele>1983.82</ele>
        <time>2014-08-14T09:15:27Z</time>
      </trkpt>
      <trkpt lat="45.66907" lon="6.63866">
        <ele>1982.38</ele>
        <time>2014-08-14T09:15:38Z</time>
      </trkpt>
      <trkpt lat="45.66909" lon="6.6387">
        <ele>1982.38</ele>
        <time>2014-08-14T09:15:44Z</time>
      </trkpt>
      <trkpt lat="45.6691" lon="6.63871">
        <ele>1982.38</ele>
        <time>2014-08-14T09:15:45Z</time>
      </trkpt>
      <trkpt lat="45.66911" lon="6.63871">
        <ele>1982.38</ele>
        <time>2014-08-14T09:15:46Z</time>
      </trkpt>
      <trkpt lat="45.66912" lon="6.63872">
        <ele>1982.38</ele>
        <time>2014-08-14T09:15:47Z</time>
      </trkpt>
      <trkpt lat="45.66913" lon="6.63873">
        <ele>1982.38</ele>
        <time>2014-08-14T09:15:48Z</time>
      </trkpt>
      <trkpt lat="45.66914" lon="6.63875">
        <ele>1982.38</ele>
        <time>2014-08-14T09:15:49Z</time>
      </trkpt>
      <trkpt lat="45.66915" lon="6.63876">
        <ele>1982.38</ele>
        <time>2014-08-14T09:15:50Z</time>
      </trkpt>
      <trkpt lat="45.66925" lon="6.63899">
        <ele>1983.82</ele>
        <time>2014-08-14T09:16:03Z</time>
      </trkpt>
      <trkpt lat="45.66926" lon="6.63901">
        <ele>1983.82</ele>
        <time>2014-08-14T09:16:04Z</time>
      </trkpt>
      <trkpt lat="45.66927" lon="6.63902">
        <ele>1983.82</ele>
        <time>2014-08-14T09:16:05Z</time>
      </trkpt>
      <trkpt lat="45.66931" lon="6.63907">
        <ele>1980.93</ele>
        <time>2014-08-14T09:16:11Z</time>
      </trkpt>
      <trkpt lat="45.66935" lon="6.63911">
        <ele>1979.01</ele>
        <time>2014-08-14T09:16:15Z</time>
      </trkpt>
      <trkpt lat="45.66941" lon="6.63918">
        <ele>1979.01</ele>
        <time>2014-08-14T09:16:22Z</time>
      </trkpt>
      <trkpt lat="45.66944" lon="6.63919">
        <ele>1979.01</ele>
        <time>2014-08-14T09:16:25Z</time>
      </trkpt>
      <trkpt lat="45.66951" lon="6.63923">
        <ele>1982.38</ele>
        <time>2014-08-14T09:16:37Z</time>
      </trkpt>
      <trkpt lat="45.66963" lon="6.63927">
        <ele>1984.3</ele>
        <time>2014-08-14T09:16:50Z</time>
      </trkpt>
      <trkpt lat="45.66977" lon="6.63935">
        <ele>1983.82</ele>
        <time>2014-08-14T09:17:03Z</time>
      </trkpt>
      <trkpt lat="45.66985" lon="6.63943">
        <ele>1983.82</ele>
        <time>2014-08-14T09:17:12Z</time>
      </trkpt>
      <trkpt lat="45.66987" lon="6.63946">
        <ele>1982.38</ele>
        <time>2014-08-14T09:17:15Z</time>
      </trkpt>
      <trkpt lat="45.66995" lon="6.6395">
        <ele>1981.41</ele>
        <time>2014-08-14T09:17:26Z</time>
      </trkpt>
      <trkpt lat="45.66999" lon="6.63954">
        <ele>1981.41</ele>
        <time>2014-08-14T09:17:33Z</time>
      </trkpt>
      <trkpt lat="45.67001" lon="6.63956">
        <ele>1980.93</ele>
        <time>2014-08-14T09:17:35Z</time>
      </trkpt>
      <trkpt lat="45.67003" lon="6.6396">
        <ele>1979.49</ele>
        <time>2014-08-14T09:17:47Z</time>
      </trkpt>
      <trkpt lat="45.67004" lon="6.63961">
        <ele>1979.49</ele>
        <time>2014-08-14T09:17:48Z</time>
      </trkpt>
      <trkpt lat="45.67005" lon="6.63963">
        <ele>1979.01</ele>
        <time>2014-08-14T09:17:49Z</time>
      </trkpt>
      <trkpt lat="45.67011" lon="6.63978">
        <ele>1978.53</ele>
        <time>2014-08-14T09:18:00Z</time>
      </trkpt>
      <trkpt lat="45.67015" lon="6.63991">
        <ele>1978.53</ele>
        <time>2014-08-14T09:18:11Z</time>
      </trkpt>
      <trkpt lat="45.67018" lon="6.63993">
        <ele>1978.53</ele>
        <time>2014-08-14T09:18:14Z</time>
      </trkpt>
      <trkpt lat="45.67021" lon="6.63996">
        <ele>1978.05</ele>
        <time>2014-08-14T09:18:16Z</time>
      </trkpt>
      <trkpt lat="45.67022" lon="6.63998">
        <ele>1978.05</ele>
        <time>2014-08-14T09:18:17Z</time>
      </trkpt>
      <trkpt lat="45.67023" lon="6.63999">
        <ele>1978.05</ele>
        <time>2014-08-14T09:18:18Z</time>
      </trkpt>
      <trkpt lat="45.6703" lon="6.6401">
        <ele>1979.01</ele>
        <time>2014-08-14T09:18:31Z</time>
      </trkpt>
      <trkpt lat="45.67038" lon="6.64032">
        <ele>1981.41</ele>
        <time>2014-08-14T09:18:45Z</time>
      </trkpt>
      <trkpt lat="45.67043" lon="6.64048">
        <ele>1979.97</ele>
        <time>2014-08-14T09:18:59Z</time>
      </trkpt>
      <trkpt lat="45.67047" lon="6.64062">
        <ele>1981.41</ele>
        <time>2014-08-14T09:19:14Z</time>
      </trkpt>
      <trkpt lat="45.67049" lon="6.64073">
        <ele>1983.34</ele>
        <time>2014-08-14T09:19:27Z</time>
      </trkpt>
      <trkpt lat="45.67053" lon="6.64089">
        <ele>1984.78</ele>
        <time>2014-08-14T09:19:38Z</time>
      </trkpt>
      <trkpt lat="45.67055" lon="6.64102">
        <ele>1983.34</ele>
        <time>2014-08-14T09:19:44Z</time>
      </trkpt>
      <trkpt lat="45.67055" lon="6.64103">
        <ele>1983.34</ele>
        <time>2014-08-14T09:19:45Z</time>
      </trkpt>
      <trkpt lat="45.67056" lon="6.64105">
        <ele>1982.86</ele>
        <time>2014-08-14T09:19:46Z</time>
      </trkpt>
      <trkpt lat="45.67057" lon="6.64106">
        <ele>1982.86</ele>
        <time>2014-08-14T09:19:47Z</time>
      </trkpt>
      <trkpt lat="45.67058" lon="6.64107">
        <ele>1982.86</ele>
        <time>2014-08-14T09:19:48Z</time>
      </trkpt>
      <trkpt lat="45.6706" lon="6.64107">
        <ele>1982.86</ele>
        <time>2014-08-14T09:19:49Z</time>
      </trkpt>
      <trkpt lat="45.67061" lon="6.64107">
        <ele>1982.38</ele>
        <time>2014-08-14T09:19:50Z</time>
      </trkpt>
      <trkpt lat="45.67062" lon="6.64107">
        <ele>1982.38</ele>
        <time>2014-08-14T09:19:51Z</time>
      </trkpt>
      <trkpt lat="45.67063" lon="6.64108">
        <ele>1981.9</ele>
        <time>2014-08-14T09:19:52Z</time>
      </trkpt>
      <trkpt lat="45.67064" lon="6.64109">
        <ele>1981.9</ele>
        <time>2014-08-14T09:19:53Z</time>
      </trkpt>
      <trkpt lat="45.67068" lon="6.64113">
        <ele>1981.41</ele>
        <time>2014-08-14T09:19:57Z</time>
      </trkpt>
      <trkpt lat="45.67069" lon="6.64112">
        <ele>1981.41</ele>
        <time>2014-08-14T09:19:58Z</time>
      </trkpt>
      <trkpt lat="45.67079" lon="6.64112">
        <ele>1978.53</ele>
        <time>2014-08-14T09:20:10Z</time>
      </trkpt>
      <trkpt lat="45.67093" lon="6.6411">
        <ele>1977.09</ele>
        <time>2014-08-14T09:20:23Z</time>
      </trkpt>
      <trkpt lat="45.67114" lon="6.64115">
        <ele>1976.13</ele>
        <time>2014-08-14T09:20:34Z</time>
      </trkpt>
      <trkpt lat="45.67122" lon="6.64121">
        <ele>1975.65</ele>
        <time>2014-08-14T09:20:42Z</time>
      </trkpt>
      <trkpt lat="45.67124" lon="6.64125">
        <ele>1977.09</ele>
        <time>2014-08-14T09:20:46Z</time>
      </trkpt>
      <trkpt lat="45.67128" lon="6.64132">
        <ele>1980.45</ele>
        <time>2014-08-14T09:20:55Z</time>
      </trkpt>
      <trkpt lat="45.67129" lon="6.64139">
        <ele>1983.82</ele>
        <time>2014-08-14T09:21:07Z</time>
      </trkpt>
      <trkpt lat="45.67127" lon="6.64147">
        <ele>1985.74</ele>
        <time>2014-08-14T09:21:22Z</time>
      </trkpt>
      <trkpt lat="45.67129" lon="6.64152">
        <ele>1987.18</ele>
        <time>2014-08-14T09:21:27Z</time>
      </trkpt>
      <trkpt lat="45.67131" lon="6.64168">
        <ele>1989.1</ele>
        <time>2014-08-14T09:21:40Z</time>
      </trkpt>
      <trkpt lat="45.67131" lon="6.64169">
        <ele>1989.1</ele>
        <time>2014-08-14T09:21:41Z</time>
      </trkpt>
      <trkpt lat="45.67132" lon="6.64171">
        <ele>1990.07</ele>
        <time>2014-08-14T09:21:42Z</time>
      </trkpt>
      <trkpt lat="45.67135" lon="6.6418">
        <ele>1992.95</ele>
        <time>2014-08-14T09:21:56Z</time>
      </trkpt>
      <trkpt lat="45.67136" lon="6.64189">
        <ele>1995.83</ele>
        <time>2014-08-14T09:22:09Z</time>
      </trkpt>
      <trkpt lat="45.67139" lon="6.64192">
        <ele>1998.24</ele>
        <time>2014-08-14T09:22:23Z</time>
      </trkpt>
      <trkpt lat="45.67145" lon="6.64195">
        <ele>2000.64</ele>
        <time>2014-08-14T09:22:34Z</time>
      </trkpt>
      <trkpt lat="45.67146" lon="6.64195">
        <ele>2000.16</ele>
        <time>2014-08-14T09:22:35Z</time>
      </trkpt>
      <trkpt lat="45.67147" lon="6.64196">
        <ele>2000.64</ele>
        <time>2014-08-14T09:22:36Z</time>
      </trkpt>
      <trkpt lat="45.67149" lon="6.64198">
        <ele>2001.12</ele>
        <time>2014-08-14T09:22:49Z</time>
      </trkpt>
      <trkpt lat="45.67149" lon="6.64198">
        <ele>2001.12</ele>
        <time>2014-08-14T09:23:20Z</time>
      </trkpt>
      <trkpt lat="45.67149" lon="6.64198">
        <ele>2001.12</ele>
        <time>2014-08-14T09:23:49Z</time>
      </trkpt>
      <trkpt lat="45.6715" lon="6.64199">
        <ele>2001.12</ele>
        <time>2014-08-14T09:24:16Z</time>
      </trkpt>
      <trkpt lat="45.67152" lon="6.64198">
        <ele>2002.08</ele>
        <time>2014-08-14T09:24:43Z</time>
      </trkpt>
      <trkpt lat="45.67168" lon="6.64205">
        <ele>2003.04</ele>
        <time>2014-08-14T09:24:56Z</time>
      </trkpt>
      <trkpt lat="45.67169" lon="6.64206">
        <ele>2004.01</ele>
        <time>2014-08-14T09:24:57Z</time>
      </trkpt>
      <trkpt lat="45.6717" lon="6.64207">
        <ele>2004.01</ele>
        <time>2014-08-14T09:24:58Z</time>
      </trkpt>
      <trkpt lat="45.67174" lon="6.64209">
        <ele>2004.49</ele>
        <time>2014-08-14T09:25:03Z</time>
      </trkpt>
      <trkpt lat="45.67175" lon="6.6421">
        <ele>2004.49</ele>
        <time>2014-08-14T09:25:04Z</time>
      </trkpt>
      <trkpt lat="45.67177" lon="6.64212">
        <ele>2004.97</ele>
        <time>2014-08-14T09:25:06Z</time>
      </trkpt>
      <trkpt lat="45.67178" lon="6.64214">
        <ele>2004.97</ele>
        <time>2014-08-14T09:25:07Z</time>
      </trkpt>
      <trkpt lat="45.67178" lon="6.64215">
        <ele>2004.97</ele>
        <time>2014-08-14T09:25:08Z</time>
      </trkpt>
      <trkpt lat="45.67179" lon="6.64216">
        <ele>2005.45</ele>
        <time>2014-08-14T09:25:09Z</time>
      </trkpt>
      <trkpt lat="45.6718" lon="6.64217">
        <ele>2005.45</ele>
        <time>2014-08-14T09:25:10Z</time>
      </trkpt>
      <trkpt lat="45.67181" lon="6.64217">
        <ele>2005.45</ele>
        <time>2014-08-14T09:25:11Z</time>
      </trkpt>
      <trkpt lat="45.67182" lon="6.64218">
        <ele>2005.45</ele>
        <time>2014-08-14T09:25:12Z</time>
      </trkpt>
      <trkpt lat="45.67183" lon="6.64218">
        <ele>2005.45</ele>
        <time>2014-08-14T09:25:13Z</time>
      </trkpt>
      <trkpt lat="45.67184" lon="6.64219">
        <ele>2006.41</ele>
        <time>2014-08-14T09:25:14Z</time>
      </trkpt>
      <trkpt lat="45.67192" lon="6.64224">
        <ele>2007.85</ele>
        <time>2014-08-14T09:25:23Z</time>
      </trkpt>
      <trkpt lat="45.67193" lon="6.64225">
        <ele>2007.85</ele>
        <time>2014-08-14T09:25:24Z</time>
      </trkpt>
      <trkpt lat="45.67194" lon="6.64225">
        <ele>2008.33</ele>
        <time>2014-08-14T09:25:25Z</time>
      </trkpt>
      <trkpt lat="45.67195" lon="6.64226">
        <ele>2008.33</ele>
        <time>2014-08-14T09:25:26Z</time>
      </trkpt>
      <trkpt lat="45.67203" lon="6.64232">
        <ele>2009.77</ele>
        <time>2014-08-14T09:25:39Z</time>
      </trkpt>
      <trkpt lat="45.67221" lon="6.64241">
        <ele>2012.18</ele>
        <time>2014-08-14T09:25:57Z</time>
      </trkpt>
      <trkpt lat="45.67223" lon="6.64241">
        <ele>2012.66</ele>
        <time>2014-08-14T09:25:59Z</time>
      </trkpt>
      <trkpt lat="45.67224" lon="6.64241">
        <ele>2012.66</ele>
        <time>2014-08-14T09:26:00Z</time>
      </trkpt>
      <trkpt lat="45.67239" lon="6.64246">
        <ele>2013.62</ele>
        <time>2014-08-14T09:26:14Z</time>
      </trkpt>
      <trkpt lat="45.67252" lon="6.64254">
        <ele>2016.5</ele>
        <time>2014-08-14T09:26:29Z</time>
      </trkpt>
      <trkpt lat="45.67262" lon="6.64257">
        <ele>2017.46</ele>
        <time>2014-08-14T09:26:42Z</time>
      </trkpt>
      <trkpt lat="45.67283" lon="6.64258">
        <ele>2019.87</ele>
        <time>2014-08-14T09:26:53Z</time>
      </trkpt>
      <trkpt lat="45.67304" lon="6.64261">
        <ele>2021.31</ele>
        <time>2014-08-14T09:27:05Z</time>
      </trkpt>
      <trkpt lat="45.67327" lon="6.64266">
        <ele>2019.39</ele>
        <time>2014-08-14T09:27:16Z</time>
      </trkpt>
      <trkpt lat="45.6735" lon="6.64278">
        <ele>2016.98</ele>
        <time>2014-08-14T09:27:26Z</time>
      </trkpt>
      <trkpt lat="45.67368" lon="6.64285">
        <ele>2014.58</ele>
        <time>2014-08-14T09:27:35Z</time>
      </trkpt>
      <trkpt lat="45.67372" lon="6.64285">
        <ele>2014.1</ele>
        <time>2014-08-14T09:27:37Z</time>
      </trkpt>
      <trkpt lat="45.67374" lon="6.64286">
        <ele>2013.62</ele>
        <time>2014-08-14T09:27:38Z</time>
      </trkpt>
      <trkpt lat="45.67376" lon="6.64286">
        <ele>2013.14</ele>
        <time>2014-08-14T09:27:39Z</time>
      </trkpt>
      <trkpt lat="45.67378" lon="6.64286">
        <ele>2013.14</ele>
        <time>2014-08-14T09:27:40Z</time>
      </trkpt>
      <trkpt lat="45.6738" lon="6.64287">
        <ele>2012.66</ele>
        <time>2014-08-14T09:27:41Z</time>
      </trkpt>
      <trkpt lat="45.67382" lon="6.64289">
        <ele>2012.66</ele>
        <time>2014-08-14T09:27:42Z</time>
      </trkpt>
      <trkpt lat="45.67384" lon="6.6429">
        <ele>2012.18</ele>
        <time>2014-08-14T09:27:43Z</time>
      </trkpt>
      <trkpt lat="45.67385" lon="6.64291">
        <ele>2012.18</ele>
        <time>2014-08-14T09:27:44Z</time>
      </trkpt>
      <trkpt lat="45.67386" lon="6.64291">
        <ele>2012.18</ele>
        <time>2014-08-14T09:27:45Z</time>
      </trkpt>
      <trkpt lat="45.67393" lon="6.64296">
        <ele>2012.18</ele>
        <time>2014-08-14T09:27:50Z</time>
      </trkpt>
      <trkpt lat="45.67395" lon="6.64296">
        <ele>2012.18</ele>
        <time>2014-08-14T09:27:51Z</time>
      </trkpt>
      <trkpt lat="45.67396" lon="6.64297">
        <ele>2012.18</ele>
        <time>2014-08-14T09:27:52Z</time>
      </trkpt>
      <trkpt lat="45.67398" lon="6.64297">
        <ele>2011.7</ele>
        <time>2014-08-14T09:27:53Z</time>
      </trkpt>
      <trkpt lat="45.67399" lon="6.64298">
        <ele>2011.7</ele>
        <time>2014-08-14T09:27:54Z</time>
      </trkpt>
      <trkpt lat="45.674" lon="6.64298">
        <ele>2011.7</ele>
        <time>2014-08-14T09:27:55Z</time>
      </trkpt>
      <trkpt lat="45.67402" lon="6.64299">
        <ele>2011.7</ele>
        <time>2014-08-14T09:27:56Z</time>
      </trkpt>
      <trkpt lat="45.67421" lon="6.64313">
        <ele>2009.77</ele>
        <time>2014-08-14T09:28:06Z</time>
      </trkpt>
      <trkpt lat="45.67429" lon="6.64324">
        <ele>2008.81</ele>
        <time>2014-08-14T09:28:14Z</time>
      </trkpt>
      <trkpt lat="45.67431" lon="6.64326">
        <ele>2008.33</ele>
        <time>2014-08-14T09:28:15Z</time>
      </trkpt>
      <trkpt lat="45.67433" lon="6.64327">
        <ele>2007.85</ele>
        <time>2014-08-14T09:28:16Z</time>
      </trkpt>
      <trkpt lat="45.67434" lon="6.64328">
        <ele>2007.85</ele>
        <time>2014-08-14T09:28:17Z</time>
      </trkpt>
      <trkpt lat="45.67436" lon="6.64329">
        <ele>2007.85</ele>
        <time>2014-08-14T09:28:18Z</time>
      </trkpt>
      <trkpt lat="45.67438" lon="6.64329">
        <ele>2007.85</ele>
        <time>2014-08-14T09:28:19Z</time>
      </trkpt>
      <trkpt lat="45.67439" lon="6.6433">
        <ele>2007.85</ele>
        <time>2014-08-14T09:28:20Z</time>
      </trkpt>
      <trkpt lat="45.67444" lon="6.64333">
        <ele>2007.85</ele>
        <time>2014-08-14T09:28:32Z</time>
      </trkpt>
      <trkpt lat="45.67446" lon="6.64334">
        <ele>2009.29</ele>
        <time>2014-08-14T09:28:34Z</time>
      </trkpt>
      <trkpt lat="45.67451" lon="6.64339">
        <ele>2011.7</ele>
        <time>2014-08-14T09:28:47Z</time>
      </trkpt>
      <trkpt lat="45.67468" lon="6.64359">
        <ele>2008.81</ele>
        <time>2014-08-14T09:28:57Z</time>
      </trkpt>
      <trkpt lat="45.67477" lon="6.64382">
        <ele>2010.25</ele>
        <time>2014-08-14T09:29:07Z</time>
      </trkpt>
      <trkpt lat="45.67478" lon="6.64384">
        <ele>2010.25</ele>
        <time>2014-08-14T09:29:08Z</time>
      </trkpt>
      <trkpt lat="45.6748" lon="6.64394">
        <ele>2011.7</ele>
        <time>2014-08-14T09:29:14Z</time>
      </trkpt>
      <trkpt lat="45.67479" lon="6.64402">
        <ele>2011.7</ele>
        <time>2014-08-14T09:29:21Z</time>
      </trkpt>
      <trkpt lat="45.6748" lon="6.64403">
        <ele>2012.18</ele>
        <time>2014-08-14T09:29:22Z</time>
      </trkpt>
      <trkpt lat="45.67484" lon="6.64421">
        <ele>2015.54</ele>
        <time>2014-08-14T09:29:34Z</time>
      </trkpt>
      <trkpt lat="45.67484" lon="6.64434">
        <ele>2016.98</ele>
        <time>2014-08-14T09:29:50Z</time>
      </trkpt>
      <trkpt lat="45.67485" lon="6.64435">
        <ele>2016.98</ele>
        <time>2014-08-14T09:29:51Z</time>
      </trkpt>
      <trkpt lat="45.67486" lon="6.64435">
        <ele>2016.98</ele>
        <time>2014-08-14T09:29:52Z</time>
      </trkpt>
      <trkpt lat="45.67487" lon="6.64437">
        <ele>2016.98</ele>
        <time>2014-08-14T09:29:53Z</time>
      </trkpt>
      <trkpt lat="45.67489" lon="6.64438">
        <ele>2016.98</ele>
        <time>2014-08-14T09:29:54Z</time>
      </trkpt>
      <trkpt lat="45.6749" lon="6.64439">
        <ele>2016.98</ele>
        <time>2014-08-14T09:29:55Z</time>
      </trkpt>
      <trkpt lat="45.67492" lon="6.6444">
        <ele>2016.98</ele>
        <time>2014-08-14T09:29:56Z</time>
      </trkpt>
      <trkpt lat="45.67494" lon="6.64442">
        <ele>2016.98</ele>
        <time>2014-08-14T09:29:57Z</time>
      </trkpt>
      <trkpt lat="45.6751" lon="6.6444">
        <ele>2018.91</ele>
        <time>2014-08-14T09:30:10Z</time>
      </trkpt>
      <trkpt lat="45.67519" lon="6.64439">
        <ele>2018.91</ele>
        <time>2014-08-14T09:30:15Z</time>
      </trkpt>
      <trkpt lat="45.6752" lon="6.64441">
        <ele>2018.91</ele>
        <time>2014-08-14T09:30:16Z</time>
      </trkpt>
      <trkpt lat="45.67521" lon="6.64443">
        <ele>2018.91</ele>
        <time>2014-08-14T09:30:17Z</time>
      </trkpt>
      <trkpt lat="45.67523" lon="6.64445">
        <ele>2017.46</ele>
        <time>2014-08-14T09:30:18Z</time>
      </trkpt>
      <trkpt lat="45.67524" lon="6.64446">
        <ele>2017.46</ele>
        <time>2014-08-14T09:30:19Z</time>
      </trkpt>
      <trkpt lat="45.67525" lon="6.64447">
        <ele>2017.46</ele>
        <time>2014-08-14T09:30:20Z</time>
      </trkpt>
      <trkpt lat="45.67527" lon="6.64443">
        <ele>2016.98</ele>
        <time>2014-08-14T09:30:29Z</time>
      </trkpt>
      <trkpt lat="45.67528" lon="6.64441">
        <ele>2016.98</ele>
        <time>2014-08-14T09:30:31Z</time>
      </trkpt>
      <trkpt lat="45.67528" lon="6.64439">
        <ele>2016.98</ele>
        <time>2014-08-14T09:30:32Z</time>
      </trkpt>
      <trkpt lat="45.67529" lon="6.64436">
        <ele>2016.98</ele>
        <time>2014-08-14T09:30:35Z</time>
      </trkpt>
      <trkpt lat="45.6753" lon="6.64434">
        <ele>2016.98</ele>
        <time>2014-08-14T09:30:36Z</time>
      </trkpt>
      <trkpt lat="45.6753" lon="6.64432">
        <ele>2016.98</ele>
        <time>2014-08-14T09:30:37Z</time>
      </trkpt>
      <trkpt lat="45.67531" lon="6.6443">
        <ele>2016.98</ele>
        <time>2014-08-14T09:30:38Z</time>
      </trkpt>
      <trkpt lat="45.67532" lon="6.64428">
        <ele>2016.98</ele>
        <time>2014-08-14T09:30:39Z</time>
      </trkpt>
      <trkpt lat="45.67533" lon="6.64426">
        <ele>2016.98</ele>
        <time>2014-08-14T09:30:40Z</time>
      </trkpt>
      <trkpt lat="45.67534" lon="6.64424">
        <ele>2016.98</ele>
        <time>2014-08-14T09:30:41Z</time>
      </trkpt>
      <trkpt lat="45.67535" lon="6.64422">
        <ele>2016.98</ele>
        <time>2014-08-14T09:30:42Z</time>
      </trkpt>
      <trkpt lat="45.67536" lon="6.6442">
        <ele>2016.98</ele>
        <time>2014-08-14T09:30:43Z</time>
      </trkpt>
      <trkpt lat="45.67537" lon="6.64418">
        <ele>2016.5</ele>
        <time>2014-08-14T09:30:44Z</time>
      </trkpt>
      <trkpt lat="45.67538" lon="6.64417">
        <ele>2016.5</ele>
        <time>2014-08-14T09:30:45Z</time>
      </trkpt>
      <trkpt lat="45.67542" lon="6.64408">
        <ele>2016.5</ele>
        <time>2014-08-14T09:30:54Z</time>
      </trkpt>
      <trkpt lat="45.67543" lon="6.64405">
        <ele>2016.5</ele>
        <time>2014-08-14T09:30:56Z</time>
      </trkpt>
      <trkpt lat="45.67544" lon="6.64405">
        <ele>2016.5</ele>
        <time>2014-08-14T09:30:57Z</time>
      </trkpt>
      <trkpt lat="45.67545" lon="6.64404">
        <ele>2016.5</ele>
        <time>2014-08-14T09:30:58Z</time>
      </trkpt>
      <trkpt lat="45.67546" lon="6.64402">
        <ele>2016.5</ele>
        <time>2014-08-14T09:30:59Z</time>
      </trkpt>
      <trkpt lat="45.67548" lon="6.64399">
        <ele>2016.5</ele>
        <time>2014-08-14T09:31:02Z</time>
      </trkpt>
      <trkpt lat="45.67548" lon="6.64399">
        <ele>2016.5</ele>
        <time>2014-08-14T09:31:03Z</time>
      </trkpt>
      <trkpt lat="45.67549" lon="6.64397">
        <ele>2017.94</ele>
        <time>2014-08-14T09:31:04Z</time>
      </trkpt>
      <trkpt lat="45.6755" lon="6.64396">
        <ele>2017.94</ele>
        <time>2014-08-14T09:31:05Z</time>
      </trkpt>
      <trkpt lat="45.6755" lon="6.64394">
        <ele>2017.94</ele>
        <time>2014-08-14T09:31:06Z</time>
      </trkpt>
      <trkpt lat="45.67551" lon="6.64393">
        <ele>2017.94</ele>
        <time>2014-08-14T09:31:07Z</time>
      </trkpt>
      <trkpt lat="45.67551" lon="6.64391">
        <ele>2017.94</ele>
        <time>2014-08-14T09:31:08Z</time>
      </trkpt>
      <trkpt lat="45.67559" lon="6.64376">
        <ele>2019.39</ele>
        <time>2014-08-14T09:31:22Z</time>
      </trkpt>
      <trkpt lat="45.67571" lon="6.64347">
        <ele>2021.79</ele>
        <time>2014-08-14T09:31:34Z</time>
      </trkpt>
      <trkpt lat="45.67575" lon="6.6435">
        <ele>2023.23</ele>
        <time>2014-08-14T09:31:44Z</time>
      </trkpt>
      <trkpt lat="45.67576" lon="6.64352">
        <ele>2023.71</ele>
        <time>2014-08-14T09:31:45Z</time>
      </trkpt>
      <trkpt lat="45.67577" lon="6.6436">
        <ele>2023.71</ele>
        <time>2014-08-14T09:31:58Z</time>
      </trkpt>
      <trkpt lat="45.67577" lon="6.64362">
        <ele>2023.71</ele>
        <time>2014-08-14T09:31:59Z</time>
      </trkpt>
      <trkpt lat="45.67577" lon="6.64365">
        <ele>2023.71</ele>
        <time>2014-08-14T09:32:00Z</time>
      </trkpt>
      <trkpt lat="45.67576" lon="6.64367">
        <ele>2023.71</ele>
        <time>2014-08-14T09:32:01Z</time>
      </trkpt>
      <trkpt lat="45.67576" lon="6.6437">
        <ele>2023.71</ele>
        <time>2014-08-14T09:32:02Z</time>
      </trkpt>
      <trkpt lat="45.67577" lon="6.64372">
        <ele>2024.19</ele>
        <time>2014-08-14T09:32:03Z</time>
      </trkpt>
      <trkpt lat="45.67576" lon="6.64375">
        <ele>2024.19</ele>
        <time>2014-08-14T09:32:04Z</time>
      </trkpt>
      <trkpt lat="45.67576" lon="6.64377">
        <ele>2024.19</ele>
        <time>2014-08-14T09:32:05Z</time>
      </trkpt>
      <trkpt lat="45.67569" lon="6.64412">
        <ele>2025.64</ele>
        <time>2014-08-14T09:32:19Z</time>
      </trkpt>
      <trkpt lat="45.67565" lon="6.64423">
        <ele>2027.08</ele>
        <time>2014-08-14T09:32:29Z</time>
      </trkpt>
      <trkpt lat="45.6756" lon="6.64445">
        <ele>2028.52</ele>
        <time>2014-08-14T09:32:42Z</time>
      </trkpt>
      <trkpt lat="45.67559" lon="6.64461">
        <ele>2030.44</ele>
        <time>2014-08-14T09:32:54Z</time>
      </trkpt>
      <trkpt lat="45.67563" lon="6.64471">
        <ele>2033.81</ele>
        <time>2014-08-14T09:33:08Z</time>
      </trkpt>
      <trkpt lat="45.67567" lon="6.64467">
        <ele>2034.29</ele>
        <time>2014-08-14T09:33:14Z</time>
      </trkpt>
      <trkpt lat="45.67577" lon="6.64457">
        <ele>2036.69</ele>
        <time>2014-08-14T09:33:27Z</time>
      </trkpt>
      <trkpt lat="45.67593" lon="6.64444">
        <ele>2037.65</ele>
        <time>2014-08-14T09:33:42Z</time>
      </trkpt>
      <trkpt lat="45.67602" lon="6.64428">
        <ele>2040.05</ele>
        <time>2014-08-14T09:33:57Z</time>
      </trkpt>
      <trkpt lat="45.6761" lon="6.64418">
        <ele>2042.94</ele>
        <time>2014-08-14T09:34:15Z</time>
      </trkpt>
      <trkpt lat="45.67611" lon="6.64419">
        <ele>2042.94</ele>
        <time>2014-08-14T09:34:38Z</time>
      </trkpt>
      <trkpt lat="45.67616" lon="6.64424">
        <ele>2044.86</ele>
        <time>2014-08-14T09:34:45Z</time>
      </trkpt>
      <trkpt lat="45.67621" lon="6.64429">
        <ele>2046.3</ele>
        <time>2014-08-14T09:34:50Z</time>
      </trkpt>
      <trkpt lat="45.67621" lon="6.6443">
        <ele>2046.3</ele>
        <time>2014-08-14T09:34:51Z</time>
      </trkpt>
      <trkpt lat="45.67623" lon="6.64453">
        <ele>2048.23</ele>
        <time>2014-08-14T09:35:05Z</time>
      </trkpt>
      <trkpt lat="45.67625" lon="6.64457">
        <ele>2049.19</ele>
        <time>2014-08-14T09:35:14Z</time>
      </trkpt>
      <trkpt lat="45.67627" lon="6.6446">
        <ele>2049.67</ele>
        <time>2014-08-14T09:35:21Z</time>
      </trkpt>
      <trkpt lat="45.67628" lon="6.64461">
        <ele>2049.67</ele>
        <time>2014-08-14T09:35:22Z</time>
      </trkpt>
      <trkpt lat="45.67629" lon="6.64461">
        <ele>2049.67</ele>
        <time>2014-08-14T09:35:23Z</time>
      </trkpt>
      <trkpt lat="45.6763" lon="6.64461">
        <ele>2050.15</ele>
        <time>2014-08-14T09:35:24Z</time>
      </trkpt>
      <trkpt lat="45.67631" lon="6.64461">
        <ele>2050.15</ele>
        <time>2014-08-14T09:35:25Z</time>
      </trkpt>
      <trkpt lat="45.67632" lon="6.6446">
        <ele>2050.63</ele>
        <time>2014-08-14T09:35:26Z</time>
      </trkpt>
      <trkpt lat="45.67633" lon="6.64459">
        <ele>2051.11</ele>
        <time>2014-08-14T09:35:27Z</time>
      </trkpt>
      <trkpt lat="45.67634" lon="6.6446">
        <ele>2051.59</ele>
        <time>2014-08-14T09:35:28Z</time>
      </trkpt>
      <trkpt lat="45.67635" lon="6.6446">
        <ele>2052.07</ele>
        <time>2014-08-14T09:35:29Z</time>
      </trkpt>
      <trkpt lat="45.67636" lon="6.64461">
        <ele>2052.07</ele>
        <time>2014-08-14T09:35:30Z</time>
      </trkpt>
      <trkpt lat="45.67637" lon="6.64462">
        <ele>2052.55</ele>
        <time>2014-08-14T09:35:31Z</time>
      </trkpt>
      <trkpt lat="45.67638" lon="6.64463">
        <ele>2052.55</ele>
        <time>2014-08-14T09:35:32Z</time>
      </trkpt>
      <trkpt lat="45.67639" lon="6.64463">
        <ele>2053.03</ele>
        <time>2014-08-14T09:35:33Z</time>
      </trkpt>
      <trkpt lat="45.67644" lon="6.64466">
        <ele>2053.99</ele>
        <time>2014-08-14T09:35:37Z</time>
      </trkpt>
      <trkpt lat="45.67651" lon="6.64473">
        <ele>2054.96</ele>
        <time>2014-08-14T09:35:48Z</time>
      </trkpt>
      <trkpt lat="45.67666" lon="6.64491">
        <ele>2055.92</ele>
        <time>2014-08-14T09:36:06Z</time>
      </trkpt>
      <trkpt lat="45.67667" lon="6.64492">
        <ele>2055.92</ele>
        <time>2014-08-14T09:36:07Z</time>
      </trkpt>
      <trkpt lat="45.67669" lon="6.64494">
        <ele>2056.4</ele>
        <time>2014-08-14T09:36:08Z</time>
      </trkpt>
      <trkpt lat="45.6767" lon="6.64495">
        <ele>2056.4</ele>
        <time>2014-08-14T09:36:09Z</time>
      </trkpt>
      <trkpt lat="45.67677" lon="6.64499">
        <ele>2057.36</ele>
        <time>2014-08-14T09:36:23Z</time>
      </trkpt>
      <trkpt lat="45.67678" lon="6.645">
        <ele>2057.36</ele>
        <time>2014-08-14T09:36:47Z</time>
      </trkpt>
      <trkpt lat="45.67681" lon="6.64503">
        <ele>2057.36</ele>
        <time>2014-08-14T09:36:58Z</time>
      </trkpt>
      <trkpt lat="45.67683" lon="6.64504">
        <ele>2057.36</ele>
        <time>2014-08-14T09:36:59Z</time>
      </trkpt>
      <trkpt lat="45.67686" lon="6.64504">
        <ele>2057.36</ele>
        <time>2014-08-14T09:37:00Z</time>
      </trkpt>
      <trkpt lat="45.67687" lon="6.64504">
        <ele>2057.36</ele>
        <time>2014-08-14T09:37:01Z</time>
      </trkpt>
      <trkpt lat="45.67689" lon="6.64504">
        <ele>2057.36</ele>
        <time>2014-08-14T09:37:02Z</time>
      </trkpt>
      <trkpt lat="45.67691" lon="6.64504">
        <ele>2056.4</ele>
        <time>2014-08-14T09:37:03Z</time>
      </trkpt>
      <trkpt lat="45.67694" lon="6.64504">
        <ele>2055.92</ele>
        <time>2014-08-14T09:37:04Z</time>
      </trkpt>
      <trkpt lat="45.67696" lon="6.64503">
        <ele>2055.92</ele>
        <time>2014-08-14T09:37:05Z</time>
      </trkpt>
      <trkpt lat="45.67699" lon="6.64501">
        <ele>2054.96</ele>
        <time>2014-08-14T09:37:06Z</time>
      </trkpt>
      <trkpt lat="45.67702" lon="6.645">
        <ele>2054.96</ele>
        <time>2014-08-14T09:37:07Z</time>
      </trkpt>
      <trkpt lat="45.67728" lon="6.64493">
        <ele>2052.07</ele>
        <time>2014-08-14T09:37:17Z</time>
      </trkpt>
      <trkpt lat="45.67746" lon="6.64476">
        <ele>2050.15</ele>
        <time>2014-08-14T09:37:28Z</time>
      </trkpt>
      <trkpt lat="45.67751" lon="6.64473">
        <ele>2049.67</ele>
        <time>2014-08-14T09:37:35Z</time>
      </trkpt>
      <trkpt lat="45.67752" lon="6.64473">
        <ele>2049.67</ele>
        <time>2014-08-14T09:37:36Z</time>
      </trkpt>
      <trkpt lat="45.67753" lon="6.64473">
        <ele>2049.67</ele>
        <time>2014-08-14T09:37:37Z</time>
      </trkpt>
      <trkpt lat="45.67774" lon="6.64468">
        <ele>2047.75</ele>
        <time>2014-08-14T09:37:47Z</time>
      </trkpt>
      <trkpt lat="45.67777" lon="6.64468">
        <ele>2046.78</ele>
        <time>2014-08-14T09:37:48Z</time>
      </trkpt>
      <trkpt lat="45.67779" lon="6.64469">
        <ele>2046.3</ele>
        <time>2014-08-14T09:37:49Z</time>
      </trkpt>
      <trkpt lat="45.67781" lon="6.64469">
        <ele>2045.82</ele>
        <time>2014-08-14T09:37:50Z</time>
      </trkpt>
      <trkpt lat="45.67784" lon="6.64469">
        <ele>2045.34</ele>
        <time>2014-08-14T09:37:51Z</time>
      </trkpt>
      <trkpt lat="45.67786" lon="6.6447">
        <ele>2044.86</ele>
        <time>2014-08-14T09:37:52Z</time>
      </trkpt>
      <trkpt lat="45.67788" lon="6.64471">
        <ele>2044.38</ele>
        <time>2014-08-14T09:37:53Z</time>
      </trkpt>
      <trkpt lat="45.6779" lon="6.64473">
        <ele>2044.38</ele>
        <time>2014-08-14T09:37:54Z</time>
      </trkpt>
      <trkpt lat="45.67798" lon="6.64489">
        <ele>2041.02</ele>
        <time>2014-08-14T09:38:00Z</time>
      </trkpt>
      <trkpt lat="45.67806" lon="6.64505">
        <ele>2038.13</ele>
        <time>2014-08-14T09:38:06Z</time>
      </trkpt>
      <trkpt lat="45.67806" lon="6.64507">
        <ele>2038.13</ele>
        <time>2014-08-14T09:38:07Z</time>
      </trkpt>
      <trkpt lat="45.67808" lon="6.64515">
        <ele>2036.69</ele>
        <time>2014-08-14T09:38:10Z</time>
      </trkpt>
      <trkpt lat="45.67809" lon="6.64531">
        <ele>2033.33</ele>
        <time>2014-08-14T09:38:19Z</time>
      </trkpt>
      <trkpt lat="45.67811" lon="6.64539">
        <ele>2033.33</ele>
        <time>2014-08-14T09:38:27Z</time>
      </trkpt>
      <trkpt lat="45.67816" lon="6.64552">
        <ele>2032.36</ele>
        <time>2014-08-14T09:38:32Z</time>
      </trkpt>
      <trkpt lat="45.67817" lon="6.64554">
        <ele>2032.36</ele>
        <time>2014-08-14T09:38:33Z</time>
      </trkpt>
      <trkpt lat="45.67838" lon="6.64575">
        <ele>2029</ele>
        <time>2014-08-14T09:38:42Z</time>
      </trkpt>
      <trkpt lat="45.67854" lon="6.64593">
        <ele>2025.64</ele>
        <time>2014-08-14T09:38:51Z</time>
      </trkpt>
      <trkpt lat="45.6787" lon="6.64626">
        <ele>2022.27</ele>
        <time>2014-08-14T09:39:02Z</time>
      </trkpt>
      <trkpt lat="45.6788" lon="6.64645">
        <ele>2020.35</ele>
        <time>2014-08-14T09:39:13Z</time>
      </trkpt>
      <trkpt lat="45.67886" lon="6.64653">
        <ele>2016.98</ele>
        <time>2014-08-14T09:39:24Z</time>
      </trkpt>
      <trkpt lat="45.67892" lon="6.64658">
        <ele>2018.43</ele>
        <time>2014-08-14T09:39:29Z</time>
      </trkpt>
      <trkpt lat="45.67895" lon="6.64664">
        <ele>2018.91</ele>
        <time>2014-08-14T09:39:34Z</time>
      </trkpt>
      <trkpt lat="45.67899" lon="6.64676">
        <ele>2016.02</ele>
        <time>2014-08-14T09:39:40Z</time>
      </trkpt>
      <trkpt lat="45.679" lon="6.64678">
        <ele>2016.02</ele>
        <time>2014-08-14T09:39:41Z</time>
      </trkpt>
      <trkpt lat="45.67901" lon="6.64678">
        <ele>2016.02</ele>
        <time>2014-08-14T09:39:42Z</time>
      </trkpt>
      <trkpt lat="45.67903" lon="6.64679">
        <ele>2016.02</ele>
        <time>2014-08-14T09:39:43Z</time>
      </trkpt>
      <trkpt lat="45.67904" lon="6.6468">
        <ele>2016.02</ele>
        <time>2014-08-14T09:39:44Z</time>
      </trkpt>
      <trkpt lat="45.67905" lon="6.6468">
        <ele>2016.02</ele>
        <time>2014-08-14T09:39:45Z</time>
      </trkpt>
      <trkpt lat="45.67908" lon="6.64681">
        <ele>2017.46</ele>
        <time>2014-08-14T09:39:49Z</time>
      </trkpt>
      <trkpt lat="45.67909" lon="6.64681">
        <ele>2016.98</ele>
        <time>2014-08-14T09:39:50Z</time>
      </trkpt>
      <trkpt lat="45.67912" lon="6.6468">
        <ele>2018.43</ele>
        <time>2014-08-14T09:39:53Z</time>
      </trkpt>
      <trkpt lat="45.67919" lon="6.64679">
        <ele>2019.39</ele>
        <time>2014-08-14T09:40:04Z</time>
      </trkpt>
      <trkpt lat="45.6792" lon="6.64677">
        <ele>2019.39</ele>
        <time>2014-08-14T09:40:05Z</time>
      </trkpt>
      <trkpt lat="45.67922" lon="6.64676">
        <ele>2019.39</ele>
        <time>2014-08-14T09:40:06Z</time>
      </trkpt>
      <trkpt lat="45.67923" lon="6.64674">
        <ele>2019.39</ele>
        <time>2014-08-14T09:40:07Z</time>
      </trkpt>
      <trkpt lat="45.67925" lon="6.64672">
        <ele>2019.39</ele>
        <time>2014-08-14T09:40:08Z</time>
      </trkpt>
      <trkpt lat="45.67926" lon="6.64671">
        <ele>2019.39</ele>
        <time>2014-08-14T09:40:09Z</time>
      </trkpt>
      <trkpt lat="45.67927" lon="6.6467">
        <ele>2019.39</ele>
        <time>2014-08-14T09:40:10Z</time>
      </trkpt>
      <trkpt lat="45.67938" lon="6.6467">
        <ele>2015.54</ele>
        <time>2014-08-14T09:40:17Z</time>
      </trkpt>
      <trkpt lat="45.67952" lon="6.64681">
        <ele>2012.18</ele>
        <time>2014-08-14T09:40:24Z</time>
      </trkpt>
      <trkpt lat="45.67965" lon="6.64689">
        <ele>2009.29</ele>
        <time>2014-08-14T09:40:29Z</time>
      </trkpt>
      <trkpt lat="45.67984" lon="6.64702">
        <ele>2005.93</ele>
        <time>2014-08-14T09:40:35Z</time>
      </trkpt>
      <trkpt lat="45.67994" lon="6.64714">
        <ele>2003.04</ele>
        <time>2014-08-14T09:40:41Z</time>
      </trkpt>
      <trkpt lat="45.68" lon="6.64718">
        <ele>2002.08</ele>
        <time>2014-08-14T09:40:49Z</time>
      </trkpt>
      <trkpt lat="45.68001" lon="6.6472">
        <ele>2002.08</ele>
        <time>2014-08-14T09:40:51Z</time>
      </trkpt>
      <trkpt lat="45.68001" lon="6.64722">
        <ele>2002.08</ele>
        <time>2014-08-14T09:40:52Z</time>
      </trkpt>
      <trkpt lat="45.68002" lon="6.64729">
        <ele>2000.16</ele>
        <time>2014-08-14T09:40:56Z</time>
      </trkpt>
      <trkpt lat="45.68002" lon="6.64731">
        <ele>2000.16</ele>
        <time>2014-08-14T09:40:57Z</time>
      </trkpt>
      <trkpt lat="45.67999" lon="6.64744">
        <ele>1998.24</ele>
        <time>2014-08-14T09:41:09Z</time>
      </trkpt>
      <trkpt lat="45.68" lon="6.64743">
        <ele>1998.24</ele>
        <time>2014-08-14T09:41:10Z</time>
      </trkpt>
      <trkpt lat="45.68005" lon="6.64744">
        <ele>1999.68</ele>
        <time>2014-08-14T09:41:18Z</time>
      </trkpt>
      <trkpt lat="45.68005" lon="6.64747">
        <ele>2000.64</ele>
        <time>2014-08-14T09:41:21Z</time>
      </trkpt>
      <trkpt lat="45.68005" lon="6.6475">
        <ele>2001.12</ele>
        <time>2014-08-14T09:41:23Z</time>
      </trkpt>
      <trkpt lat="45.68005" lon="6.64754">
        <ele>2001.6</ele>
        <time>2014-08-14T09:41:26Z</time>
      </trkpt>
      <trkpt lat="45.68012" lon="6.64758">
        <ele>2002.56</ele>
        <time>2014-08-14T09:41:32Z</time>
      </trkpt>
      <trkpt lat="45.68017" lon="6.64769">
        <ele>2004.01</ele>
        <time>2014-08-14T09:41:41Z</time>
      </trkpt>
      <trkpt lat="45.68017" lon="6.64781">
        <ele>2005.93</ele>
        <time>2014-08-14T09:41:49Z</time>
      </trkpt>
      <trkpt lat="45.68014" lon="6.64782">
        <ele>2006.89</ele>
        <time>2014-08-14T09:41:54Z</time>
      </trkpt>
      <trkpt lat="45.68008" lon="6.64775">
        <ele>2008.81</ele>
        <time>2014-08-14T09:42:02Z</time>
      </trkpt>
      <trkpt lat="45.68002" lon="6.64774">
        <ele>2010.25</ele>
        <time>2014-08-14T09:42:07Z</time>
      </trkpt>
      <trkpt lat="45.67991" lon="6.64782">
        <ele>2011.22</ele>
        <time>2014-08-14T09:42:20Z</time>
      </trkpt>
      <trkpt lat="45.67974" lon="6.648">
        <ele>2013.62</ele>
        <time>2014-08-14T09:42:32Z</time>
      </trkpt>
      <trkpt lat="45.67966" lon="6.64814">
        <ele>2016.5</ele>
        <time>2014-08-14T09:42:39Z</time>
      </trkpt>
      <trkpt lat="45.67963" lon="6.64822">
        <ele>2017.94</ele>
        <time>2014-08-14T09:42:50Z</time>
      </trkpt>
      <trkpt lat="45.67967" lon="6.64832">
        <ele>2021.31</ele>
        <time>2014-08-14T09:43:02Z</time>
      </trkpt>
      <trkpt lat="45.67968" lon="6.64836">
        <ele>2021.31</ele>
        <time>2014-08-14T09:43:05Z</time>
      </trkpt>
      <trkpt lat="45.6797" lon="6.64848">
        <ele>2022.75</ele>
        <time>2014-08-14T09:43:19Z</time>
      </trkpt>
      <trkpt lat="45.6797" lon="6.64851">
        <ele>2023.23</ele>
        <time>2014-08-14T09:43:57Z</time>
      </trkpt>
      <trkpt lat="45.67972" lon="6.64864">
        <ele>2025.15</ele>
        <time>2014-08-14T09:44:10Z</time>
      </trkpt>
      <trkpt lat="45.67976" lon="6.64874">
        <ele>2027.08</ele>
        <time>2014-08-14T09:44:19Z</time>
      </trkpt>
      <trkpt lat="45.6798" lon="6.6489">
        <ele>2030.44</ele>
        <time>2014-08-14T09:44:33Z</time>
      </trkpt>
      <trkpt lat="45.67981" lon="6.64892">
        <ele>2030.92</ele>
        <time>2014-08-14T09:44:35Z</time>
      </trkpt>
      <trkpt lat="45.6799" lon="6.64911">
        <ele>2033.33</ele>
        <time>2014-08-14T09:44:50Z</time>
      </trkpt>
      <trkpt lat="45.67995" lon="6.64928">
        <ele>2036.69</ele>
        <time>2014-08-14T09:45:06Z</time>
      </trkpt>
      <trkpt lat="45.68003" lon="6.64934">
        <ele>2038.61</ele>
        <time>2014-08-14T09:45:19Z</time>
      </trkpt>
      <trkpt lat="45.68009" lon="6.64937">
        <ele>2040.54</ele>
        <time>2014-08-14T09:45:29Z</time>
      </trkpt>
      <trkpt lat="45.68012" lon="6.64949">
        <ele>2042.46</ele>
        <time>2014-08-14T09:45:43Z</time>
      </trkpt>
      <trkpt lat="45.68011" lon="6.6496">
        <ele>2044.86</ele>
        <time>2014-08-14T09:45:54Z</time>
      </trkpt>
      <trkpt lat="45.68013" lon="6.64974">
        <ele>2048.23</ele>
        <time>2014-08-14T09:46:08Z</time>
      </trkpt>
      <trkpt lat="45.68017" lon="6.64981">
        <ele>2050.63</ele>
        <time>2014-08-14T09:46:23Z</time>
      </trkpt>
      <trkpt lat="45.6802" lon="6.64988">
        <ele>2051.59</ele>
        <time>2014-08-14T09:46:35Z</time>
      </trkpt>
      <trkpt lat="45.6802" lon="6.64988">
        <ele>2052.07</ele>
        <time>2014-08-14T09:46:36Z</time>
      </trkpt>
      <trkpt lat="45.68025" lon="6.65005">
        <ele>2054.47</ele>
        <time>2014-08-14T09:46:50Z</time>
      </trkpt>
      <trkpt lat="45.68029" lon="6.65013">
        <ele>2056.4</ele>
        <time>2014-08-14T09:47:01Z</time>
      </trkpt>
      <trkpt lat="45.68031" lon="6.65021">
        <ele>2056.88</ele>
        <time>2014-08-14T09:47:16Z</time>
      </trkpt>
      <trkpt lat="45.68038" lon="6.6504">
        <ele>2058.8</ele>
        <time>2014-08-14T09:47:26Z</time>
      </trkpt>
      <trkpt lat="45.68038" lon="6.65042">
        <ele>2059.28</ele>
        <time>2014-08-14T09:47:27Z</time>
      </trkpt>
      <trkpt lat="45.6804" lon="6.65051">
        <ele>2060.72</ele>
        <time>2014-08-14T09:47:37Z</time>
      </trkpt>
      <trkpt lat="45.6804" lon="6.65052">
        <ele>2060.72</ele>
        <time>2014-08-14T09:47:38Z</time>
      </trkpt>
      <trkpt lat="45.6804" lon="6.65054">
        <ele>2061.2</ele>
        <time>2014-08-14T09:47:39Z</time>
      </trkpt>
      <trkpt lat="45.68039" lon="6.65061">
        <ele>2062.17</ele>
        <time>2014-08-14T09:47:44Z</time>
      </trkpt>
      <trkpt lat="45.68039" lon="6.65062">
        <ele>2062.17</ele>
        <time>2014-08-14T09:47:45Z</time>
      </trkpt>
      <trkpt lat="45.68038" lon="6.65064">
        <ele>2062.17</ele>
        <time>2014-08-14T09:47:46Z</time>
      </trkpt>
      <trkpt lat="45.68035" lon="6.65087">
        <ele>2065.53</ele>
        <time>2014-08-14T09:47:59Z</time>
      </trkpt>
      <trkpt lat="45.68035" lon="6.65089">
        <ele>2065.53</ele>
        <time>2014-08-14T09:48:00Z</time>
      </trkpt>
      <trkpt lat="45.68035" lon="6.6509">
        <ele>2066.01</ele>
        <time>2014-08-14T09:48:01Z</time>
      </trkpt>
      <trkpt lat="45.68035" lon="6.65092">
        <ele>2066.01</ele>
        <time>2014-08-14T09:48:02Z</time>
      </trkpt>
      <trkpt lat="45.68035" lon="6.65094">
        <ele>2066.49</ele>
        <time>2014-08-14T09:48:03Z</time>
      </trkpt>
      <trkpt lat="45.68035" lon="6.65096">
        <ele>2066.97</ele>
        <time>2014-08-14T09:48:04Z</time>
      </trkpt>
      <trkpt lat="45.68035" lon="6.65098">
        <ele>2066.97</ele>
        <time>2014-08-14T09:48:05Z</time>
      </trkpt>
      <trkpt lat="45.68035" lon="6.651">
        <ele>2066.97</ele>
        <time>2014-08-14T09:48:06Z</time>
      </trkpt>
      <trkpt lat="45.68038" lon="6.65109">
        <ele>2068.89</ele>
        <time>2014-08-14T09:48:13Z</time>
      </trkpt>
      <trkpt lat="45.68039" lon="6.6511">
        <ele>2068.89</ele>
        <time>2014-08-14T09:48:14Z</time>
      </trkpt>
      <trkpt lat="45.68046" lon="6.65115">
        <ele>2069.38</ele>
        <time>2014-08-14T09:48:25Z</time>
      </trkpt>
      <trkpt lat="45.6805" lon="6.65119">
        <ele>2069.38</ele>
        <time>2014-08-14T09:48:32Z</time>
      </trkpt>
      <trkpt lat="45.68051" lon="6.65119">
        <ele>2069.38</ele>
        <time>2014-08-14T09:48:33Z</time>
      </trkpt>
      <trkpt lat="45.68052" lon="6.6512">
        <ele>2069.38</ele>
        <time>2014-08-14T09:48:34Z</time>
      </trkpt>
      <trkpt lat="45.6807" lon="6.65131">
        <ele>2069.38</ele>
        <time>2014-08-14T09:48:47Z</time>
      </trkpt>
      <trkpt lat="45.68073" lon="6.65134">
        <ele>2069.38</ele>
        <time>2014-08-14T09:48:56Z</time>
      </trkpt>
      <trkpt lat="45.68075" lon="6.65139">
        <ele>2069.38</ele>
        <time>2014-08-14T09:49:08Z</time>
      </trkpt>
      <trkpt lat="45.68078" lon="6.65148">
        <ele>2069.38</ele>
        <time>2014-08-14T09:49:38Z</time>
      </trkpt>
      <trkpt lat="45.68084" lon="6.65162">
        <ele>2069.38</ele>
        <time>2014-08-14T09:49:48Z</time>
      </trkpt>
      <trkpt lat="45.68089" lon="6.65171">
        <ele>2069.86</ele>
        <time>2014-08-14T09:49:55Z</time>
      </trkpt>
      <trkpt lat="45.68091" lon="6.65172">
        <ele>2069.86</ele>
        <time>2014-08-14T09:49:56Z</time>
      </trkpt>
      <trkpt lat="45.68092" lon="6.65172">
        <ele>2069.86</ele>
        <time>2014-08-14T09:49:57Z</time>
      </trkpt>
      <trkpt lat="45.68126" lon="6.65177">
        <ele>2068.41</ele>
        <time>2014-08-14T09:50:10Z</time>
      </trkpt>
      <trkpt lat="45.68133" lon="6.65181">
        <ele>2068.41</ele>
        <time>2014-08-14T09:50:13Z</time>
      </trkpt>
      <trkpt lat="45.68135" lon="6.6518">
        <ele>2067.93</ele>
        <time>2014-08-14T09:50:14Z</time>
      </trkpt>
      <trkpt lat="45.68138" lon="6.65179">
        <ele>2067.93</ele>
        <time>2014-08-14T09:50:15Z</time>
      </trkpt>
      <trkpt lat="45.6814" lon="6.65178">
        <ele>2067.45</ele>
        <time>2014-08-14T09:50:16Z</time>
      </trkpt>
      <trkpt lat="45.68142" lon="6.65178">
        <ele>2067.45</ele>
        <time>2014-08-14T09:50:17Z</time>
      </trkpt>
      <trkpt lat="45.68144" lon="6.65179">
        <ele>2067.45</ele>
        <time>2014-08-14T09:50:18Z</time>
      </trkpt>
      <trkpt lat="45.68145" lon="6.6518">
        <ele>2066.97</ele>
        <time>2014-08-14T09:50:19Z</time>
      </trkpt>
      <trkpt lat="45.68147" lon="6.65182">
        <ele>2066.97</ele>
        <time>2014-08-14T09:50:20Z</time>
      </trkpt>
      <trkpt lat="45.6817" lon="6.65196">
        <ele>2066.01</ele>
        <time>2014-08-14T09:50:32Z</time>
      </trkpt>
      <trkpt lat="45.68173" lon="6.65196">
        <ele>2066.01</ele>
        <time>2014-08-14T09:50:33Z</time>
      </trkpt>
      <trkpt lat="45.68175" lon="6.65195">
        <ele>2066.01</ele>
        <time>2014-08-14T09:50:34Z</time>
      </trkpt>
      <trkpt lat="45.68177" lon="6.65194">
        <ele>2066.01</ele>
        <time>2014-08-14T09:50:35Z</time>
      </trkpt>
      <trkpt lat="45.68179" lon="6.65193">
        <ele>2066.01</ele>
        <time>2014-08-14T09:50:36Z</time>
      </trkpt>
      <trkpt lat="45.68181" lon="6.65192">
        <ele>2066.01</ele>
        <time>2014-08-14T09:50:37Z</time>
      </trkpt>
      <trkpt lat="45.68184" lon="6.65192">
        <ele>2066.01</ele>
        <time>2014-08-14T09:50:38Z</time>
      </trkpt>
      <trkpt lat="45.68187" lon="6.65192">
        <ele>2066.01</ele>
        <time>2014-08-14T09:50:39Z</time>
      </trkpt>
      <trkpt lat="45.68202" lon="6.65194">
        <ele>2066.01</ele>
        <time>2014-08-14T09:50:43Z</time>
      </trkpt>
      <trkpt lat="45.68238" lon="6.6519">
        <ele>2066.01</ele>
        <time>2014-08-14T09:50:53Z</time>
      </trkpt>
      <trkpt lat="45.68242" lon="6.6519">
        <ele>2065.53</ele>
        <time>2014-08-14T09:50:54Z</time>
      </trkpt>
      <trkpt lat="45.68246" lon="6.65191">
        <ele>2065.53</ele>
        <time>2014-08-14T09:50:55Z</time>
      </trkpt>
      <trkpt lat="45.6826" lon="6.65198">
        <ele>2065.53</ele>
        <time>2014-08-14T09:50:59Z</time>
      </trkpt>
      <trkpt lat="45.68263" lon="6.65198">
        <ele>2065.53</ele>
        <time>2014-08-14T09:51:00Z</time>
      </trkpt>
      <trkpt lat="45.68265" lon="6.65197">
        <ele>2065.53</ele>
        <time>2014-08-14T09:51:01Z</time>
      </trkpt>
      <trkpt lat="45.68266" lon="6.65196">
        <ele>2065.53</ele>
        <time>2014-08-14T09:51:02Z</time>
      </trkpt>
      <trkpt lat="45.68267" lon="6.65194">
        <ele>2065.53</ele>
        <time>2014-08-14T09:51:03Z</time>
      </trkpt>
      <trkpt lat="45.68268" lon="6.65192">
        <ele>2065.53</ele>
        <time>2014-08-14T09:51:04Z</time>
      </trkpt>
      <trkpt lat="45.6827" lon="6.6519">
        <ele>2065.53</ele>
        <time>2014-08-14T09:51:05Z</time>
      </trkpt>
      <trkpt lat="45.68295" lon="6.65181">
        <ele>2068.41</ele>
        <time>2014-08-14T09:51:16Z</time>
      </trkpt>
      <trkpt lat="45.68312" lon="6.65191">
        <ele>2071.78</ele>
        <time>2014-08-14T09:51:26Z</time>
      </trkpt>
      <trkpt lat="45.68313" lon="6.65193">
        <ele>2071.78</ele>
        <time>2014-08-14T09:51:27Z</time>
      </trkpt>
      <trkpt lat="45.68325" lon="6.65215">
        <ele>2070.34</ele>
        <time>2014-08-14T09:51:35Z</time>
      </trkpt>
      <trkpt lat="45.68328" lon="6.65219">
        <ele>2070.34</ele>
        <time>2014-08-14T09:51:36Z</time>
      </trkpt>
      <trkpt lat="45.68339" lon="6.65232">
        <ele>2068.41</ele>
        <time>2014-08-14T09:51:39Z</time>
      </trkpt>
      <trkpt lat="45.68342" lon="6.65235">
        <ele>2067.45</ele>
        <time>2014-08-14T09:51:40Z</time>
      </trkpt>
      <trkpt lat="45.68346" lon="6.6524">
        <ele>2066.97</ele>
        <time>2014-08-14T09:51:41Z</time>
      </trkpt>
      <trkpt lat="45.68361" lon="6.65254">
        <ele>2064.09</ele>
        <time>2014-08-14T09:51:45Z</time>
      </trkpt>
      <trkpt lat="45.68369" lon="6.65258">
        <ele>2063.13</ele>
        <time>2014-08-14T09:51:47Z</time>
      </trkpt>
      <trkpt lat="45.68373" lon="6.65257">
        <ele>2062.17</ele>
        <time>2014-08-14T09:51:48Z</time>
      </trkpt>
      <trkpt lat="45.68378" lon="6.65256">
        <ele>2061.2</ele>
        <time>2014-08-14T09:51:49Z</time>
      </trkpt>
      <trkpt lat="45.68382" lon="6.65252">
        <ele>2060.72</ele>
        <time>2014-08-14T09:51:50Z</time>
      </trkpt>
      <trkpt lat="45.68385" lon="6.65249">
        <ele>2060.24</ele>
        <time>2014-08-14T09:51:51Z</time>
      </trkpt>
      <trkpt lat="45.68398" lon="6.65243">
        <ele>2057.36</ele>
        <time>2014-08-14T09:51:55Z</time>
      </trkpt>
      <trkpt lat="45.684" lon="6.65246">
        <ele>2057.36</ele>
        <time>2014-08-14T09:51:56Z</time>
      </trkpt>
      <trkpt lat="45.68402" lon="6.6525">
        <ele>2057.36</ele>
        <time>2014-08-14T09:51:57Z</time>
      </trkpt>
      <trkpt lat="45.68403" lon="6.65253">
        <ele>2057.36</ele>
        <time>2014-08-14T09:51:58Z</time>
      </trkpt>
      <trkpt lat="45.68405" lon="6.65256">
        <ele>2057.36</ele>
        <time>2014-08-14T09:51:59Z</time>
      </trkpt>
      <trkpt lat="45.68406" lon="6.6526">
        <ele>2056.88</ele>
        <time>2014-08-14T09:52:00Z</time>
      </trkpt>
      <trkpt lat="45.68407" lon="6.65264">
        <ele>2056.88</ele>
        <time>2014-08-14T09:52:01Z</time>
      </trkpt>
      <trkpt lat="45.68412" lon="6.6528">
        <ele>2056.4</ele>
        <time>2014-08-14T09:52:04Z</time>
      </trkpt>
      <trkpt lat="45.68428" lon="6.65324">
        <ele>2053.03</ele>
        <time>2014-08-14T09:52:11Z</time>
      </trkpt>
      <trkpt lat="45.68429" lon="6.6533">
        <ele>2052.07</ele>
        <time>2014-08-14T09:52:12Z</time>
      </trkpt>
      <trkpt lat="45.68433" lon="6.65353">
        <ele>2051.11</ele>
        <time>2014-08-14T09:52:15Z</time>
      </trkpt>
      <trkpt lat="45.68435" lon="6.65367">
        <ele>2050.15</ele>
        <time>2014-08-14T09:52:17Z</time>
      </trkpt>
      <trkpt lat="45.68436" lon="6.65386">
        <ele>2047.26</ele>
        <time>2014-08-14T09:52:20Z</time>
      </trkpt>
      <trkpt lat="45.68437" lon="6.65392">
        <ele>2046.78</ele>
        <time>2014-08-14T09:52:21Z</time>
      </trkpt>
      <trkpt lat="45.68439" lon="6.65397">
        <ele>2046.3</ele>
        <time>2014-08-14T09:52:22Z</time>
      </trkpt>
      <trkpt lat="45.68441" lon="6.65402">
        <ele>2045.82</ele>
        <time>2014-08-14T09:52:23Z</time>
      </trkpt>
      <trkpt lat="45.68445" lon="6.65406">
        <ele>2045.34</ele>
        <time>2014-08-14T09:52:24Z</time>
      </trkpt>
      <trkpt lat="45.6845" lon="6.65412">
        <ele>2044.38</ele>
        <time>2014-08-14T09:52:25Z</time>
      </trkpt>
      <trkpt lat="45.68455" lon="6.65417">
        <ele>2043.42</ele>
        <time>2014-08-14T09:52:26Z</time>
      </trkpt>
      <trkpt lat="45.6846" lon="6.65423">
        <ele>2042.46</ele>
        <time>2014-08-14T09:52:27Z</time>
      </trkpt>
      <trkpt lat="45.68465" lon="6.65428">
        <ele>2041.5</ele>
        <time>2014-08-14T09:52:28Z</time>
      </trkpt>
      <trkpt lat="45.68469" lon="6.65431">
        <ele>2040.54</ele>
        <time>2014-08-14T09:52:29Z</time>
      </trkpt>
      <trkpt lat="45.68475" lon="6.65436">
        <ele>2039.09</ele>
        <time>2014-08-14T09:52:31Z</time>
      </trkpt>
      <trkpt lat="45.68475" lon="6.6544">
        <ele>2038.61</ele>
        <time>2014-08-14T09:52:32Z</time>
      </trkpt>
      <trkpt lat="45.68474" lon="6.65444">
        <ele>2038.61</ele>
        <time>2014-08-14T09:52:33Z</time>
      </trkpt>
      <trkpt lat="45.6847" lon="6.65446">
        <ele>2037.65</ele>
        <time>2014-08-14T09:52:34Z</time>
      </trkpt>
      <trkpt lat="45.68466" lon="6.65446">
        <ele>2037.17</ele>
        <time>2014-08-14T09:52:35Z</time>
      </trkpt>
      <trkpt lat="45.6846" lon="6.65444">
        <ele>2036.21</ele>
        <time>2014-08-14T09:52:36Z</time>
      </trkpt>
      <trkpt lat="45.68454" lon="6.65444">
        <ele>2035.25</ele>
        <time>2014-08-14T09:52:37Z</time>
      </trkpt>
      <trkpt lat="45.68449" lon="6.65444">
        <ele>2035.25</ele>
        <time>2014-08-14T09:52:38Z</time>
      </trkpt>
      <trkpt lat="45.6843" lon="6.65452">
        <ele>2032.36</ele>
        <time>2014-08-14T09:52:43Z</time>
      </trkpt>
      <trkpt lat="45.6842" lon="6.6546">
        <ele>2030.92</ele>
        <time>2014-08-14T09:52:46Z</time>
      </trkpt>
      <trkpt lat="45.6842" lon="6.65462">
        <ele>2030.92</ele>
        <time>2014-08-14T09:52:47Z</time>
      </trkpt>
      <trkpt lat="45.68421" lon="6.65463">
        <ele>2030.92</ele>
        <time>2014-08-14T09:52:56Z</time>
      </trkpt>
      <trkpt lat="45.68421" lon="6.65461">
        <ele>2030.92</ele>
        <time>2014-08-14T09:52:57Z</time>
      </trkpt>
      <trkpt lat="45.68422" lon="6.65458">
        <ele>2030.92</ele>
        <time>2014-08-14T09:52:58Z</time>
      </trkpt>
      <trkpt lat="45.68424" lon="6.65453">
        <ele>2030.92</ele>
        <time>2014-08-14T09:53:00Z</time>
      </trkpt>
      <trkpt lat="45.68426" lon="6.65451">
        <ele>2030.92</ele>
        <time>2014-08-14T09:53:01Z</time>
      </trkpt>
      <trkpt lat="45.68428" lon="6.6545">
        <ele>2030.92</ele>
        <time>2014-08-14T09:53:02Z</time>
      </trkpt>
      <trkpt lat="45.6843" lon="6.65448">
        <ele>2030.92</ele>
        <time>2014-08-14T09:53:03Z</time>
      </trkpt>
      <trkpt lat="45.68432" lon="6.65448">
        <ele>2032.36</ele>
        <time>2014-08-14T09:53:04Z</time>
      </trkpt>
      <trkpt lat="45.68434" lon="6.65447">
        <ele>2032.36</ele>
        <time>2014-08-14T09:53:05Z</time>
      </trkpt>
      <trkpt lat="45.68436" lon="6.65448">
        <ele>2032.84</ele>
        <time>2014-08-14T09:53:06Z</time>
      </trkpt>
      <trkpt lat="45.68437" lon="6.65449">
        <ele>2032.84</ele>
        <time>2014-08-14T09:53:07Z</time>
      </trkpt>
      <trkpt lat="45.68452" lon="6.65465">
        <ele>2029.48</ele>
        <time>2014-08-14T09:53:13Z</time>
      </trkpt>
      <trkpt lat="45.68462" lon="6.65477">
        <ele>2027.56</ele>
        <time>2014-08-14T09:53:22Z</time>
      </trkpt>
      <trkpt lat="45.68463" lon="6.65476">
        <ele>2028.52</ele>
        <time>2014-08-14T09:53:34Z</time>
      </trkpt>
      <trkpt lat="45.68465" lon="6.65475">
        <ele>2028.52</ele>
        <time>2014-08-14T09:53:37Z</time>
      </trkpt>
      <trkpt lat="45.68466" lon="6.65476">
        <ele>2028.52</ele>
        <time>2014-08-14T09:53:38Z</time>
      </trkpt>
      <trkpt lat="45.68468" lon="6.65477">
        <ele>2028.52</ele>
        <time>2014-08-14T09:53:39Z</time>
      </trkpt>
      <trkpt lat="45.68469" lon="6.65477">
        <ele>2028.52</ele>
        <time>2014-08-14T09:53:40Z</time>
      </trkpt>
      <trkpt lat="45.6847" lon="6.65477">
        <ele>2028.52</ele>
        <time>2014-08-14T09:53:41Z</time>
      </trkpt>
      <trkpt lat="45.68471" lon="6.65482">
        <ele>2029</ele>
        <time>2014-08-14T09:53:49Z</time>
      </trkpt>
      <trkpt lat="45.68472" lon="6.65485">
        <ele>2028.04</ele>
        <time>2014-08-14T09:53:52Z</time>
      </trkpt>
      <trkpt lat="45.68474" lon="6.65486">
        <ele>2027.08</ele>
        <time>2014-08-14T09:53:54Z</time>
      </trkpt>
      <trkpt lat="45.68475" lon="6.65487">
        <ele>2027.08</ele>
        <time>2014-08-14T09:53:55Z</time>
      </trkpt>
      <trkpt lat="45.68476" lon="6.65488">
        <ele>2026.6</ele>
        <time>2014-08-14T09:53:56Z</time>
      </trkpt>
      <trkpt lat="45.68475" lon="6.65492">
        <ele>2025.15</ele>
        <time>2014-08-14T09:54:02Z</time>
      </trkpt>
      <trkpt lat="45.68482" lon="6.65498">
        <ele>2022.75</ele>
        <time>2014-08-14T09:54:10Z</time>
      </trkpt>
      <trkpt lat="45.68485" lon="6.65503">
        <ele>2021.31</ele>
        <time>2014-08-14T09:54:15Z</time>
      </trkpt>
      <trkpt lat="45.68486" lon="6.65504">
        <ele>2020.35</ele>
        <time>2014-08-14T09:54:16Z</time>
      </trkpt>
      <trkpt lat="45.68487" lon="6.65505">
        <ele>2020.35</ele>
        <time>2014-08-14T09:54:17Z</time>
      </trkpt>
      <trkpt lat="45.68495" lon="6.65508">
        <ele>2017.94</ele>
        <time>2014-08-14T09:54:27Z</time>
      </trkpt>
      <trkpt lat="45.68497" lon="6.65512">
        <ele>2017.94</ele>
        <time>2014-08-14T09:54:38Z</time>
      </trkpt>
      <trkpt lat="45.68495" lon="6.6551">
        <ele>2017.94</ele>
        <time>2014-08-14T09:55:11Z</time>
      </trkpt>
      <trkpt lat="45.68498" lon="6.65515">
        <ele>2016.98</ele>
        <time>2014-08-14T09:55:25Z</time>
      </trkpt>
      <trkpt lat="45.68499" lon="6.6552">
        <ele>2014.58</ele>
        <time>2014-08-14T09:55:42Z</time>
      </trkpt>
      <trkpt lat="45.68498" lon="6.65521">
        <ele>2014.58</ele>
        <time>2014-08-14T09:55:43Z</time>
      </trkpt>
      <trkpt lat="45.68498" lon="6.65522">
        <ele>2014.58</ele>
        <time>2014-08-14T09:55:44Z</time>
      </trkpt>
      <trkpt lat="45.68495" lon="6.65526">
        <ele>2013.62</ele>
        <time>2014-08-14T09:55:47Z</time>
      </trkpt>
      <trkpt lat="45.68493" lon="6.65528">
        <ele>2012.66</ele>
        <time>2014-08-14T09:55:48Z</time>
      </trkpt>
      <trkpt lat="45.68492" lon="6.65528">
        <ele>2012.66</ele>
        <time>2014-08-14T09:55:49Z</time>
      </trkpt>
      <trkpt lat="45.68491" lon="6.6553">
        <ele>2012.66</ele>
        <time>2014-08-14T09:55:50Z</time>
      </trkpt>
      <trkpt lat="45.6849" lon="6.65531">
        <ele>2012.66</ele>
        <time>2014-08-14T09:55:51Z</time>
      </trkpt>
      <trkpt lat="45.68488" lon="6.65532">
        <ele>2011.7</ele>
        <time>2014-08-14T09:55:52Z</time>
      </trkpt>
      <trkpt lat="45.6848" lon="6.65539">
        <ele>2008.81</ele>
        <time>2014-08-14T09:56:02Z</time>
      </trkpt>
      <trkpt lat="45.68479" lon="6.6554">
        <ele>2008.81</ele>
        <time>2014-08-14T09:56:03Z</time>
      </trkpt>
      <trkpt lat="45.68478" lon="6.65541">
        <ele>2008.81</ele>
        <time>2014-08-14T09:56:04Z</time>
      </trkpt>
      <trkpt lat="45.68476" lon="6.65541">
        <ele>2008.81</ele>
        <time>2014-08-14T09:56:05Z</time>
      </trkpt>
      <trkpt lat="45.68475" lon="6.65541">
        <ele>2008.33</ele>
        <time>2014-08-14T09:56:06Z</time>
      </trkpt>
      <trkpt lat="45.68473" lon="6.65542">
        <ele>2008.33</ele>
        <time>2014-08-14T09:56:07Z</time>
      </trkpt>
      <trkpt lat="45.68468" lon="6.65543">
        <ele>2006.41</ele>
        <time>2014-08-14T09:56:18Z</time>
      </trkpt>
      <trkpt lat="45.6847" lon="6.65549">
        <ele>2004.49</ele>
        <time>2014-08-14T09:56:26Z</time>
      </trkpt>
      <trkpt lat="45.68471" lon="6.65551">
        <ele>2004.49</ele>
        <time>2014-08-14T09:56:27Z</time>
      </trkpt>
      <trkpt lat="45.68472" lon="6.65552">
        <ele>2004.01</ele>
        <time>2014-08-14T09:56:28Z</time>
      </trkpt>
      <trkpt lat="45.68475" lon="6.65552">
        <ele>2003.04</ele>
        <time>2014-08-14T09:56:40Z</time>
      </trkpt>
      <trkpt lat="45.68478" lon="6.65556">
        <ele>2001.6</ele>
        <time>2014-08-14T09:56:49Z</time>
      </trkpt>
      <trkpt lat="45.68479" lon="6.65557">
        <ele>2001.12</ele>
        <time>2014-08-14T09:56:50Z</time>
      </trkpt>
      <trkpt lat="45.6848" lon="6.65558">
        <ele>2001.12</ele>
        <time>2014-08-14T09:56:51Z</time>
      </trkpt>
      <trkpt lat="45.68482" lon="6.65559">
        <ele>2000.64</ele>
        <time>2014-08-14T09:56:54Z</time>
      </trkpt>
      <trkpt lat="45.68485" lon="6.65562">
        <ele>1999.68</ele>
        <time>2014-08-14T09:56:57Z</time>
      </trkpt>
      <trkpt lat="45.68487" lon="6.65562">
        <ele>1999.68</ele>
        <time>2014-08-14T09:56:58Z</time>
      </trkpt>
      <trkpt lat="45.68488" lon="6.65563">
        <ele>1999.2</ele>
        <time>2014-08-14T09:56:59Z</time>
      </trkpt>
      <trkpt lat="45.68489" lon="6.65563">
        <ele>1999.2</ele>
        <time>2014-08-14T09:57:00Z</time>
      </trkpt>
      <trkpt lat="45.68491" lon="6.65563">
        <ele>1999.2</ele>
        <time>2014-08-14T09:57:01Z</time>
      </trkpt>
      <trkpt lat="45.68495" lon="6.65564">
        <ele>1998.24</ele>
        <time>2014-08-14T09:57:12Z</time>
      </trkpt>
      <trkpt lat="45.685" lon="6.65567">
        <ele>1997.28</ele>
        <time>2014-08-14T09:57:19Z</time>
      </trkpt>
      <trkpt lat="45.68497" lon="6.65578">
        <ele>1995.35</ele>
        <time>2014-08-14T09:57:32Z</time>
      </trkpt>
      <trkpt lat="45.68492" lon="6.65584">
        <ele>1992.47</ele>
        <time>2014-08-14T09:57:43Z</time>
      </trkpt>
      <trkpt lat="45.6849" lon="6.65584">
        <ele>1991.51</ele>
        <time>2014-08-14T09:57:44Z</time>
      </trkpt>
      <trkpt lat="45.68489" lon="6.65585">
        <ele>1991.03</ele>
        <time>2014-08-14T09:57:45Z</time>
      </trkpt>
      <trkpt lat="45.68488" lon="6.65585">
        <ele>1991.03</ele>
        <time>2014-08-14T09:57:46Z</time>
      </trkpt>
      <trkpt lat="45.68487" lon="6.65587">
        <ele>1990.55</ele>
        <time>2014-08-14T09:57:49Z</time>
      </trkpt>
      <trkpt lat="45.68486" lon="6.65588">
        <ele>1990.07</ele>
        <time>2014-08-14T09:57:50Z</time>
      </trkpt>
      <trkpt lat="45.68484" lon="6.6559">
        <ele>1989.59</ele>
        <time>2014-08-14T09:57:52Z</time>
      </trkpt>
      <trkpt lat="45.68478" lon="6.65592">
        <ele>1988.14</ele>
        <time>2014-08-14T09:58:01Z</time>
      </trkpt>
      <trkpt lat="45.6847" lon="6.65596">
        <ele>1985.74</ele>
        <time>2014-08-14T09:58:13Z</time>
      </trkpt>
      <trkpt lat="45.68471" lon="6.65597">
        <ele>1985.26</ele>
        <time>2014-08-14T09:58:14Z</time>
      </trkpt>
      <trkpt lat="45.68472" lon="6.65598">
        <ele>1985.26</ele>
        <time>2014-08-14T09:58:15Z</time>
      </trkpt>
      <trkpt lat="45.68473" lon="6.65598">
        <ele>1984.78</ele>
        <time>2014-08-14T09:58:16Z</time>
      </trkpt>
      <trkpt lat="45.68474" lon="6.65599">
        <ele>1984.78</ele>
        <time>2014-08-14T09:58:17Z</time>
      </trkpt>
      <trkpt lat="45.68475" lon="6.656">
        <ele>1984.3</ele>
        <time>2014-08-14T09:58:18Z</time>
      </trkpt>
      <trkpt lat="45.68476" lon="6.65601">
        <ele>1983.82</ele>
        <time>2014-08-14T09:58:19Z</time>
      </trkpt>
      <trkpt lat="45.68477" lon="6.65602">
        <ele>1983.82</ele>
        <time>2014-08-14T09:58:20Z</time>
      </trkpt>
      <trkpt lat="45.68482" lon="6.65608">
        <ele>1981.9</ele>
        <time>2014-08-14T09:58:31Z</time>
      </trkpt>
      <trkpt lat="45.68482" lon="6.6561">
        <ele>1981.9</ele>
        <time>2014-08-14T09:58:45Z</time>
      </trkpt>
      <trkpt lat="45.68496" lon="6.65611">
        <ele>1979.01</ele>
        <time>2014-08-14T09:58:57Z</time>
      </trkpt>
      <trkpt lat="45.68498" lon="6.65613">
        <ele>1977.57</ele>
        <time>2014-08-14T09:59:08Z</time>
      </trkpt>
      <trkpt lat="45.685" lon="6.65614">
        <ele>1977.57</ele>
        <time>2014-08-14T09:59:10Z</time>
      </trkpt>
      <trkpt lat="45.68505" lon="6.65616">
        <ele>1976.13</ele>
        <time>2014-08-14T09:59:15Z</time>
      </trkpt>
      <trkpt lat="45.68512" lon="6.6562">
        <ele>1973.72</ele>
        <time>2014-08-14T09:59:27Z</time>
      </trkpt>
      <trkpt lat="45.68515" lon="6.65625">
        <ele>1971.8</ele>
        <time>2014-08-14T09:59:36Z</time>
      </trkpt>
      <trkpt lat="45.68515" lon="6.65627">
        <ele>1971.8</ele>
        <time>2014-08-14T09:59:37Z</time>
      </trkpt>
      <trkpt lat="45.68517" lon="6.65629">
        <ele>1971.32</ele>
        <time>2014-08-14T09:59:39Z</time>
      </trkpt>
      <trkpt lat="45.68521" lon="6.65635">
        <ele>1969.4</ele>
        <time>2014-08-14T09:59:46Z</time>
      </trkpt>
      <trkpt lat="45.68519" lon="6.65637">
        <ele>1969.4</ele>
        <time>2014-08-14T09:59:48Z</time>
      </trkpt>
      <trkpt lat="45.68516" lon="6.6564">
        <ele>1968.44</ele>
        <time>2014-08-14T09:59:51Z</time>
      </trkpt>
      <trkpt lat="45.68513" lon="6.65642">
        <ele>1967.48</ele>
        <time>2014-08-14T09:59:54Z</time>
      </trkpt>
      <trkpt lat="45.68503" lon="6.65647">
        <ele>1964.59</ele>
        <time>2014-08-14T10:00:04Z</time>
      </trkpt>
      <trkpt lat="45.68502" lon="6.65648">
        <ele>1964.11</ele>
        <time>2014-08-14T10:00:05Z</time>
      </trkpt>
      <trkpt lat="45.68501" lon="6.65648">
        <ele>1963.63</ele>
        <time>2014-08-14T10:00:06Z</time>
      </trkpt>
      <trkpt lat="45.68496" lon="6.65651">
        <ele>1961.71</ele>
        <time>2014-08-14T10:00:11Z</time>
      </trkpt>
      <trkpt lat="45.68498" lon="6.65654">
        <ele>1960.75</ele>
        <time>2014-08-14T10:00:16Z</time>
      </trkpt>
      <trkpt lat="45.68507" lon="6.6566">
        <ele>1960.27</ele>
        <time>2014-08-14T10:00:28Z</time>
      </trkpt>
      <trkpt lat="45.68515" lon="6.65669">
        <ele>1957.38</ele>
        <time>2014-08-14T10:00:40Z</time>
      </trkpt>
      <trkpt lat="45.68518" lon="6.65673">
        <ele>1956.42</ele>
        <time>2014-08-14T10:00:45Z</time>
      </trkpt>
      <trkpt lat="45.68521" lon="6.65676">
        <ele>1955.94</ele>
        <time>2014-08-14T10:00:48Z</time>
      </trkpt>
      <trkpt lat="45.68522" lon="6.65677">
        <ele>1955.46</ele>
        <time>2014-08-14T10:00:50Z</time>
      </trkpt>
      <trkpt lat="45.68523" lon="6.65679">
        <ele>1955.46</ele>
        <time>2014-08-14T10:00:51Z</time>
      </trkpt>
      <trkpt lat="45.68524" lon="6.6568">
        <ele>1955.46</ele>
        <time>2014-08-14T10:00:52Z</time>
      </trkpt>
      <trkpt lat="45.68527" lon="6.6568">
        <ele>1953.54</ele>
        <time>2014-08-14T10:00:58Z</time>
      </trkpt>
      <trkpt lat="45.68532" lon="6.6568">
        <ele>1951.61</ele>
        <time>2014-08-14T10:01:04Z</time>
      </trkpt>
      <trkpt lat="45.68536" lon="6.65681">
        <ele>1950.65</ele>
        <time>2014-08-14T10:01:09Z</time>
      </trkpt>
      <trkpt lat="45.68537" lon="6.65681">
        <ele>1950.65</ele>
        <time>2014-08-14T10:01:10Z</time>
      </trkpt>
      <trkpt lat="45.68539" lon="6.65684">
        <ele>1949.69</ele>
        <time>2014-08-14T10:01:12Z</time>
      </trkpt>
      <trkpt lat="45.68541" lon="6.65688">
        <ele>1948.25</ele>
        <time>2014-08-14T10:01:16Z</time>
      </trkpt>
      <trkpt lat="45.68545" lon="6.65691">
        <ele>1946.81</ele>
        <time>2014-08-14T10:01:21Z</time>
      </trkpt>
      <trkpt lat="45.68556" lon="6.65692">
        <ele>1943.44</ele>
        <time>2014-08-14T10:01:30Z</time>
      </trkpt>
      <trkpt lat="45.68559" lon="6.65691">
        <ele>1942.96</ele>
        <time>2014-08-14T10:01:41Z</time>
      </trkpt>
      <trkpt lat="45.6856" lon="6.65692">
        <ele>1942.48</ele>
        <time>2014-08-14T10:01:42Z</time>
      </trkpt>
      <trkpt lat="45.68561" lon="6.65692">
        <ele>1942.48</ele>
        <time>2014-08-14T10:01:43Z</time>
      </trkpt>
      <trkpt lat="45.68562" lon="6.65692">
        <ele>1942.48</ele>
        <time>2014-08-14T10:01:44Z</time>
      </trkpt>
      <trkpt lat="45.68563" lon="6.65691">
        <ele>1942</ele>
        <time>2014-08-14T10:01:45Z</time>
      </trkpt>
      <trkpt lat="45.68564" lon="6.65691">
        <ele>1942</ele>
        <time>2014-08-14T10:01:46Z</time>
      </trkpt>
      <trkpt lat="45.68566" lon="6.65691">
        <ele>1941.52</ele>
        <time>2014-08-14T10:01:47Z</time>
      </trkpt>
      <trkpt lat="45.68568" lon="6.65691">
        <ele>1941.52</ele>
        <time>2014-08-14T10:01:48Z</time>
      </trkpt>
      <trkpt lat="45.68583" lon="6.65688">
        <ele>1938.16</ele>
        <time>2014-08-14T10:01:59Z</time>
      </trkpt>
      <trkpt lat="45.68585" lon="6.65687">
        <ele>1937.67</ele>
        <time>2014-08-14T10:02:05Z</time>
      </trkpt>
      <trkpt lat="45.68586" lon="6.65687">
        <ele>1937.67</ele>
        <time>2014-08-14T10:02:06Z</time>
      </trkpt>
      <trkpt lat="45.68587" lon="6.65688">
        <ele>1936.71</ele>
        <time>2014-08-14T10:02:07Z</time>
      </trkpt>
      <trkpt lat="45.68589" lon="6.65687">
        <ele>1936.71</ele>
        <time>2014-08-14T10:02:08Z</time>
      </trkpt>
      <trkpt lat="45.6859" lon="6.65686">
        <ele>1936.23</ele>
        <time>2014-08-14T10:02:09Z</time>
      </trkpt>
      <trkpt lat="45.68593" lon="6.65681">
        <ele>1934.79</ele>
        <time>2014-08-14T10:02:13Z</time>
      </trkpt>
      <trkpt lat="45.68595" lon="6.6568">
        <ele>1934.79</ele>
        <time>2014-08-14T10:02:14Z</time>
      </trkpt>
      <trkpt lat="45.68596" lon="6.65679">
        <ele>1934.79</ele>
        <time>2014-08-14T10:02:15Z</time>
      </trkpt>
      <trkpt lat="45.68597" lon="6.65679">
        <ele>1934.31</ele>
        <time>2014-08-14T10:02:16Z</time>
      </trkpt>
      <trkpt lat="45.68598" lon="6.6568">
        <ele>1933.83</ele>
        <time>2014-08-14T10:02:17Z</time>
      </trkpt>
      <trkpt lat="45.686" lon="6.65681">
        <ele>1933.35</ele>
        <time>2014-08-14T10:02:19Z</time>
      </trkpt>
      <trkpt lat="45.68601" lon="6.6569">
        <ele>1931.43</ele>
        <time>2014-08-14T10:02:24Z</time>
      </trkpt>
      <trkpt lat="45.68603" lon="6.65691">
        <ele>1931.43</ele>
        <time>2014-08-14T10:02:25Z</time>
      </trkpt>
      <trkpt lat="45.68607" lon="6.6569">
        <ele>1929.98</ele>
        <time>2014-08-14T10:02:28Z</time>
      </trkpt>
      <trkpt lat="45.68608" lon="6.6569">
        <ele>1929.98</ele>
        <time>2014-08-14T10:02:29Z</time>
      </trkpt>
      <trkpt lat="45.68609" lon="6.65692">
        <ele>1929.5</ele>
        <time>2014-08-14T10:02:33Z</time>
      </trkpt>
      <trkpt lat="45.68608" lon="6.65693">
        <ele>1929.02</ele>
        <time>2014-08-14T10:02:44Z</time>
      </trkpt>
      <trkpt lat="45.68611" lon="6.65692">
        <ele>1929.02</ele>
        <time>2014-08-14T10:03:04Z</time>
      </trkpt>
      <trkpt lat="45.68613" lon="6.65696">
        <ele>1929.02</ele>
        <time>2014-08-14T10:03:13Z</time>
      </trkpt>
      <trkpt lat="45.68628" lon="6.65688">
        <ele>1927.1</ele>
        <time>2014-08-14T10:03:27Z</time>
      </trkpt>
      <trkpt lat="45.68629" lon="6.65688">
        <ele>1926.62</ele>
        <time>2014-08-14T10:03:28Z</time>
      </trkpt>
      <trkpt lat="45.6863" lon="6.65687">
        <ele>1926.62</ele>
        <time>2014-08-14T10:03:29Z</time>
      </trkpt>
      <trkpt lat="45.68631" lon="6.65685">
        <ele>1926.62</ele>
        <time>2014-08-14T10:03:30Z</time>
      </trkpt>
      <trkpt lat="45.68631" lon="6.65683">
        <ele>1925.66</ele>
        <time>2014-08-14T10:03:31Z</time>
      </trkpt>
      <trkpt lat="45.68634" lon="6.6568">
        <ele>1925.18</ele>
        <time>2014-08-14T10:03:39Z</time>
      </trkpt>
      <trkpt lat="45.68635" lon="6.65679">
        <ele>1925.18</ele>
        <time>2014-08-14T10:03:40Z</time>
      </trkpt>
      <trkpt lat="45.68638" lon="6.65675">
        <ele>1924.22</ele>
        <time>2014-08-14T10:03:44Z</time>
      </trkpt>
      <trkpt lat="45.68639" lon="6.65674">
        <ele>1923.74</ele>
        <time>2014-08-14T10:03:45Z</time>
      </trkpt>
      <trkpt lat="45.68654" lon="6.65673">
        <ele>1920.85</ele>
        <time>2014-08-14T10:03:52Z</time>
      </trkpt>
      <trkpt lat="45.68657" lon="6.65673">
        <ele>1920.85</ele>
        <time>2014-08-14T10:03:53Z</time>
      </trkpt>
      <trkpt lat="45.6867" lon="6.65679">
        <ele>1917.01</ele>
        <time>2014-08-14T10:04:00Z</time>
      </trkpt>
      <trkpt lat="45.68676" lon="6.65682">
        <ele>1916.04</ele>
        <time>2014-08-14T10:04:02Z</time>
      </trkpt>
      <trkpt lat="45.68687" lon="6.65689">
        <ele>1913.16</ele>
        <time>2014-08-14T10:04:08Z</time>
      </trkpt>
      <trkpt lat="45.68696" lon="6.65696">
        <ele>1910.28</ele>
        <time>2014-08-14T10:04:18Z</time>
      </trkpt>
      <trkpt lat="45.68698" lon="6.65696">
        <ele>1910.28</ele>
        <time>2014-08-14T10:04:19Z</time>
      </trkpt>
      <trkpt lat="45.6871" lon="6.65698">
        <ele>1907.39</ele>
        <time>2014-08-14T10:04:25Z</time>
      </trkpt>
      <trkpt lat="45.68717" lon="6.65703">
        <ele>1905.47</ele>
        <time>2014-08-14T10:04:29Z</time>
      </trkpt>
      <trkpt lat="45.68718" lon="6.65705">
        <ele>1905.47</ele>
        <time>2014-08-14T10:04:30Z</time>
      </trkpt>
      <trkpt lat="45.68719" lon="6.65707">
        <ele>1904.99</ele>
        <time>2014-08-14T10:04:31Z</time>
      </trkpt>
      <trkpt lat="45.68722" lon="6.6571">
        <ele>1904.51</ele>
        <time>2014-08-14T10:04:34Z</time>
      </trkpt>
      <trkpt lat="45.68733" lon="6.65713">
        <ele>1903.07</ele>
        <time>2014-08-14T10:04:44Z</time>
      </trkpt>
      <trkpt lat="45.68734" lon="6.65718">
        <ele>1902.59</ele>
        <time>2014-08-14T10:04:52Z</time>
      </trkpt>
      <trkpt lat="45.68734" lon="6.65719">
        <ele>1902.11</ele>
        <time>2014-08-14T10:04:53Z</time>
      </trkpt>
      <trkpt lat="45.68735" lon="6.6572">
        <ele>1902.11</ele>
        <time>2014-08-14T10:04:54Z</time>
      </trkpt>
      <trkpt lat="45.68744" lon="6.65726">
        <ele>1902.59</ele>
        <time>2014-08-14T10:05:07Z</time>
      </trkpt>
      <trkpt lat="45.68744" lon="6.65728">
        <ele>1902.59</ele>
        <time>2014-08-14T10:05:08Z</time>
      </trkpt>
      <trkpt lat="45.68743" lon="6.65731">
        <ele>1902.59</ele>
        <time>2014-08-14T10:05:26Z</time>
      </trkpt>
      <trkpt lat="45.68747" lon="6.65731">
        <ele>1902.59</ele>
        <time>2014-08-14T10:05:41Z</time>
      </trkpt>
      <trkpt lat="45.68749" lon="6.65732">
        <ele>1902.59</ele>
        <time>2014-08-14T10:05:42Z</time>
      </trkpt>
      <trkpt lat="45.68751" lon="6.65734">
        <ele>1902.59</ele>
        <time>2014-08-14T10:05:43Z</time>
      </trkpt>
      <trkpt lat="45.68773" lon="6.65755">
        <ele>1899.7</ele>
        <time>2014-08-14T10:05:53Z</time>
      </trkpt>
      <trkpt lat="45.68776" lon="6.65756">
        <ele>1899.22</ele>
        <time>2014-08-14T10:05:54Z</time>
      </trkpt>
      <trkpt lat="45.68796" lon="6.65757">
        <ele>1896.34</ele>
        <time>2014-08-14T10:06:00Z</time>
      </trkpt>
      <trkpt lat="45.68801" lon="6.65758">
        <ele>1895.38</ele>
        <time>2014-08-14T10:06:01Z</time>
      </trkpt>
      <trkpt lat="45.68805" lon="6.65759">
        <ele>1895.38</ele>
        <time>2014-08-14T10:06:02Z</time>
      </trkpt>
      <trkpt lat="45.68827" lon="6.6576">
        <ele>1892.49</ele>
        <time>2014-08-14T10:06:09Z</time>
      </trkpt>
      <trkpt lat="45.6885" lon="6.6576">
        <ele>1890.57</ele>
        <time>2014-08-14T10:06:13Z</time>
      </trkpt>
      <trkpt lat="45.68856" lon="6.65759">
        <ele>1890.09</ele>
        <time>2014-08-14T10:06:14Z</time>
      </trkpt>
      <trkpt lat="45.68862" lon="6.65756">
        <ele>1888.65</ele>
        <time>2014-08-14T10:06:15Z</time>
      </trkpt>
      <trkpt lat="45.68868" lon="6.65753">
        <ele>1888.17</ele>
        <time>2014-08-14T10:06:16Z</time>
      </trkpt>
      <trkpt lat="45.68873" lon="6.6575">
        <ele>1887.69</ele>
        <time>2014-08-14T10:06:17Z</time>
      </trkpt>
      <trkpt lat="45.68878" lon="6.65747">
        <ele>1887.21</ele>
        <time>2014-08-14T10:06:18Z</time>
      </trkpt>
      <trkpt lat="45.68893" lon="6.65743">
        <ele>1886.24</ele>
        <time>2014-08-14T10:06:21Z</time>
      </trkpt>
      <trkpt lat="45.68898" lon="6.65745">
        <ele>1886.24</ele>
        <time>2014-08-14T10:06:22Z</time>
      </trkpt>
      <trkpt lat="45.68902" lon="6.6575">
        <ele>1886.24</ele>
        <time>2014-08-14T10:06:23Z</time>
      </trkpt>
      <trkpt lat="45.68905" lon="6.65755">
        <ele>1886.24</ele>
        <time>2014-08-14T10:06:24Z</time>
      </trkpt>
      <trkpt lat="45.68909" lon="6.65761">
        <ele>1886.24</ele>
        <time>2014-08-14T10:06:25Z</time>
      </trkpt>
      <trkpt lat="45.68932" lon="6.65797">
        <ele>1885.28</ele>
        <time>2014-08-14T10:06:34Z</time>
      </trkpt>
      <trkpt lat="45.68945" lon="6.65839">
        <ele>1887.69</ele>
        <time>2014-08-14T10:06:45Z</time>
      </trkpt>
      <trkpt lat="45.68949" lon="6.65865">
        <ele>1886.72</ele>
        <time>2014-08-14T10:06:51Z</time>
      </trkpt>
      <trkpt lat="45.68952" lon="6.65886">
        <ele>1884.32</ele>
        <time>2014-08-14T10:06:55Z</time>
      </trkpt>
      <trkpt lat="45.68968" lon="6.65908">
        <ele>1881.92</ele>
        <time>2014-08-14T10:07:01Z</time>
      </trkpt>
      <trkpt lat="45.68974" lon="6.65922">
        <ele>1881.44</ele>
        <time>2014-08-14T10:07:04Z</time>
      </trkpt>
      <trkpt lat="45.68976" lon="6.65927">
        <ele>1880.96</ele>
        <time>2014-08-14T10:07:05Z</time>
      </trkpt>
      <trkpt lat="45.68994" lon="6.65971">
        <ele>1879.51</ele>
        <time>2014-08-14T10:07:13Z</time>
      </trkpt>
      <trkpt lat="45.68997" lon="6.65975">
        <ele>1879.03</ele>
        <time>2014-08-14T10:07:14Z</time>
      </trkpt>
      <trkpt lat="45.6902" lon="6.66007">
        <ele>1878.07</ele>
        <time>2014-08-14T10:07:20Z</time>
      </trkpt>
      <trkpt lat="45.69025" lon="6.66012">
        <ele>1878.07</ele>
        <time>2014-08-14T10:07:21Z</time>
      </trkpt>
      <trkpt lat="45.69029" lon="6.66016">
        <ele>1878.55</ele>
        <time>2014-08-14T10:07:22Z</time>
      </trkpt>
      <trkpt lat="45.69034" lon="6.66019">
        <ele>1878.55</ele>
        <time>2014-08-14T10:07:23Z</time>
      </trkpt>
      <trkpt lat="45.69039" lon="6.66022">
        <ele>1878.55</ele>
        <time>2014-08-14T10:07:24Z</time>
      </trkpt>
      <trkpt lat="45.69043" lon="6.66023">
        <ele>1878.07</ele>
        <time>2014-08-14T10:07:25Z</time>
      </trkpt>
      <trkpt lat="45.69047" lon="6.66024">
        <ele>1878.07</ele>
        <time>2014-08-14T10:07:26Z</time>
      </trkpt>
      <trkpt lat="45.69052" lon="6.66026">
        <ele>1877.59</ele>
        <time>2014-08-14T10:07:27Z</time>
      </trkpt>
      <trkpt lat="45.69056" lon="6.6603">
        <ele>1877.59</ele>
        <time>2014-08-14T10:07:28Z</time>
      </trkpt>
      <trkpt lat="45.69059" lon="6.66034">
        <ele>1877.59</ele>
        <time>2014-08-14T10:07:29Z</time>
      </trkpt>
      <trkpt lat="45.69062" lon="6.66039">
        <ele>1877.59</ele>
        <time>2014-08-14T10:07:30Z</time>
      </trkpt>
      <trkpt lat="45.69064" lon="6.66044">
        <ele>1877.59</ele>
        <time>2014-08-14T10:07:31Z</time>
      </trkpt>
      <trkpt lat="45.69067" lon="6.66049">
        <ele>1877.59</ele>
        <time>2014-08-14T10:07:32Z</time>
      </trkpt>
      <trkpt lat="45.69069" lon="6.66053">
        <ele>1877.59</ele>
        <time>2014-08-14T10:07:33Z</time>
      </trkpt>
      <trkpt lat="45.69074" lon="6.66063">
        <ele>1877.59</ele>
        <time>2014-08-14T10:07:35Z</time>
      </trkpt>
      <trkpt lat="45.69079" lon="6.66072">
        <ele>1877.59</ele>
        <time>2014-08-14T10:07:37Z</time>
      </trkpt>
      <trkpt lat="45.69082" lon="6.66078">
        <ele>1877.59</ele>
        <time>2014-08-14T10:07:38Z</time>
      </trkpt>
      <trkpt lat="45.69089" lon="6.66095">
        <ele>1879.03</ele>
        <time>2014-08-14T10:07:41Z</time>
      </trkpt>
      <trkpt lat="45.69091" lon="6.66101">
        <ele>1879.03</ele>
        <time>2014-08-14T10:07:42Z</time>
      </trkpt>
      <trkpt lat="45.69091" lon="6.66108">
        <ele>1879.03</ele>
        <time>2014-08-14T10:07:43Z</time>
      </trkpt>
      <trkpt lat="45.69094" lon="6.66123">
        <ele>1879.03</ele>
        <time>2014-08-14T10:07:45Z</time>
      </trkpt>
      <trkpt lat="45.69095" lon="6.6613">
        <ele>1879.03</ele>
        <time>2014-08-14T10:07:46Z</time>
      </trkpt>
      <trkpt lat="45.69096" lon="6.66138">
        <ele>1879.03</ele>
        <time>2014-08-14T10:07:47Z</time>
      </trkpt>
      <trkpt lat="45.691" lon="6.6616">
        <ele>1879.51</ele>
        <time>2014-08-14T10:07:50Z</time>
      </trkpt>
      <trkpt lat="45.69102" lon="6.66167">
        <ele>1879.51</ele>
        <time>2014-08-14T10:07:51Z</time>
      </trkpt>
      <trkpt lat="45.69103" lon="6.66174">
        <ele>1879.51</ele>
        <time>2014-08-14T10:07:52Z</time>
      </trkpt>
      <trkpt lat="45.69105" lon="6.66181">
        <ele>1879.51</ele>
        <time>2014-08-14T10:07:53Z</time>
      </trkpt>
      <trkpt lat="45.69106" lon="6.66189">
        <ele>1879.51</ele>
        <time>2014-08-14T10:07:54Z</time>
      </trkpt>
      <trkpt lat="45.69114" lon="6.66222">
        <ele>1879.51</ele>
        <time>2014-08-14T10:07:58Z</time>
      </trkpt>
      <trkpt lat="45.69116" lon="6.6623">
        <ele>1879.51</ele>
        <time>2014-08-14T10:07:59Z</time>
      </trkpt>
      <trkpt lat="45.69133" lon="6.66319">
        <ele>1877.59</ele>
        <time>2014-08-14T10:08:09Z</time>
      </trkpt>
      <trkpt lat="45.69133" lon="6.66343">
        <ele>1876.63</ele>
        <time>2014-08-14T10:08:12Z</time>
      </trkpt>
      <trkpt lat="45.69132" lon="6.6635">
        <ele>1875.67</ele>
        <time>2014-08-14T10:08:13Z</time>
      </trkpt>
      <trkpt lat="45.69131" lon="6.66358">
        <ele>1875.67</ele>
        <time>2014-08-14T10:08:14Z</time>
      </trkpt>
      <trkpt lat="45.69131" lon="6.66366">
        <ele>1874.71</ele>
        <time>2014-08-14T10:08:15Z</time>
      </trkpt>
      <trkpt lat="45.69132" lon="6.66373">
        <ele>1874.23</ele>
        <time>2014-08-14T10:08:16Z</time>
      </trkpt>
      <trkpt lat="45.69133" lon="6.66379">
        <ele>1874.23</ele>
        <time>2014-08-14T10:08:17Z</time>
      </trkpt>
      <trkpt lat="45.69135" lon="6.66385">
        <ele>1873.27</ele>
        <time>2014-08-14T10:08:18Z</time>
      </trkpt>
      <trkpt lat="45.69136" lon="6.6639">
        <ele>1873.27</ele>
        <time>2014-08-14T10:08:19Z</time>
      </trkpt>
      <trkpt lat="45.69139" lon="6.66394">
        <ele>1872.3</ele>
        <time>2014-08-14T10:08:20Z</time>
      </trkpt>
      <trkpt lat="45.69144" lon="6.66403">
        <ele>1871.82</ele>
        <time>2014-08-14T10:08:22Z</time>
      </trkpt>
      <trkpt lat="45.69147" lon="6.66408">
        <ele>1870.38</ele>
        <time>2014-08-14T10:08:23Z</time>
      </trkpt>
      <trkpt lat="45.69149" lon="6.66412">
        <ele>1870.38</ele>
        <time>2014-08-14T10:08:24Z</time>
      </trkpt>
      <trkpt lat="45.69157" lon="6.66428">
        <ele>1868.46</ele>
        <time>2014-08-14T10:08:29Z</time>
      </trkpt>
      <trkpt lat="45.69174" lon="6.66459">
        <ele>1865.58</ele>
        <time>2014-08-14T10:08:39Z</time>
      </trkpt>
      <trkpt lat="45.69175" lon="6.66465">
        <ele>1864.61</ele>
        <time>2014-08-14T10:08:40Z</time>
      </trkpt>
      <trkpt lat="45.69177" lon="6.66478">
        <ele>1863.17</ele>
        <time>2014-08-14T10:08:42Z</time>
      </trkpt>
      <trkpt lat="45.69176" lon="6.66486">
        <ele>1862.69</ele>
        <time>2014-08-14T10:08:43Z</time>
      </trkpt>
      <trkpt lat="45.69174" lon="6.6651">
        <ele>1861.25</ele>
        <time>2014-08-14T10:08:46Z</time>
      </trkpt>
      <trkpt lat="45.69173" lon="6.66524">
        <ele>1859.81</ele>
        <time>2014-08-14T10:08:48Z</time>
      </trkpt>
      <trkpt lat="45.69172" lon="6.6653">
        <ele>1859.81</ele>
        <time>2014-08-14T10:08:49Z</time>
      </trkpt>
      <trkpt lat="45.69164" lon="6.66562">
        <ele>1857.89</ele>
        <time>2014-08-14T10:08:56Z</time>
      </trkpt>
      <trkpt lat="45.69162" lon="6.66568">
        <ele>1857.4</ele>
        <time>2014-08-14T10:08:57Z</time>
      </trkpt>
      <trkpt lat="45.69158" lon="6.6659">
        <ele>1855.96</ele>
        <time>2014-08-14T10:09:02Z</time>
      </trkpt>
      <trkpt lat="45.69156" lon="6.66592">
        <ele>1855.48</ele>
        <time>2014-08-14T10:09:03Z</time>
      </trkpt>
      <trkpt lat="45.69154" lon="6.66594">
        <ele>1855.48</ele>
        <time>2014-08-14T10:09:04Z</time>
      </trkpt>
      <trkpt lat="45.69151" lon="6.66595">
        <ele>1855.48</ele>
        <time>2014-08-14T10:09:14Z</time>
      </trkpt>
      <trkpt lat="45.69152" lon="6.66593">
        <ele>1855.48</ele>
        <time>2014-08-14T10:09:50Z</time>
      </trkpt>
      <trkpt lat="45.69152" lon="6.66592">
        <ele>1855.48</ele>
        <time>2014-08-14T10:09:52Z</time>
      </trkpt>
      <trkpt lat="45.69154" lon="6.66592">
        <ele>1855.48</ele>
        <time>2014-08-14T10:09:53Z</time>
      </trkpt>
      <trkpt lat="45.69157" lon="6.66594">
        <ele>1855</ele>
        <time>2014-08-14T10:09:55Z</time>
      </trkpt>
      <trkpt lat="45.69158" lon="6.66594">
        <ele>1855</ele>
        <time>2014-08-14T10:09:56Z</time>
      </trkpt>
      <trkpt lat="45.69163" lon="6.66597">
        <ele>1855</ele>
        <time>2014-08-14T10:09:59Z</time>
      </trkpt>
      <trkpt lat="45.69164" lon="6.66598">
        <ele>1855</ele>
        <time>2014-08-14T10:10:00Z</time>
      </trkpt>
      <trkpt lat="45.69187" lon="6.66599">
        <ele>1852.6</ele>
        <time>2014-08-14T10:10:08Z</time>
      </trkpt>
      <trkpt lat="45.69196" lon="6.66596">
        <ele>1852.12</ele>
        <time>2014-08-14T10:10:10Z</time>
      </trkpt>
      <trkpt lat="45.692" lon="6.66596">
        <ele>1851.64</ele>
        <time>2014-08-14T10:10:11Z</time>
      </trkpt>
      <trkpt lat="45.69209" lon="6.66596">
        <ele>1851.16</ele>
        <time>2014-08-14T10:10:13Z</time>
      </trkpt>
      <trkpt lat="45.69213" lon="6.66596">
        <ele>1850.68</ele>
        <time>2014-08-14T10:10:14Z</time>
      </trkpt>
      <trkpt lat="45.69217" lon="6.66595">
        <ele>1850.19</ele>
        <time>2014-08-14T10:10:15Z</time>
      </trkpt>
      <trkpt lat="45.69221" lon="6.66591">
        <ele>1850.19</ele>
        <time>2014-08-14T10:10:16Z</time>
      </trkpt>
      <trkpt lat="45.69223" lon="6.66585">
        <ele>1849.71</ele>
        <time>2014-08-14T10:10:17Z</time>
      </trkpt>
      <trkpt lat="45.69226" lon="6.6658">
        <ele>1849.23</ele>
        <time>2014-08-14T10:10:18Z</time>
      </trkpt>
      <trkpt lat="45.69235" lon="6.66563">
        <ele>1846.83</ele>
        <time>2014-08-14T10:10:21Z</time>
      </trkpt>
      <trkpt lat="45.69239" lon="6.6656">
        <ele>1846.83</ele>
        <time>2014-08-14T10:10:22Z</time>
      </trkpt>
      <trkpt lat="45.69242" lon="6.66558">
        <ele>1846.35</ele>
        <time>2014-08-14T10:10:23Z</time>
      </trkpt>
      <trkpt lat="45.69247" lon="6.66558">
        <ele>1846.35</ele>
        <time>2014-08-14T10:10:24Z</time>
      </trkpt>
      <trkpt lat="45.6925" lon="6.66561">
        <ele>1845.87</ele>
        <time>2014-08-14T10:10:25Z</time>
      </trkpt>
      <trkpt lat="45.69254" lon="6.66564">
        <ele>1845.87</ele>
        <time>2014-08-14T10:10:26Z</time>
      </trkpt>
      <trkpt lat="45.69257" lon="6.66568">
        <ele>1845.39</ele>
        <time>2014-08-14T10:10:27Z</time>
      </trkpt>
      <trkpt lat="45.6926" lon="6.66572">
        <ele>1844.91</ele>
        <time>2014-08-14T10:10:28Z</time>
      </trkpt>
      <trkpt lat="45.69262" lon="6.66576">
        <ele>1844.91</ele>
        <time>2014-08-14T10:10:29Z</time>
      </trkpt>
      <trkpt lat="45.69265" lon="6.6658">
        <ele>1844.43</ele>
        <time>2014-08-14T10:10:30Z</time>
      </trkpt>
      <trkpt lat="45.69267" lon="6.66583">
        <ele>1843.95</ele>
        <time>2014-08-14T10:10:31Z</time>
      </trkpt>
      <trkpt lat="45.6927" lon="6.66587">
        <ele>1843.47</ele>
        <time>2014-08-14T10:10:32Z</time>
      </trkpt>
      <trkpt lat="45.69272" lon="6.66592">
        <ele>1842.98</ele>
        <time>2014-08-14T10:10:33Z</time>
      </trkpt>
      <trkpt lat="45.69273" lon="6.66597">
        <ele>1842.02</ele>
        <time>2014-08-14T10:10:34Z</time>
      </trkpt>
      <trkpt lat="45.69273" lon="6.66603">
        <ele>1842.02</ele>
        <time>2014-08-14T10:10:35Z</time>
      </trkpt>
      <trkpt lat="45.69271" lon="6.66608">
        <ele>1841.54</ele>
        <time>2014-08-14T10:10:36Z</time>
      </trkpt>
      <trkpt lat="45.69269" lon="6.66611">
        <ele>1841.06</ele>
        <time>2014-08-14T10:10:37Z</time>
      </trkpt>
      <trkpt lat="45.69266" lon="6.66615">
        <ele>1841.06</ele>
        <time>2014-08-14T10:10:38Z</time>
      </trkpt>
      <trkpt lat="45.69263" lon="6.66619">
        <ele>1840.58</ele>
        <time>2014-08-14T10:10:39Z</time>
      </trkpt>
      <trkpt lat="45.6926" lon="6.66625">
        <ele>1839.62</ele>
        <time>2014-08-14T10:10:40Z</time>
      </trkpt>
      <trkpt lat="45.69257" lon="6.66632">
        <ele>1839.14</ele>
        <time>2014-08-14T10:10:41Z</time>
      </trkpt>
      <trkpt lat="45.69255" lon="6.66637">
        <ele>1838.18</ele>
        <time>2014-08-14T10:10:42Z</time>
      </trkpt>
      <trkpt lat="45.69253" lon="6.66642">
        <ele>1837.7</ele>
        <time>2014-08-14T10:10:43Z</time>
      </trkpt>
      <trkpt lat="45.6925" lon="6.66648">
        <ele>1837.22</ele>
        <time>2014-08-14T10:10:44Z</time>
      </trkpt>
      <trkpt lat="45.69248" lon="6.66672">
        <ele>1834.81</ele>
        <time>2014-08-14T10:10:49Z</time>
      </trkpt>
      <trkpt lat="45.69248" lon="6.66678">
        <ele>1834.33</ele>
        <time>2014-08-14T10:10:50Z</time>
      </trkpt>
      <trkpt lat="45.69245" lon="6.66684">
        <ele>1833.37</ele>
        <time>2014-08-14T10:10:51Z</time>
      </trkpt>
      <trkpt lat="45.69243" lon="6.6669">
        <ele>1833.37</ele>
        <time>2014-08-14T10:10:52Z</time>
      </trkpt>
      <trkpt lat="45.6924" lon="6.66694">
        <ele>1832.41</ele>
        <time>2014-08-14T10:10:53Z</time>
      </trkpt>
      <trkpt lat="45.69237" lon="6.66705">
        <ele>1831.93</ele>
        <time>2014-08-14T10:10:55Z</time>
      </trkpt>
      <trkpt lat="45.69236" lon="6.66711">
        <ele>1831.45</ele>
        <time>2014-08-14T10:10:56Z</time>
      </trkpt>
      <trkpt lat="45.69235" lon="6.66718">
        <ele>1831.45</ele>
        <time>2014-08-14T10:10:57Z</time>
      </trkpt>
      <trkpt lat="45.69234" lon="6.66726">
        <ele>1831.45</ele>
        <time>2014-08-14T10:10:58Z</time>
      </trkpt>
      <trkpt lat="45.69235" lon="6.66733">
        <ele>1830.49</ele>
        <time>2014-08-14T10:10:59Z</time>
      </trkpt>
      <trkpt lat="45.69236" lon="6.66739">
        <ele>1830.49</ele>
        <time>2014-08-14T10:11:00Z</time>
      </trkpt>
      <trkpt lat="45.69239" lon="6.66744">
        <ele>1830.97</ele>
        <time>2014-08-14T10:11:01Z</time>
      </trkpt>
      <trkpt lat="45.69242" lon="6.66748">
        <ele>1830.49</ele>
        <time>2014-08-14T10:11:02Z</time>
      </trkpt>
      <trkpt lat="45.69247" lon="6.66751">
        <ele>1830.49</ele>
        <time>2014-08-14T10:11:03Z</time>
      </trkpt>
      <trkpt lat="45.6925" lon="6.66754">
        <ele>1830.49</ele>
        <time>2014-08-14T10:11:04Z</time>
      </trkpt>
      <trkpt lat="45.69254" lon="6.66758">
        <ele>1830.01</ele>
        <time>2014-08-14T10:11:05Z</time>
      </trkpt>
      <trkpt lat="45.69258" lon="6.66763">
        <ele>1829.53</ele>
        <time>2014-08-14T10:11:06Z</time>
      </trkpt>
      <trkpt lat="45.69262" lon="6.66769">
        <ele>1829.05</ele>
        <time>2014-08-14T10:11:07Z</time>
      </trkpt>
      <trkpt lat="45.69265" lon="6.66774">
        <ele>1829.05</ele>
        <time>2014-08-14T10:11:08Z</time>
      </trkpt>
      <trkpt lat="45.69268" lon="6.66779">
        <ele>1828.08</ele>
        <time>2014-08-14T10:11:09Z</time>
      </trkpt>
      <trkpt lat="45.69276" lon="6.66793">
        <ele>1827.12</ele>
        <time>2014-08-14T10:11:12Z</time>
      </trkpt>
      <trkpt lat="45.6928" lon="6.66797">
        <ele>1826.64</ele>
        <time>2014-08-14T10:11:13Z</time>
      </trkpt>
      <trkpt lat="45.69284" lon="6.668">
        <ele>1826.64</ele>
        <time>2014-08-14T10:11:14Z</time>
      </trkpt>
      <trkpt lat="45.69288" lon="6.66803">
        <ele>1826.16</ele>
        <time>2014-08-14T10:11:15Z</time>
      </trkpt>
      <trkpt lat="45.69291" lon="6.66805">
        <ele>1825.68</ele>
        <time>2014-08-14T10:11:16Z</time>
      </trkpt>
      <trkpt lat="45.69292" lon="6.66809">
        <ele>1825.68</ele>
        <time>2014-08-14T10:11:17Z</time>
      </trkpt>
      <trkpt lat="45.69294" lon="6.66812">
        <ele>1825.2</ele>
        <time>2014-08-14T10:11:18Z</time>
      </trkpt>
      <trkpt lat="45.69315" lon="6.66866">
        <ele>1822.8</ele>
        <time>2014-08-14T10:11:30Z</time>
      </trkpt>
      <trkpt lat="45.69324" lon="6.6688">
        <ele>1822.32</ele>
        <time>2014-08-14T10:11:35Z</time>
      </trkpt>
      <trkpt lat="45.69323" lon="6.66883">
        <ele>1822.32</ele>
        <time>2014-08-14T10:11:36Z</time>
      </trkpt>
      <trkpt lat="45.69317" lon="6.66916">
        <ele>1823.28</ele>
        <time>2014-08-14T10:11:44Z</time>
      </trkpt>
      <trkpt lat="45.69302" lon="6.66982">
        <ele>1823.76</ele>
        <time>2014-08-14T10:11:59Z</time>
      </trkpt>
      <trkpt lat="45.69283" lon="6.67037">
        <ele>1826.64</ele>
        <time>2014-08-14T10:12:12Z</time>
      </trkpt>
      <trkpt lat="45.69262" lon="6.67076">
        <ele>1829.05</ele>
        <time>2014-08-14T10:12:24Z</time>
      </trkpt>
      <trkpt lat="45.6925" lon="6.67095">
        <ele>1830.49</ele>
        <time>2014-08-14T10:12:35Z</time>
      </trkpt>
      <trkpt lat="45.69252" lon="6.67094">
        <ele>1830.97</ele>
        <time>2014-08-14T10:12:48Z</time>
      </trkpt>
      <trkpt lat="45.69254" lon="6.67093">
        <ele>1830.49</ele>
        <time>2014-08-14T10:13:03Z</time>
      </trkpt>
    </trkseg>
  </trk>
</gpx>